[[{"header":{"parameterUnit":"m.s-1","parameterCategory":1,"la1":30.6,"la2":28.766,"lo1":-90.7593,"lo2":-88.6598,"dy":0.0162,"dx":0.0183,"nx":116,"ny":114,"refTime":"2023-08-23T18:00:00:Z","depth":0,"parameterNumber":2,"parameterNumberName":"U-component_of_WINDS"},"data":[0.0,0.0,0.0,0.0,0.0,0.0,0.0,0.0,0.0,0.0,0.0,0.0,0.0,0.0,0.0,0.0,0.0,0.0,0.0,0.0,0.0,0.0,0.0,0.0,0.0,0.0,0.0,0.0,0.0,0.0,0.0,0.0,0.0,0.0,0.0,0.0,0.0,0.0,0.0,0.0,0.0,0.0,0.0,0.0,0.0,0.0,0.0,0.0,0.0,0.0,0.0,0.0,0.0,0.0,0.0,0.0,0.0,0.0,0.0,0.0,0.0,0.0,0.0,0.0,0.0,0.0,0.0,0.0,0.0,0.0,0.0,0.0,0.0,0.0,0.0,0.0,0.0,0.0,0.0,0.0,0.0,0.0,0.0,0.0,0.0,0.0,0.0,0.0,0.0,0.0,0.0,0.0,0.0,0.0,0.0,0.0,0.0,0.0,0.0,0.0,0.0,0.0,0.0,0.0,0.0,0.0,0.0,0.0,0.0,0.0,0.0,0.0,0.0,0.0,0.0,0.0,0.0,0.0,0.0,0.0,0.0,0.0,0.0,0.0,0.0,0.0,0.0,0.0,0.0,0.0,0.0,0.0,0.0,0.0,0.0,0.0,0.0,0.0,0.0,0.0,0.0,0.0,0.0,0.0,0.0,0.0,0.0,0.0,0.0,0.0,0.0,0.0,0.0,0.0,0.0,0.0,0.0,0.0,0.0,0.0,0.0,0.0,0.0,0.0,0.0,0.0,0.0,0.0,0.0,0.0,0.0,0.0,0.0,0.0,0.0,0.0,0.0,0.0,0.0,0.0,0.0,0.0,0.0,0.0,0.0,0.0,0.0,0.0,0.0,0.0,0.0,0.0,0.0,0.0,0.0,0.0,0.0,0.0,0.0,0.0,0.0,0.0,0.0,0.0,0.0,0.0,0.0,0.0,0.0,0.0,0.0,0.0,0.0,0.0,0.0,0.0,0.0,0.0,0.0,0.0,0.0,0.0,0.0,0.0,0.0,0.0,0.0,0.0,0.0,0.0,0.0,0.0,0.0,0.0,0.0,0.0,0.0,0.0,0.0,0.0,0.0,0.0,0.0,0.0,0.0,0.0,0.0,0.0,0.0,0.0,0.0,0.0,0.0,0.0,0.0,0.0,0.0,0.0,0.0,0.0,0.0,0.0,0.0,0.0,0.0,0.0,0.0,0.0,0.0,0.0,0.0,0.0,0.0,0.0,0.0,0.0,0.0,0.0,0.0,0.0,0.0,0.0,0.0,0.0,0.0,0.0,0.0,0.0,0.0,0.0,0.0,0.0,0.0,0.0,0.0,0.0,0.0,0.0,0.0,0.0,0.0,0.0,0.0,0.0,0.0,0.0,0.0,0.0,0.0,0.0,0.0,0.0,0.0,0.0,0.0,0.0,0.0,0.0,0.0,0.0,0.0,0.0,0.0,0.0,0.0,0.0,0.0,0.0,0.0,0.0,0.0,0.0,0.0,0.0,0.0,0.0,0.0,0.0,0.0,0.0,0.0,0.0,0.0,0.0,0.0,0.0,0.0,0.0,0.0,0.0,0.0,0.0,0.0,0.0,0.0,0.0,0.0,0.0,0.0,0.0,0.0,0.0,0.0,0.0,0.0,0.0,0.0,0.0,0.0,0.0,0.0,0.0,0.0,0.0,0.0,0.0,0.0,0.0,0.0,0.0,0.0,0.0,0.0,0.0,0.0,0.0,0.0,0.0,0.0,0.0,0.0,0.0,0.0,0.0,0.0,0.0,0.0,0.0,0.0,0.0,0.0,0.0,0.0,0.0,0.0,0.0,0.0,0.0,0.0,0.0,0.0,0.0,0.0,0.0,0.0,0.0,0.0,0.0,0.0,0.0,0.0,0.0,0.0,0.0,0.0,0.0,0.0,0.0,0.0,0.0,0.0,0.0,0.0,0.0,0.0,0.0,0.0,0.0,0.0,0.0,0.0,0.0,0.0,0.0,0.0,0.0,0.0,0.0,0.0,0.0,0.0,0.0,0.0,0.0,0.0,0.0,0.0,0.0,0.0,0.0,0.0,0.0,0.0,0.0,0.0,0.0,0.0,0.0,0.0,0.0,0.0,0.0,0.0,0.0,0.0,0.0,0.0,0.0,0.0,0.0,0.0,0.0,0.0,0.0,0.0,0.0,0.0,0.0,0.0,0.0,0.0,0.0,0.0,0.0,0.0,0.0,0.0,0.0,0.0,0.0,0.0,0.0,0.0,0.0,0.0,0.0,0.0,0.0,0.0,0.0,0.0,0.0,0.0,0.0,0.0,0.0,0.0,0.0,0.0,0.0,0.0,0.0,0.0,0.0,0.0,0.0,0.0,0.0,0.0,0.0,0.0,0.0,0.0,0.0,0.0,0.0,0.0,0.0,0.0,0.0,0.0,0.0,0.0,0.0,0.0,0.0,0.0,0.0,0.0,0.0,0.0,0.0,0.0,0.0,0.0,0.0,0.0,0.0,0.0,0.0,0.0,0.0,0.0,0.0,0.0,0.0,0.0,0.0,0.0,0.0,0.0,0.0,0.0,0.0,0.0,0.0,0.0,0.0,0.0,0.0,0.0,0.0,0.0,0.0,0.0,0.0,0.0,0.0,0.0,0.0,0.0,0.0,0.0,0.0,0.0,0.0,0.0,0.0,0.0,0.0,0.0,0.0,0.0,0.0,0.0,0.0,0.0,0.0,0.0,0.0,0.0,0.0,0.0,0.0,0.0,0.0,0.0,0.0,0.0,0.0,0.0,0.0,0.0,0.0,0.0,0.0,0.0,0.0,0.0,0.0,0.0,0.0,0.0,0.0,0.0,0.0,0.0,0.0,0.0,0.0,0.0,0.0,0.0,0.0,0.0,0.0,0.0,0.0,0.0,0.0,0.0,0.0,0.0,0.0,0.0,0.0,0.0,0.0,0.0,0.0,0.0,0.0,0.0,0.0,0.0,0.0,0.0,0.0,0.0,0.0,0.0,0.0,0.0,0.0,0.0,0.0,0.0,0.0,0.0,0.0,0.0,0.0,0.0,0.0,0.0,0.0,0.0,0.0,0.0,0.0,0.0,0.0,0.0,0.0,0.0,0.0,0.0,0.0,0.0,0.0,0.0,0.0,0.0,0.0,0.0,0.0,0.0,0.0,0.0,0.0,0.0,0.0,0.0,0.0,0.0,0.0,0.0,0.0,0.0,0.0,0.0,0.0,0.0,0.0,0.0,0.0,0.0,0.0,0.0,0.0,0.0,0.0,0.0,0.0,0.0,0.0,0.0,0.0,0.0,0.0,0.0,0.0,0.0,0.0,0.0,0.0,0.0,0.0,0.0,0.0,0.0,0.0,0.0,0.0,0.0,0.0,0.0,0.0,0.0,0.0,0.0,0.0,0.0,0.0,0.0,0.0,0.0,0.0,0.0,0.0,0.0,0.0,0.0,0.0,0.0,0.0,0.0,0.0,0.0,0.0,0.0,0.0,0.0,0.0,0.0,0.0,0.0,0.0,0.0,0.0,0.0,0.0,0.0,0.0,0.0,0.0,0.0,0.0,0.0,0.0,0.0,0.0,0.0,0.0,0.0,0.0,0.0,0.0,0.0,0.0,0.0,0.0,0.0,0.0,0.0,0.0,0.0,0.0,0.0,0.0,0.0,0.0,0.0,0.0,0.0,0.0,0.0,0.0,0.0,0.0,0.0,0.0,0.0,0.0,0.0,0.0,0.0,0.0,0.0,0.0,0.0,0.0,0.0,0.0,0.0,0.0,0.0,0.0,0.0,0.0,0.0,0.0,0.0,0.0,0.0,0.0,0.0,0.0,0.0,0.0,0.0,0.0,0.0,0.0,0.0,0.0,0.0,0.0,0.0,0.0,0.0,0.0,0.0,0.0,0.0,0.0,0.0,0.0,0.0,0.0,0.0,0.0,0.0,0.0,0.0,0.0,0.0,0.0,0.0,0.0,0.0,0.0,0.0,0.0,0.0,0.0,0.0,0.0,0.0,0.0,0.0,0.0,0.0,0.0,0.0,0.0,0.0,0.0,0.0,0.0,0.0,0.0,0.0,0.0,0.0,0.0,0.0,0.0,0.0,0.0,0.0,0.0,0.0,0.0,0.0,0.0,0.0,0.0,0.0,0.0,0.0,0.0,0.0,0.0,0.0,0.0,0.0,0.0,0.0,0.0,0.0,0.0,0.0,0.0,0.0,0.0,0.0,0.0,0.0,0.0,0.0,0.0,0.0,0.0,0.0,0.0,0.0,0.0,0.0,0.0,0.0,0.0,0.0,0.0,0.0,0.0,0.0,0.0,0.0,0.0,0.0,0.0,0.0,0.0,0.0,0.0,0.0,0.0,0.0,0.0,0.0,0.0,0.0,0.0,0.0,0.0,0.0,0.0,0.0,0.0,0.0,0.0,0.0,0.0,0.0,0.0,0.0,0.0,0.0,0.0,0.0,0.0,0.0,0.0,0.0,0.0,0.0,0.0,0.0,0.0,0.0,0.0,0.0,0.0,0.0,0.0,0.0,0.0,0.0,0.0,0.0,0.0,0.0,0.0,0.0,0.0,0.0,0.0,0.0,0.0,0.0,0.0,0.0,0.0,0.0,0.0,0.0,0.0,0.0,0.0,0.0,0.0,0.0,0.0,0.0,0.0,0.0,0.0,0.0,0.0,0.0,0.0,0.0,0.0,0.0,0.0,0.0,0.0,0.0,0.0,0.0,0.0,0.0,0.0,0.0,0.0,0.0,0.0,0.0,0.0,0.0,0.0,0.0,0.0,0.0,0.0,0.0,0.0,0.0,0.0,0.0,0.0,0.0,0.0,0.0,0.0,0.0,0.0,0.0,0.0,0.0,0.0,0.0,0.0,0.0,0.0,0.0,0.0,0.0,0.0,0.0,0.0,0.0,0.0,0.0,0.0,0.0,0.0,0.0,0.0,0.0,0.0,0.0,0.0,0.0,0.0,0.0,0.0,0.0,0.0,0.0,0.0,0.0,0.0,0.0,0.0,0.0,0.0,0.0,0.0,0.0,0.0,0.0,0.0,0.0,0.0,0.0,0.0,0.0,0.0,0.0,0.0,0.0,0.0,0.0,0.0,0.0,0.0,0.0,0.0,0.0,0.0,0.0,0.0,0.0,0.0,0.0,0.0,0.0,0.0,0.0,0.0,0.0,0.0,0.0,0.0,0.0,0.0,0.0,0.0,0.0,0.0,0.0,0.0,0.0,0.0,0.0,0.0,0.0,0.0,0.0,0.0,0.0,0.0,0.0,0.0,0.0,0.0,0.0,0.0,0.0,0.0,0.0,0.0,0.0,0.0,0.0,0.0,0.0,0.0,0.0,0.0,0.0,0.0,0.0,0.0,0.0,0.0,0.0,0.0,0.0,0.0,0.0,0.0,0.0,0.0,0.0,0.0,0.0,0.0,0.0,0.0,0.0,0.0,0.0,0.0,0.0,0.0,0.0,0.0,0.0,0.0,0.0,0.0,0.0,0.0,0.0,0.0,0.0,0.0,0.0,0.0,0.0,0.0,0.0,0.0,0.0,0.0,0.0,0.0,0.0,0.0,0.0,0.0,0.0,0.0,0.0,0.0,0.0,0.0,0.0,0.0,0.0,0.0,0.0,0.0,0.0,0.0,0.0,0.0,0.0,0.0,0.0,0.0,0.0,0.0,0.0,0.0,0.0,0.0,0.0,0.0,0.0,0.0,0.0,0.0,0.0,0.0,0.0,0.0,0.0,0.0,0.0,0.0,0.0,0.0,0.0,0.0,0.0,0.0,0.0,0.0,0.0,0.0,0.0,0.0,0.0,0.0,0.0,0.0,0.0,0.0,0.0,0.0,0.0,0.0,0.0,0.0,0.0,0.0,0.0,0.0,0.0,0.0,0.0,0.0,0.0,0.0,0.0,0.0,0.0,0.0,0.0,0.0,0.0,0.0,0.0,0.0,0.0,0.0,0.0,0.0,0.0,0.0,0.0,0.0,0.0,0.0,0.0,0.0,0.0,0.0,0.0,0.0,0.0,0.0,0.0,0.0,0.0,0.0,0.0,0.0,0.0,0.0,0.0,0.0,0.0,0.0,0.0,0.0,0.0,0.0,0.0,0.0,0.0,0.0,0.0,0.0,0.0,0.0,-2.6332,0.0,0.0,0.0,0.0,0.0,0.0,0.0,0.0,0.0,0.0,0.0,0.0,0.0,0.0,0.0,0.0,0.0,0.0,0.0,0.0,0.0,0.0,0.0,0.0,0.0,0.0,0.0,0.0,0.0,0.0,0.0,0.0,0.0,0.0,0.0,0.0,0.0,0.0,0.0,-1.9781,-1.9159,-1.8252,-1.8903,-1.9361,-1.9632,0.0,0.0,0.0,0.0,0.0,0.0,0.0,0.0,0.0,0.0,0.0,0.0,0.0,0.0,0.0,0.0,0.0,0.0,0.0,0.0,0.0,0.0,0.0,0.0,0.0,0.0,0.0,0.0,0.0,0.0,0.0,0.0,0.0,0.0,0.0,0.0,0.0,0.0,0.0,0.0,0.0,0.0,0.0,0.0,0.0,0.0,0.0,0.0,0.0,0.0,0.0,0.0,0.0,0.0,0.0,0.0,0.0,0.0,0.0,0.0,0.0,0.0,0.0,0.0,0.0,0.0,0.0,0.0,0.0,0.0,0.0,-2.5507,0.0,0.0,0.0,0.0,0.0,0.0,0.0,0.0,0.0,0.0,0.0,0.0,0.0,0.0,0.0,0.0,0.0,0.0,0.0,0.0,0.0,0.0,0.0,0.0,-1.8563,-1.7959,-1.8394,0.0,0.0,0.0,0.0,0.0,0.0,0.0,0.0,-1.9457,-1.957,-1.9398,-1.8527,-1.7685,-1.6879,-1.6876,-1.7081,-1.7497,-1.8805,0.0,0.0,0.0,0.0,0.0,0.0,0.0,0.0,0.0,0.0,0.0,0.0,0.0,0.0,0.0,0.0,0.0,0.0,0.0,0.0,0.0,0.0,0.0,0.0,0.0,0.0,0.0,0.0,0.0,0.0,0.0,0.0,0.0,0.0,0.0,0.0,0.0,0.0,0.0,0.0,0.0,0.0,0.0,0.0,0.0,0.0,0.0,0.0,0.0,0.0,0.0,0.0,0.0,0.0,0.0,0.0,0.0,0.0,0.0,0.0,0.0,0.0,0.0,-2.4832,-2.4742,-2.452,-2.4601,-2.4624,-2.4628,-2.5007,-2.49,-2.4398,0.0,0.0,0.0,0.0,0.0,0.0,0.0,0.0,0.0,0.0,0.0,0.0,0.0,0.0,0.0,0.0,0.0,0.0,0.0,0.0,0.0,0.0,-1.8383,-1.8129,-1.6438,-1.7572,-1.7632,0.0,0.0,0.0,0.0,0.0,0.0,-1.9184,-1.935,-1.9041,-1.8213,-1.6504,-1.5637,-1.5626,-1.5054,-1.4943,-1.5317,-1.7497,-1.9122,-2.0177,0.0,0.0,0.0,0.0,0.0,0.0,0.0,0.0,0.0,0.0,0.0,0.0,0.0,0.0,0.0,0.0,0.0,0.0,0.0,0.0,0.0,0.0,0.0,0.0,0.0,0.0,0.0,0.0,0.0,0.0,0.0,0.0,0.0,0.0,0.0,0.0,0.0,0.0,0.0,0.0,0.0,-2.3481,-2.43,0.0,0.0,0.0,0.0,0.0,0.0,0.0,0.0,0.0,0.0,0.0,0.0,0.0,-2.3606,-2.4105,-2.3745,-2.3537,-2.3543,-2.4092,-2.4464,-2.4604,-2.5024,-2.509,-2.4963,-2.4997,0.0,-2.4247,-2.4266,0.0,0.0,0.0,0.0,0.0,0.0,0.0,0.0,0.0,0.0,0.0,0.0,0.0,0.0,0.0,0.0,0.0,0.0,0.0,0.0,0.0,-1.7337,-1.6752,-1.5393,-1.5341,-1.4903,-1.373,0.0,0.0,0.0,0.0,-1.8403,-1.8959,-1.9035,-1.8224,-1.6537,-1.4846,-1.3912,-1.3668,-1.3553,-1.3921,-1.4726,-1.544,-1.6663,-1.8255,-1.9442,0.0,0.0,0.0,0.0,0.0,0.0,0.0,0.0,0.0,0.0,0.0,0.0,0.0,0.0,0.0,0.0,0.0,0.0,0.0,0.0,0.0,0.0,0.0,0.0,0.0,0.0,0.0,0.0,0.0,0.0,0.0,0.0,0.0,0.0,0.0,0.0,0.0,0.0,0.0,-2.3455,-2.3441,-2.2293,-2.279,-2.2878,0.0,0.0,0.0,0.0,0.0,0.0,0.0,0.0,0.0,-2.3351,-2.2872,-2.2761,-2.3154,-2.2916,-2.2852,-2.2964,-2.3531,-2.3848,-2.3935,-2.442,-2.4522,-2.4324,-2.4274,-2.4152,-2.3941,-2.4389,-2.4048,-2.3254,0.0,0.0,0.0,0.0,-2.1699,-2.0579,0.0,0.0,0.0,0.0,0.0,0.0,0.0,0.0,0.0,0.0,0.0,0.0,-1.6393,-1.5494,-1.45,-1.3481,-1.2936,-1.2261,-1.1405,-1.3094,0.0,0.0,-1.6254,-1.7464,-1.8505,-1.7938,-1.6547,-1.4317,-1.308,-1.2345,-1.2097,-1.2445,-1.3153,-1.4093,-1.3794,-1.4778,-1.6739,-1.8253,-1.8691,-1.8479,0.0,0.0,0.0,0.0,0.0,0.0,0.0,0.0,0.0,0.0,0.0,0.0,0.0,0.0,0.0,0.0,0.0,0.0,0.0,0.0,0.0,0.0,0.0,0.0,0.0,0.0,0.0,0.0,0.0,0.0,0.0,0.0,0.0,0.0,0.0,0.0,0.0,-2.3667,-2.3017,-2.0853,-2.1683,-2.1886,0.0,0.0,0.0,0.0,0.0,0.0,-2.2649,-2.2466,-2.2361,-2.2335,-2.2174,-2.2176,-2.2327,-2.2327,-2.2365,-2.2488,-2.3086,-2.3374,-2.3435,-2.4033,-2.4179,-2.3976,-2.3924,-2.3791,-2.3689,-2.4223,-2.4165,-2.3753,-2.4266,-2.3536,-2.2335,-2.2688,-2.1742,-2.0365,0.0,0.0,0.0,0.0,0.0,0.0,0.0,0.0,0.0,0.0,0.0,-1.3676,-1.4097,-1.2652,-1.1149,-0.9971,-1.0789,-1.0647,-0.8889,-1.0491,-1.2172,-1.3717,-1.4406,-1.5724,-1.7814,-1.5598,-1.3441,-1.1403,-1.0954,-1.1019,-1.156,-1.1886,-1.2297,-1.2794,-1.3109,-1.4562,-1.6714,-1.5744,-1.639,-1.7983,-1.7447,0.0,0.0,0.0,0.0,0.0,0.0,0.0,0.0,0.0,0.0,0.0,0.0,0.0,0.0,0.0,0.0,0.0,0.0,0.0,0.0,0.0,0.0,0.0,0.0,0.0,0.0,0.0,0.0,0.0,0.0,0.0,0.0,0.0,0.0,0.0,0.0,0.0,0.0,-2.2212,-2.136,0.0,0.0,0.0,0.0,-2.1912,-2.2593,-2.2702,-2.1886,-2.1869,-2.1918,-2.2107,-2.209,-2.2101,-2.2101,-2.2101,-2.2025,-2.1856,-2.2758,-2.3314,-2.3537,-2.443,-2.4713,-2.4467,-2.4467,-2.4082,-2.3537,-2.3679,-2.3716,-2.3676,-2.3334,-2.2788,-2.2175,-2.1899,-2.1188,-2.0385,0.0,0.0,0.0,0.0,0.0,0.0,0.0,0.0,0.0,-1.4213,-1.3501,-1.2934,-1.286,-1.078,-0.9091,-0.8305,-0.7763,-0.712,-0.6409,-0.9082,-1.1087,-1.1921,-1.4283,-1.554,-1.5488,-1.2958,-1.1215,-1.0433,-0.9722,-0.9601,-1.0031,-1.0501,-1.1151,-1.1921,-1.2051,-1.3012,-1.4563,-1.4847,-1.5411,-1.6158,-1.6388,-1.7351,0.0,0.0,0.0,0.0,0.0,0.0,0.0,0.0,0.0,0.0,0.0,0.0,0.0,0.0,0.0,0.0,0.0,0.0,0.0,0.0,0.0,0.0,0.0,0.0,0.0,0.0,0.0,0.0,0.0,0.0,0.0,0.0,0.0,0.0,0.0,0.0,0.0,-2.118,-2.1353,0.0,-1.9968,-2.0803,-2.124,-2.0845,-2.1341,-2.152,-2.1252,-2.1349,-2.1436,-2.1512,-2.1512,-2.1512,-2.1512,-2.1512,-2.1425,-2.1223,-2.214,-2.2523,-2.2492,-2.3215,-2.3493,-2.3406,-2.3081,-2.2721,-2.235,-2.2375,-2.287,-2.358,-2.358,-2.2975,-2.2083,-2.1667,-2.0882,-2.0067,0.0,0.0,0.0,0.0,0.0,0.0,0.0,0.0,-1.288,-1.3144,-1.1975,-1.1029,-1.0814,-0.8265,-0.6502,-0.6277,-0.5304,-0.4732,-0.4739,-0.7492,-0.9597,-1.0581,-1.3559,-1.4204,-1.2056,-1.0409,-0.9234,-0.8514,-0.8132,-0.8115,-0.8514,-0.9098,-0.9805,-1.0628,-1.0903,-1.1491,-1.2363,-1.3252,-1.4045,-1.476,-1.5116,-1.6028,-1.7135,0.0,0.0,0.0,0.0,0.0,0.0,0.0,0.0,0.0,0.0,0.0,0.0,0.0,0.0,0.0,0.0,0.0,0.0,0.0,0.0,0.0,0.0,0.0,0.0,0.0,0.0,0.0,0.0,0.0,0.0,0.0,0.0,0.0,0.0,0.0,-2.0995,-2.0031,-2.0558,-2.0524,-1.9402,-1.9837,-2.0249,-2.0313,-2.0673,-2.0944,-2.0992,-2.1118,-2.1205,-2.1205,-2.1464,-2.1425,-2.1002,-2.1272,-2.1108,-2.0566,-2.1445,-2.1773,-2.1668,-2.227,-2.252,-2.2432,-2.2015,-2.1695,-2.1472,-2.1472,-2.1926,-2.2721,-2.3229,-2.2891,-2.2045,-2.1904,-2.116,-2.0173,0.0,0.0,0.0,0.0,0.0,0.0,0.0,-1.1116,-1.1591,-1.1724,-0.9408,-0.7775,-0.7931,-0.5066,-0.3294,-0.3701,-0.3617,-0.3688,-0.3999,-0.5734,-0.7691,-0.9833,-1.2017,-1.1426,-0.7719,-0.8057,-0.7367,-0.554,-0.6073,-0.6578,-0.7031,-0.77,-0.8327,-0.8858,-0.9676,-1.0093,-1.0265,-1.0821,-1.2142,-1.3846,-1.3488,-1.4582,-1.6286,0.0,0.0,0.0,0.0,0.0,0.0,0.0,0.0,0.0,0.0,0.0,0.0,0.0,0.0,0.0,0.0,0.0,0.0,0.0,0.0,0.0,0.0,0.0,0.0,0.0,0.0,0.0,0.0,0.0,0.0,0.0,0.0,0.0,-1.9986,-1.9957,-1.9596,-1.9049,-1.8998,-1.8916,-1.8733,-1.9078,-1.9554,-2.0235,-2.0644,-2.0954,-2.1128,-2.1167,-2.1167,-2.1205,-2.1911,-2.1787,-2.0644,-2.1346,-2.1116,-1.9872,-2.0765,-2.1163,-2.1169,-2.1764,-2.1908,-2.1606,-2.1338,-2.1123,-2.0907,-2.0907,-2.0907,-2.1042,-2.2188,-2.2324,-2.1978,-2.2426,-2.1887,-2.0726,0.0,0.0,0.0,0.0,0.0,0.0,0.0,-0.9791,-1.0262,-1.0598,-0.806,-0.6327,-0.6654,-0.3776,-0.1914,-0.2126,-0.2332,-0.3,-0.4352,-0.6301,-0.8333,-1.0321,-0.8935,-0.7544,-0.6352,-0.5686,-0.4999,-0.4294,-0.4928,-0.5286,-0.5378,-0.6045,-0.6706,-0.7328,-0.7935,-0.8504,-0.9035,-0.9426,-1.0077,-1.0971,-1.1823,-1.3104,-1.4493,0.0,0.0,0.0,0.0,0.0,0.0,0.0,0.0,0.0,0.0,0.0,0.0,0.0,0.0,0.0,0.0,0.0,0.0,0.0,0.0,0.0,0.0,0.0,0.0,0.0,0.0,0.0,0.0,0.0,0.0,0.0,0.0,-1.7887,-1.8449,-1.8325,-1.8193,-1.8338,-1.8747,-1.9028,-1.9136,-1.9106,-1.924,-1.9539,-1.9824,-1.999,-2.0029,-2.0186,-2.0566,-2.1175,-2.0789,-2.075,-2.1011,-2.0624,-2.0079,-1.9469,-2.0784,-2.0828,-1.9717,-2.0757,-2.074,-1.9857,-1.9583,-1.9363,-1.9171,-1.9171,-1.9088,-1.9026,-2.0416,-2.0766,-2.0427,-2.002,-1.9449,-1.8752,0.0,0.0,0.0,0.0,0.0,0.0,0.0,-0.8495,-0.8632,-0.8117,-0.6124,-0.4588,-0.4065,-0.1906,-0.0593,-0.077,-0.1029,-0.2046,-0.4001,-0.6174,-0.7529,-0.7901,-0.642,-0.5096,-0.4027,-0.3451,-0.3068,-0.2875,-0.3437,-0.3685,-0.3671,-0.4378,-0.4925,-0.5375,-0.5906,-0.6429,-0.6891,-0.7382,-0.7819,-0.8331,-0.9583,-1.11,-1.2605,-1.2428,-1.2779,-1.336,-1.3276,-1.3212,-1.3267,-1.3859,0.0,0.0,0.0,0.0,0.0,0.0,0.0,0.0,0.0,0.0,0.0,0.0,0.0,0.0,0.0,0.0,0.0,0.0,0.0,0.0,0.0,0.0,0.0,0.0,-1.6965,-1.6943,-1.6938,-1.7094,-1.7306,-1.7535,-1.8088,-1.8594,-1.8913,-1.8882,-1.9002,-1.9262,-1.9478,-1.9557,-1.9478,-1.9676,-2.0167,-2.1001,-2.0459,-2.0382,-2.0885,-2.0226,-1.9559,-1.8913,-1.9902,-1.9755,-1.8654,-1.9499,-1.9459,0.0,-1.8357,-1.8172,-1.8125,-1.7932,-1.7792,0.0,0.0,0.0,0.0,0.0,-1.8348,-1.7651,0.0,0.0,0.0,0.0,0.0,0.0,0.0,-0.7224,-0.6906,-0.5382,-0.4101,-0.2779,-0.1242,0.0063,0.0639,0.0186,-0.0093,-0.1214,-0.3479,-0.5482,-0.5764,-0.3964,-0.4133,-0.3306,-0.1294,-0.1389,-0.1428,-0.1398,-0.1758,-0.1952,-0.198,-0.2696,-0.3077,-0.3223,-0.3747,-0.4108,-0.4397,-0.5026,-0.5563,-0.6085,-0.7114,-0.8808,-1.0707,-1.0706,-1.0934,-1.1242,-1.1183,-1.1199,-1.1391,-1.2436,0.0,0.0,0.0,0.0,0.0,0.0,0.0,0.0,0.0,0.0,0.0,0.0,0.0,0.0,0.0,0.0,0.0,0.0,0.0,0.0,0.0,0.0,0.0,0.0,-1.608,-1.6095,-1.5668,-1.6243,-1.6753,-1.6791,-1.7313,-1.7821,-1.8273,-1.8482,-1.8772,-1.9183,-1.939,-1.9439,-1.9222,0.0,0.0,0.0,0.0,-2.0323,-2.0343,-1.9924,-1.9225,-1.8282,-1.8565,-1.8409,-1.7874,-1.812,-1.8126,-1.79,-1.738,-1.7286,-1.7488,-1.7044,-1.6857,-1.7008,-1.8459,-1.8921,-1.8718,-1.8543,-1.7861,-1.6964,0.0,0.0,0.0,0.0,0.0,0.0,0.0,-0.5814,-0.5876,-0.5755,-0.3416,-0.1712,-0.1565,0.0747,0.1608,-0.0127,-0.0852,-0.2141,-0.424,-0.4539,-0.3833,-0.2012,-0.0943,-0.0156,0.0353,0.0118,-0.0058,-0.014,-0.0335,-0.0474,-0.0586,-0.1004,-0.1287,-0.141,-0.1733,-0.225,-0.2948,-0.3324,-0.4022,-0.4892,-0.5509,-0.7071,-0.9058,-0.9743,-1.0096,-1.0334,-1.0853,-1.1202,-1.1516,-1.1996,-1.2619,-1.3129,-1.2706,-1.2868,0.0,0.0,0.0,0.0,0.0,0.0,0.0,0.0,0.0,0.0,0.0,0.0,0.0,0.0,0.0,0.0,0.0,0.0,0.0,-1.5454,-1.5397,-1.5397,-1.5565,-1.5977,-1.6369,-1.6745,-1.7201,-1.7546,-1.7821,-1.8031,-1.8241,-1.8554,-1.8772,-1.886,-1.8812,-1.8851,-1.9161,-1.9795,-1.9301,-1.9173,-1.9444,-1.8718,-1.8103,-1.7595,0.0,0.0,-1.6947,-1.7213,-1.7169,-1.6871,-1.6298,-1.6251,-1.648,-1.6157,-1.6015,-1.6103,-1.6631,-1.6649,-1.6423,-1.6406,-1.6234,-1.596,0.0,0.0,0.0,0.0,0.0,0.0,0.0,-0.4505,-0.4355,-0.3826,-0.2508,-0.1357,-0.0683,0.0507,0.07,-0.0687,-0.2391,-0.3036,-0.2193,-0.2833,-0.2001,0.0776,0.148,0.1808,0.1852,0.1668,0.1525,0.1451,0.1228,0.1115,0.1143,0.0809,0.0614,0.0531,0.0317,-0.0177,-0.0901,-0.1573,-0.2326,-0.3179,-0.4119,-0.52,-0.6424,-0.8012,-0.8777,-0.9102,-0.9948,-1.0367,-1.0598,-1.1264,-1.1836,-1.2255,-1.2175,-1.2281,-1.2555,0.0,0.0,0.0,0.0,0.0,0.0,0.0,0.0,0.0,0.0,0.0,0.0,0.0,0.0,-1.3762,-1.4094,0.0,-1.4384,-1.4261,-1.4826,-1.5298,-1.5305,-1.5572,-1.5962,-1.6516,-1.6871,-1.718,-1.7505,-1.7749,-1.8072,-1.8683,-1.8482,-1.8442,-1.8683,-1.8402,-1.8505,-1.9225,-1.8376,-1.8207,-1.8872,-1.7755,-1.6968,-1.6566,-1.6831,-1.6533,-1.5805,-1.6104,-1.6139,-1.5961,-1.5493,-1.5445,-1.5764,-1.5248,-1.4873,-1.4682,-1.4825,-1.5016,-1.5261,-1.5261,-1.4975,-1.4592,0.0,0.0,0.0,0.0,0.0,0.0,0.0,0.0,-0.2899,-0.1787,-0.1602,-0.1064,0.0212,0.0214,-0.0337,-0.1434,-0.3868,-0.3787,-0.0159,-0.1202,-0.0317,0.3457,0.3516,0.3437,0.3436,0.3374,0.3253,0.3151,0.2869,0.2775,0.2817,0.2536,0.2371,0.2352,0.2123,0.1695,0.1099,0.0156,-0.0672,-0.1492,-0.2718,-0.338,-0.3892,-0.5875,-0.7042,-0.7687,-0.8707,-0.9241,-0.9565,-1.0348,-1.0901,-1.1334,-1.1664,-1.1732,-1.1792,-1.2199,-1.2344,0.0,0.0,0.0,0.0,0.0,0.0,0.0,0.0,-1.4368,-1.3691,-1.3826,-1.323,-1.2621,-1.2551,-1.3275,-1.3722,-1.3234,-1.4282,-1.5105,-1.4944,-1.5104,-1.5452,-1.6098,-1.6402,-1.6738,-1.7188,-1.7335,-1.774,-1.8514,-1.8031,-1.791,-1.8304,-1.7821,-1.7764,-1.8381,-1.748,-1.7318,-1.8043,-1.6821,-1.5982,-1.5492,-1.5525,-1.5298,-1.4835,-1.4933,-1.5048,-1.5248,-1.4729,-1.4729,-1.4962,-1.4394,-1.3871,-1.3491,-1.3443,-1.3781,-1.4352,-1.4352,-1.3968,-1.3443,0.0,0.0,0.0,0.0,0.0,0.0,0.0,0.0,0.0,-0.1826,-0.0978,-0.0322,-0.0147,0.0633,0.0092,-0.2488,-0.4418,-0.4148,-0.0975,-0.0569,0.1216,0.491,0.5264,0.5399,0.538,0.5495,0.5277,0.4754,0.4697,0.4462,0.4012,0.384,0.3705,0.3574,0.334,0.2902,0.2356,0.1631,0.0763,-0.0267,-0.1072,-0.1879,-0.2691,-0.3593,-0.4829,-0.6173,-0.718,-0.8314,-0.9329,-0.9242,-1.0264,-1.1465,-1.0987,-1.0972,-1.1238,-1.1846,-1.159,-1.1307,-1.2333,-1.2484,-1.2574,-1.3557,-1.3409,-1.324,0.0,-1.3513,-1.2948,-1.3285,-1.2675,-1.2148,-1.2298,-1.259,-1.2929,-1.332,-1.3691,-1.4089,-1.4571,-1.4679,-1.4808,-1.522,-1.5797,-1.6245,-1.6476,-1.6517,-1.664,-1.6935,-1.6894,-1.6853,-1.6935,-1.6853,-1.6771,-1.6673,-1.6558,-1.6345,-1.6015,-1.5684,-1.5276,-1.4783,-1.4216,-1.4204,-1.4597,-1.3757,-1.388,-1.4736,-1.4202,-1.3865,-1.3727,-1.363,-1.3539,-1.3491,-1.3249,-1.3104,-1.3055,-1.3195,-1.3244,-1.3098,0.0,0.0,0.0,0.0,0.0,0.0,0.0,0.0,0.0,0.0,-0.1149,-0.0989,-0.1228,-0.1268,-0.1739,-0.2916,-0.4139,-0.3315,0.0368,0.0761,0.2633,0.6706,0.6966,0.7021,0.7054,0.6965,0.6794,0.6452,0.6452,0.6352,0.6127,0.6065,0.5892,0.564,0.5425,0.4908,0.4156,0.3236,0.2193,0.1139,0.0335,-0.0503,-0.1381,-0.2075,-0.2894,-0.3878,-0.576,-0.6955,0.0,-0.8343,-0.9311,-1.0266,-1.0299,-1.0567,-1.0929,-1.1089,-1.1061,-1.1162,-1.1893,-1.1875,-1.1819,-1.2498,-1.2525,-1.2434,-1.2706,-1.2485,-1.2335,-1.2616,-1.235,-1.2188,-1.2634,-1.2931,-1.3111,-1.3105,-1.3611,-1.3941,-1.3751,-1.4135,-1.4497,-1.4625,-1.525,-1.5782,-1.5982,-1.6476,-1.6878,-1.7033,-1.6607,-1.6566,-1.7033,-1.6468,-1.6072,-1.5982,-1.5782,-1.5533,-1.5367,-1.5284,-1.4783,-1.3948,-1.4093,-1.388,-1.3332,-1.3332,-1.3479,-1.3775,-1.3678,-1.334,-1.2856,-1.3055,-1.2905,-1.2613,-1.2516,-1.2419,-1.237,-1.2613,-1.2613,-1.2467,0.0,0.0,0.0,0.0,0.0,0.0,0.0,0.0,0.0,0.0,-0.1014,-0.1315,-0.1786,-0.2338,-0.2691,-0.2741,-0.3392,-0.2319,0.1181,0.1944,0.3871,0.7608,0.8431,0.8828,0.8827,0.8728,0.8583,0.8373,0.8373,0.8338,0.8211,0.8099,0.7887,0.7591,0.7213,0.667,0.5943,0.4802,0.3683,0.2611,0.1641,0.0704,-0.0135,-0.0892,-0.1395,-0.2021,-0.4316,-0.5663,-0.6465,-0.7234,-0.8226,-0.918,-0.9412,-0.9814,-1.0217,-1.0118,-1.0259,-1.0513,-1.0926,-1.0944,-1.0971,-1.1662,-1.1868,-1.1854,-1.1773,-1.178,-1.1849,-1.1938,-1.1944,-1.21,-1.2586,-1.2979,-1.316,-1.2945,-1.35,-1.3757,-1.3165,-1.3701,-1.421,-1.4298,-1.509,-1.555,-1.5393,-1.6134,-1.6632,-1.6698,-1.6064,-1.5982,-1.6568,-1.5842,-1.5401,-1.5401,-1.5075,-1.4915,-1.4915,-1.4831,-1.4328,-1.3313,-1.3881,-1.3519,-1.2426,-1.302,-1.3098,-1.2807,-1.3098,-1.2861,-1.2322,-1.2521,-1.237,-1.198,-1.1932,-1.1883,-1.1878,-1.2024,-1.198,-1.1883,0.0,0.0,0.0,0.0,0.0,0.0,0.0,0.0,0.0,0.0,0.0,0.0,0.0,-0.1554,-0.1702,-0.1819,-0.2087,-0.1415,0.0613,0.2681,0.4812,0.7039,0.9541,1.0916,1.0909,1.1097,1.101,1.0585,1.0585,1.0401,1.0007,0.9559,0.9263,0.9105,0.8322,0.7838,0.7556,0.6335,0.5225,0.4107,0.2848,0.1813,0.0941,0.0034,-0.0522,-0.0985,-0.2803,-0.4545,-0.5898,-0.5752,-0.7026,-0.867,-0.8291,-0.8456,-0.8813,-0.8993,-0.8908,-0.8875,-0.9282,-0.938,-0.967,-1.0912,-1.128,-1.1377,-1.1549,-1.1591,-1.1569,-1.137,-1.1439,-1.1605,-1.1895,-1.2254,-1.2638,-1.2954,-1.3189,-1.3234,-1.3044,-1.3521,-1.4,-1.4249,-1.5416,-1.5783,0.0,-1.5136,-1.536,-1.5166,-1.4908,-1.4734,-1.4776,-1.4734,-1.4734,-1.4734,-1.4524,-1.4433,-1.4433,-1.4243,-1.3786,-1.31,-1.3131,-1.2859,-1.2426,-1.2687,-1.2516,-1.2029,-1.2322,-1.2273,-1.2029,-1.2024,-1.2029,-1.198,-1.1731,-1.159,-1.1585,-1.134,-1.1389,-1.159,0.0,0.0,0.0,0.0,0.0,0.0,0.0,0.0,0.0,0.0,0.0,0.0,0.0,0.0,0.0,0.0,-0.1123,-0.0443,0.1891,0.2659,0.412,0.6538,0.7681,0.8495,0.8922,0.992,1.0486,1.056,1.1447,1.1768,1.1549,1.1405,1.1125,1.0686,1.0129,0.9563,0.902,0.7808,0.6554,0.5262,0.4207,0.2911,0.1587,0.1036,0.0393,-0.0337,0.0,-0.2704,-0.4368,-0.519,-0.6077,-0.69,-0.7326,-0.7643,-0.7966,-0.8247,-0.8512,-0.8744,-0.8992,-0.938,-0.9837,-1.0434,-1.0632,-1.0684,-1.0963,-1.1209,-1.14,-1.1317,-1.1438,-1.1714,-1.2222,-1.2305,-1.2381,-1.2709,-1.2952,-1.2975,-1.259,-1.2996,-1.331,-1.3292,-1.4266,0.0,0.0,0.0,0.0,-1.5101,-1.5119,-1.511,-1.4957,-1.4538,-1.4292,-1.4292,-1.4068,-1.4026,-1.4201,-1.4286,-1.3815,-1.2839,-1.2176,-1.1916,-1.1927,-1.1989,-1.198,-1.2029,-1.2078,-1.1975,-1.1731,-1.1932,-1.178,-1.1477,-1.1433,-1.1371,-1.1326,-1.1095,-1.1129,-1.134,0.0,0.0,0.0,0.0,0.0,0.0,0.0,0.0,0.0,0.0,0.0,0.0,0.0,0.0,0.0,0.0,0.0,0.0386,0.2276,0.2941,0.4131,0.5984,0.7195,0.7992,0.8436,0.9598,1.0283,1.0501,1.1447,1.1896,1.195,1.2073,1.195,1.167,1.1382,1.0881,1.0161,0.9058,0.7673,0.6148,0.5169,0.3818,0.234,0.1694,0.1042,0.0,-0.0479,-0.1528,-0.2731,-0.4118,-0.4978,-0.5651,-0.6572,-0.7211,-0.7575,-0.7308,-0.7673,-0.8156,-0.8164,-0.8687,-0.9363,-0.9913,-1.0051,-1.0128,-1.0481,-1.0766,-1.0961,-1.092,-1.105,-1.1246,-1.1735,-1.1875,-1.2028,-1.219,-1.2647,-1.2821,-1.2271,-1.2689,-1.3082,-1.3187,-1.3873,-1.409,0.0,0.0,0.0,-1.4503,-1.4807,-1.4901,-1.4622,-1.4208,-1.3955,-1.3955,-1.3864,-1.3913,-1.4088,-1.4243,-1.3724,-1.2583,-1.1547,-1.1175,-1.14,-1.1476,-1.1565,-1.1731,-1.1834,-1.1683,-1.1482,-1.1555,-1.1381,-1.1066,-1.1053,-1.1048,-1.1071,-1.0847,-1.0879,-1.1047,0.0,0.0,0.0,0.0,0.0,0.0,0.0,0.0,0.0,0.0,0.0,0.0,0.0,0.0,0.0,0.0,0.0,0.0,0.1873,0.35,0.4718,0.5382,0.7819,0.915,0.9189,0.9964,1.0406,1.0413,1.0685,1.0968,1.1298,1.1648,1.1841,1.1957,1.2027,1.1622,1.0898,0.9954,0.8487,0.6722,0.5718,0.4494,0.3186,0.1973,0.1409,0.1065,-0.0461,-0.1012,-0.1177,-0.2627,-0.3804,-0.492,-0.6099,-0.7027,-0.7472,-0.628,-0.6477,-0.7086,-0.6971,-0.7478,-0.829,-0.9291,-0.9559,-0.9689,-1.0077,-1.0202,-1.0192,-1.0162,-1.0107,-1.0139,-1.0433,-1.0999,-1.1404,-1.1456,-1.2272,-1.2728,-1.2085,-1.2686,-1.3331,-1.3772,-1.4145,-1.4313,-1.4189,0.0,0.0,-1.3374,0.0,-1.4188,-1.3773,-1.3695,-1.3652,-1.3652,-1.3913,-1.4046,-1.4046,-1.3997,-1.3398,-1.2326,-1.1139,-1.0689,-1.0837,-1.1117,-1.1192,-1.1179,-1.1433,-1.1433,-1.1165,-1.0972,-1.0891,-1.0858,-1.0641,-1.0688,-1.0834,-1.0548,-1.0566,-1.0774,0.0,0.0,0.0,0.0,0.0,0.0,0.0,0.0,0.0,0.0,0.0,0.0,0.0,0.0,0.0,0.0,0.0,0.0,0.246,0.29,0.3473,0.4207,0.5269,0.5992,0.635,0.8052,0.902,0.9168,1.0373,1.099,1.108,1.1423,1.1454,1.1243,1.1156,1.0801,1.0183,0.9208,0.8105,0.6929,0.5717,0.4465,0.3184,0.2058,0.1336,0.0771,0.0172,-0.0345,-0.0947,-0.248,-0.3904,-0.5129,-0.5819,-0.6307,-0.6549,-0.6287,-0.6711,-0.7271,-0.7335,-0.7865,-0.8535,-0.8982,-0.9087,-0.8947,-0.854,-0.8711,-0.8746,-0.8079,-0.8185,-0.848,-0.8687,-0.9494,-1.0223,-1.0604,-1.1479,-1.211,-1.2223,-1.2604,-1.2882,-1.2775,-1.326,-1.3346,-1.28,-1.372,0.0,0.0,-1.3686,-1.4188,-1.423,-1.3603,-1.3264,-1.3264,-1.3313,-1.327,-1.3052,-1.2357,-1.18,-1.1332,-1.0701,-1.0301,-1.0181,-1.0341,-1.0532,-1.0692,-1.0888,-1.1011,-1.0967,-1.0915,-1.0707,-1.0357,-1.0195,-1.015,-1.0146,-1.0006,-1.0037,-1.0168,0.0,0.0,0.0,0.0,0.0,0.0,0.0,0.0,0.0,0.0,0.0,0.0,0.0,0.0,0.0,0.0,0.0,0.0,0.0,0.3088,0.3422,0.4192,0.4849,0.5256,0.5444,0.7112,0.801,0.8044,0.8991,0.9538,0.9701,1.0079,1.011,0.9863,1.0116,0.9785,0.9046,0.8339,0.7491,0.0,0.0,0.4393,0.3423,0.223,0.153,0.1044,0.0522,-0.0175,-0.1011,-0.2263,-0.3792,-0.5245,-0.5877,-0.6399,-0.6702,-0.6172,-0.6692,-0.7339,-0.7007,-0.7577,-0.8317,-0.8324,-0.8399,-0.8336,-0.7901,-0.7853,-0.7816,-0.7422,-0.7231,-0.726,-0.7476,-0.8459,-0.9362,-0.9642,-1.0779,-1.1729,-1.2042,-1.2304,-1.2544,-1.264,-1.2956,-1.3048,-1.2763,-1.3291,-1.3448,0.0,-1.3248,-1.3451,-1.333,-1.2699,-1.232,-1.232,-1.2491,-1.2491,-1.2272,-1.1327,-1.0809,-1.0684,-1.0118,-0.987,-0.9921,-1.0002,-1.015,-1.0382,0.0,-1.0525,-1.0467,-1.0375,-1.0172,-0.9912,-0.9759,-0.9714,-0.9751,-0.9614,-0.9676,-0.9849,0.0,0.0,0.0,0.0,0.0,0.0,0.0,0.0,0.0,0.0,0.0,0.0,0.0,0.0,0.0,0.0,0.0,0.0,0.0,0.0,0.3849,0.4704,0.5403,0.57,0.5555,0.6733,0.7235,0.7014,0.7212,0.7457,0.7754,0.8201,0.8291,0.8098,0.8726,0.8479,0.7498,0.7245,0.658,0.561,0.4736,0.4087,0.3509,0.0,0.1679,0.144,0.0611,-0.0221,-0.1028,-0.1928,-0.3471,-0.5188,-0.5872,-0.6692,-0.72,-0.6104,-0.6595,-0.7318,-0.6436,-0.6946,-0.7741,-0.7593,-0.7719,-0.7797,-0.7605,-0.7266,-0.6997,-0.7022,-0.6527,-0.6094,-0.6337,-0.7465,-0.8417,-0.8556,-0.9961,-1.122,-1.1623,-1.1924,-1.2319,-1.2886,-1.2975,-1.3089,-1.3288,-1.3137,-1.3009,-1.2875,-1.2601,-1.2297,-1.1972,-1.1542,-1.1241,-1.1198,-1.1542,-1.1628,-1.1456,-1.0593,-1.0164,-1.0164,-0.9563,-0.9482,-0.9831,-0.9809,-0.9913,-1.0117,0.0,0.0,-0.9975,-0.9645,-0.9553,-0.9535,-0.9222,-0.9226,-0.9369,-0.9128,-0.9292,-0.9577,0.0,0.0,0.0,0.0,0.0,0.0,0.0,0.0,0.0,0.0,-0.1497,-0.0319,0.0,0.0,0.0,0.0,0.0,0.0,0.0,0.0,0.0,0.4435,0.4949,0.5214,0.5196,0.6122,0.6418,0.6033,0.6314,0.6429,0.6448,0.6675,0.6645,0.6347,0.6455,0.6184,0.5559,0.5291,0.4781,0.404,0.3424,0.2832,0.2131,0.1171,0.0,0.0,0.0491,0.0268,-0.009,-0.1427,-0.2946,-0.4405,-0.4959,-0.576,-0.6414,-0.618,-0.6508,-0.6892,-0.6741,-0.6883,-0.7132,-0.7314,-0.7425,-0.7277,-0.6498,-0.6002,-0.5429,-0.4337,-0.4162,-0.4202,-0.4221,-0.5252,-0.6385,-0.7316,-0.8455,-0.964,-1.0803,-1.1705,-1.2374,-1.2636,-1.2931,-1.3002,-1.2833,-1.279,0.0,0.0,0.0,-1.1408,-1.1757,-1.1327,-1.0939,-1.0722,-1.0419,-1.0246,-1.0202,-0.9733,-0.9476,-0.9476,-0.9345,-0.9323,-0.9402,-0.9338,-0.947,-0.9691,-0.9628,0.0,-1.0319,-0.94,-0.9217,-0.9444,-0.8503,-0.818,-0.8222,-0.8279,-0.8322,-0.8456,0.0,0.0,0.0,0.0,0.0,0.0,0.0,-0.4049,-0.4222,-0.4777,-0.3552,-0.2253,-0.1301,-0.0439,0.0178,0.0,0.0,0.0,0.0,0.0,0.0,0.0,0.0,0.0,0.3691,0.4487,0.476,0.455,0.0,0.4803,0.4845,0.494,0.477,0.4339,0.4464,0.4106,0.3419,0.3244,0.2997,0.2591,0.2026,0.1827,0.1828,0.0,0.0,0.0,0.067,0.0493,0.0269,-0.0717,-0.1881,-0.3124,-0.4537,-0.4922,-0.4921,-0.5327,-0.5591,-0.5766,-0.5766,-0.6198,-0.6661,-0.6833,-0.7007,-0.679,-0.572,-0.5022,-0.4293,-0.3377,-0.2846,-0.2573,-0.2887,-0.4123,-0.5323,-0.5924,-0.7325,-0.8851,-1.0259,-1.0885,-1.1558,-1.2541,-1.2499,-1.2448,-1.2662,-1.2485,-1.21,-1.1542,0.0,-1.0939,-1.0766,-1.0207,-0.9946,-1.0077,-0.9646,-0.9428,-0.9602,-0.9174,-0.9003,-0.9087,-0.9003,-0.9003,-0.9091,-0.9044,-0.9127,-0.922,-0.918,0.0,-0.9476,-0.8823,-0.8712,-0.8949,-0.8301,-0.8164,-0.8264,-0.835,-0.8495,-0.8671,0.0,0.0,0.0,0.0,0.0,0.0,0.0,-0.4799,-0.519,-0.5845,-0.5208,-0.4159,-0.2739,-0.148,-0.0616,0.0,0.0,0.0,0.0,0.0,0.0,0.0,0.0,0.0,0.0,0.0,0.0,0.3031,0.3107,0.0,0.0,0.0,0.0,0.0,0.2412,0.2069,0.1358,0.1362,0.132,0.0,0.0,0.0812,0.0,0.0,0.0,0.0,0.0,0.0668,0.0446,0.0,-0.0636,-0.1564,-0.3414,-0.3678,-0.3381,-0.3968,-0.4361,-0.4554,-0.4577,-0.5416,-0.633,-0.6421,-0.6531,-0.6318,-0.5259,-0.4298,-0.3457,-0.2815,-0.1902,-0.1332,-0.1808,-0.3101,-0.4222,-0.4576,-0.6069,-0.7831,-0.9587,-0.9888,-1.0593,-1.2339,-1.1977,-1.18,-1.24,-1.21,0.0,-1.1025,0.0,0.0,-0.9728,-0.9126,-0.8999,-0.9388,-0.9043,-0.8955,-0.913,-0.8784,-0.8696,-0.8823,-0.874,-0.874,-0.8911,-0.8911,-0.8911,-0.8911,-0.8872,0.0,0.0,-0.8364,-0.84,-0.8682,-0.8277,-0.8276,-0.8488,-0.8448,-0.868,-0.9008,0.0,0.0,0.0,0.0,0.0,0.0,0.0,-0.4808,-0.5186,-0.6207,-0.5736,-0.509,-0.4504,-0.2963,-0.1702,0.0,0.0,0.0,0.0,0.0,0.0,0.0,0.0,0.0,0.0,0.0,0.0,0.1756,0.1954,0.0,0.0,0.0,0.0,0.0,0.0,-0.007,-0.035,-0.0111,0.0,0.0,0.0,0.0,0.0,0.0,0.0,0.0,0.0,0.096,0.0919,0.0669,0.0591,0.0415,-0.054,-0.147,-0.2265,-0.2316,-0.3041,-0.3822,-0.3879,-0.4912,-0.6009,-0.616,-0.61,-0.5797,-0.5156,-0.406,-0.2884,-0.1871,-0.1029,-0.0572,-0.0876,-0.1421,-0.2258,-0.3588,-0.4422,-0.5769,-0.8321,-0.8856,-0.9783,-1.1817,-1.1467,-1.1241,-1.1757,-1.1542,-1.1278,-1.1025,0.0,0.0,-0.8995,-0.874,-0.8656,-0.8696,-0.8652,-0.8656,-0.8656,-0.8612,-0.8612,-0.8612,-0.8784,-0.8867,-0.8911,-0.8911,-0.8911,-0.8911,-0.8696,0.0,0.0,-0.8526,-0.8537,-0.8994,-0.8225,-0.8035,-0.811,-0.8001,-0.8249,-0.8641,0.0,0.0,0.0,0.0,0.0,0.0,-0.404,-0.4349,-0.4786,-0.5585,-0.5162,-0.477,-0.4696,-0.349,-0.2477,-0.1922,0.0,0.0,0.0,0.0,0.0,0.0,0.0,0.0,0.0,0.0,-0.0763,-0.0685,-0.0796,0.0,0.0,0.0,0.0,0.0,0.0,-0.1933,-0.229,-0.1725,0.0,0.0,0.0,0.0,0.0,0.0,0.0,0.0,0.0,0.0,0.0428,0.0621,0.0721,0.0772,0.0865,0.0743,0.0331,-0.0557,-0.1666,-0.2581,-0.2731,-0.4146,-0.5553,-0.5635,-0.5593,-0.5132,-0.3607,-0.2624,-0.1671,-0.0372,0.0329,0.0615,0.0244,-0.076,-0.1985,-0.318,-0.4617,-0.6146,-0.783,-0.8309,-0.9017,-1.0371,-0.9937,-0.9893,0.0,0.0,-1.0376,0.0,0.0,0.0,-0.874,-0.8656,-0.8652,-0.8784,-0.8652,-0.8652,-0.8784,-0.8652,-0.8652,-0.8784,-0.8867,-0.8911,-0.8911,-0.9087,-0.913,-0.913,-0.9043,0.0,0.0,-0.8957,-0.8957,-0.9423,-0.8649,-0.8395,-0.8487,-0.8363,-0.8535,-0.8804,0.0,0.0,0.0,0.0,0.0,-0.3078,-0.3536,-0.3884,-0.4245,-0.4669,-0.4529,-0.4361,-0.4361,-0.3722,-0.3097,-0.2599,-0.2147,0.0,0.0,0.0,0.0,0.0,0.0,0.0,0.0,0.0,-0.2883,-0.2631,-0.2783,-0.2718,0.0,0.0,-0.3076,-0.3182,0.0,0.0,0.0,0.0,0.0,0.0,0.0,0.0,0.0,0.0,0.0,0.0,0.0,0.0,0.0,0.0,0.0,0.0943,0.1765,0.208,0.2071,0.1297,0.018,-0.0785,-0.0779,-0.2285,-0.3866,-0.3822,-0.3884,-0.35,-0.1863,-0.1047,-0.0361,0.0714,0.1332,0.1521,0.1026,-0.019,-0.1569,-0.2992,-0.4624,-0.6209,-0.7526,-0.8002,-0.84,-0.9008,0.0,-0.896,0.0,-0.9804,-0.9636,0.0,0.0,0.0,-0.8696,-0.8612,-0.8656,-0.8828,-0.8656,-0.8656,-0.8828,-0.874,-0.874,-0.8828,-0.8867,-0.8823,-0.8688,-0.8907,-0.9135,-0.9381,0.0,0.0,0.0,-0.9122,-0.9043,-0.9606,-0.883,-0.859,-0.8728,-0.8558,-0.8699,-0.8925,0.0,0.0,0.0,0.0,0.0,0.0,-0.3284,-0.3524,-0.3612,-0.3612,-0.4015,-0.4124,-0.3658,-0.3648,-0.355,-0.321,-0.2523,0.0,0.0,0.0,0.0,0.0,0.0,0.0,0.0,0.0,-0.4226,-0.3683,-0.3368,-0.3181,-0.3189,-0.361,-0.3956,-0.432,0.0,0.0,0.0,0.0,0.0,0.0,0.0,0.0,0.0,0.0,0.0,0.0,0.0,0.0,0.0,0.0,0.0,0.0,0.0,0.2374,0.236,0.3278,0.2679,0.1733,0.2131,0.0935,-0.0417,-0.0375,-0.0509,-0.0521,-0.0133,0.0415,0.0861,0.1222,0.1669,0.1817,0.1277,0.0523,-0.0693,-0.2854,-0.3978,-0.5302,-0.7248,-0.7925,-0.8101,-0.7863,-0.8452,-0.8744,-0.8377,-0.8912,-0.9212,0.0,0.0,0.0,-0.8911,-0.8696,-0.8612,-0.8612,-0.8612,-0.8612,-0.8612,-0.878,-0.878,-0.8612,-0.8828,-0.8644,-0.8201,-0.8201,-0.8745,0.0,0.0,0.0,0.0,-0.8897,-0.8625,-0.9323,-0.857,-0.8437,-0.8568,-0.8396,-0.8494,-0.8749,0.0,0.0,0.0,0.0,0.0,0.0,0.0,-0.2649,-0.2729,-0.2221,-0.2734,-0.3112,-0.2984,-0.321,-0.3319,-0.3213,-0.269,0.0,0.0,0.0,0.0,0.0,0.0,0.0,0.0,0.0,-0.5129,-0.5209,-0.4964,-0.4738,-0.4495,-0.4855,-0.5084,-0.5216,-0.5521,-0.5715,0.0,0.0,0.0,0.0,0.0,0.0,0.0,0.0,0.0,0.0,0.0,0.0,0.0,0.0,0.0,0.0,0.0,0.0,0.0,0.2756,0.2374,0.17,0.1993,0.0893,-0.0334,-0.0125,-0.0294,-0.0255,0.0436,0.0761,0.101,0.155,0.1556,0.1462,0.1415,-0.0046,-0.1583,-0.2748,-0.4297,-0.575,-0.6861,-0.7261,-0.7349,-0.7126,-0.7709,-0.8229,0.0,0.0,0.0,0.0,0.0,0.0,-0.8696,-0.8656,-0.8612,-0.8612,-0.8612,-0.852,-0.8336,-0.838,-0.8336,-0.812,-0.8336,-0.8332,-0.8201,-0.8372,0.0,0.0,0.0,0.0,0.0,-0.9117,-0.9164,-0.9904,-0.8885,-0.8532,-0.8571,-0.8353,-0.8257,-0.8163,0.0,0.0,0.0,0.0,0.0,0.0,0.0,-0.2308,-0.2274,-0.1565,-0.2167,-0.2683,-0.2698,-0.3103,-0.3358,-0.3409,-0.3122,0.0,0.0,0.0,0.0,0.0,0.0,0.0,0.0,-0.564,-0.6153,-0.6289,-0.6149,-0.58,-0.5234,-0.5545,-0.5716,-0.5716,-0.6118,-0.6381,0.0,0.0,0.0,0.0,0.0,0.0,-0.3869,0.0,0.0,0.0,0.0,0.0,0.0,0.0,0.0,0.0,0.0,0.0,0.0,0.0,0.2105,0.2052,0.2449,0.1702,0.089,0.1144,0.0987,0.0873,0.1418,0.1446,0.1289,0.1166,0.0841,0.0467,0.0327,-0.1287,-0.2761,-0.3249,-0.4569,-0.5794,-0.6422,-0.6858,-0.721,-0.7445,0.0,0.0,0.0,0.0,0.0,0.0,0.0,0.0,-0.8472,-0.8428,-0.8384,-0.83,-0.8384,-0.8336,-0.8069,-0.8157,-0.8069,-0.776,-0.8069,-0.8113,-0.794,-0.8113,0.0,0.0,0.0,0.0,0.0,-0.8829,-0.8791,-0.9446,-0.8578,-0.8152,-0.8032,-0.7691,-0.7495,-0.7254,0.0,0.0,0.0,0.0,0.0,0.0,0.0,-0.2356,-0.2159,-0.1492,-0.2218,-0.2783,-0.27,-0.3272,-0.3694,-0.3824,0.0,0.0,0.0,0.0,0.0,0.0,0.0,0.0,-0.4961,-0.6397,-0.7073,-0.6902,-0.6902,-0.6402,-0.5413,-0.573,-0.5866,-0.5895,-0.6527,-0.6772,0.0,0.0,0.0,0.0,0.0,0.0,0.0,0.0,0.0,0.0,0.0,0.0,0.0,0.0,0.0,0.0,0.0,0.0,0.0,0.0,0.0,0.0,0.0,0.3077,0.287,0.3131,0.2868,0.2535,0.2535,0.2203,0.0,0.0379,-0.0237,-0.0805,-0.1516,-0.2889,-0.395,-0.4084,-0.4784,-0.5481,-0.6024,-0.6675,0.0,0.0,-0.7718,0.0,-0.818,0.0,0.0,0.0,0.0,0.0,-0.8153,-0.8109,-0.8025,-0.7764,-0.7981,-0.7981,-0.772,-0.7981,-0.7889,-0.7489,-0.7889,-0.7848,-0.7462,-0.7415,0.0,0.0,0.0,0.0,0.0,-0.8056,-0.7695,-0.8149,-0.772,-0.7341,-0.6986,-0.6484,-0.6259,-0.6079,0.0,0.0,0.0,0.0,0.0,0.0,0.0,0.0,0.0,0.0,-0.2323,-0.2828,-0.2715,-0.3524,-0.4079,0.0,0.0,0.0,0.0,0.0,0.0,0.0,0.0,0.0,-0.5512,-0.6381,-0.6821,-0.6813,-0.6878,-0.6423,-0.5548,-0.575,-0.5698,-0.5453,-0.5865,-0.6141,0.0,0.0,0.0,0.0,0.0,0.0,0.0,0.0,0.0,0.0,-0.3972,-0.3557,0.0,0.0,0.0,0.0,0.0,0.0,0.0,0.0,0.0525,0.1176,0.1484,0.0,0.2891,0.2935,0.2465,0.1942,0.0,0.1331,0.0928,0.0639,0.0,-0.0556,-0.0865,-0.2577,-0.3783,-0.3466,-0.4527,-0.5544,-0.6035,-0.6564,0.0,-0.7408,-0.7244,-0.7351,-0.788,0.0,0.0,0.0,0.0,-0.7797,-0.7665,-0.7448,-0.7316,-0.7275,-0.7187,-0.7102,-0.7013,-0.7102,-0.7143,-0.7183,-0.6959,-0.6962,-0.7187,-0.683,0.0,0.0,0.0,0.0,-0.8097,-0.7556,-0.7303,-0.7254,-0.6841,-0.6284,-0.5629,-0.5532,-0.5219,-0.4757,0.0,0.0,0.0,0.0,0.0,0.0,0.0,0.0,0.0,0.0,0.0,0.0,0.0,0.0,0.0,0.0,0.0,0.0,0.0,0.0,0.0,0.0,0.0,-0.5579,-0.6188,-0.6649,-0.6851,-0.6747,-0.6837,-0.6353,-0.5332,-0.5455,-0.538,-0.5142,-0.541,-0.5639,0.0,0.0,0.0,0.0,-0.6801,0.0,0.0,0.0,0.0,0.0,-0.4557,-0.3959,0.0,-0.3299,-0.2847,-0.2267,0.0,0.0,0.0,0.0,-0.0265,0.0308,0.087,0.1532,0.199,0.1901,0.1692,0.1394,0.0999,0.0642,0.0231,-0.0231,-0.0884,-0.149,-0.1686,-0.3266,-0.443,-0.3939,-0.4739,-0.5542,0.0,0.0,-0.7112,-0.7261,-0.7584,-0.7764,0.0,0.0,0.0,0.0,0.0,-0.7445,-0.7312,-0.7092,-0.6915,-0.6786,-0.6482,-0.6393,-0.6612,-0.6612,-0.6612,-0.6656,-0.6476,-0.6517,-0.6786,-0.6517,-0.6448,0.0,0.0,0.0,-0.6697,-0.6743,-0.648,-0.5903,-0.5711,-0.5275,-0.4767,-0.4381,-0.4046,-0.3733,0.0,0.0,0.0,0.0,0.0,0.0,0.0,0.0,0.0,0.0,0.0,0.0,0.0,0.0,0.0,0.0,0.0,0.0,0.0,0.0,0.0,0.0,0.0,-0.6151,-0.6595,-0.6774,-0.6759,-0.6575,-0.6713,-0.6206,-0.5105,-0.5224,-0.5143,-0.4916,-0.5012,-0.5125,0.0,0.0,0.0,0.0,-0.6788,0.0,0.0,0.0,0.0,0.0,0.0,0.0,0.0,-0.329,-0.2793,-0.2206,-0.2596,0.0,0.0,0.0,0.0,0.0,0.0673,0.0886,0.0787,0.0568,0.0618,0.0583,0.0092,-0.0184,-0.0509,-0.1269,-0.1939,-0.2496,-0.2862,-0.4269,-0.5199,-0.4797,-0.5184,0.0,-0.5971,-0.6763,-0.726,-0.7207,-0.794,0.0,0.0,0.0,0.0,0.0,0.0,-0.7136,-0.6918,-0.6738,-0.6517,-0.6299,-0.5908,-0.5863,-0.6254,-0.6299,-0.6257,-0.6124,-0.6257,-0.6343,-0.6384,-0.6343,-0.6294,0.0,0.0,0.0,-0.5521,-0.5915,-0.5434,-0.446,-0.448,-0.4248,-0.3866,-0.3178,-0.2919,-0.283,0.0,0.0,0.0,0.0,0.0,0.0,0.0,0.0,0.0,0.0,0.0,0.0,0.0,0.0,0.0,0.0,0.0,0.0,0.0,0.0,0.0,-0.6014,-0.5737,-0.5645,-0.5766,-0.5758,-0.5798,-0.5949,-0.6197,-0.6032,-0.5513,-0.5645,-0.5435,-0.4894,-0.4564,-0.4585,-0.4815,-0.5043,-0.5368,-0.5807,-0.6467,0.0,0.0,0.0,0.0,0.0,0.0,0.0,0.0,-0.313,-0.2528,-0.1859,-0.2325,0.0,0.0,0.0,0.0,0.0,-0.0045,0.0179,0.0045,-0.0357,-0.0705,-0.1009,-0.1388,-0.1576,-0.1579,-0.1222,-0.1239,-0.1707,-0.2933,-0.4218,-0.5109,-0.5238,0.0,-0.5944,0.0,0.0,-0.6848,-0.6071,0.0,0.0,0.0,0.0,0.0,0.0,0.0,-0.5941,-0.5897,-0.5905,-0.5863,-0.5822,-0.5733,-0.5641,-0.5549,-0.573,-0.5994,-0.6343,-0.5994,-0.5994,-0.6384,-0.5994,-0.5848,0.0,0.0,-0.5764,-0.4928,-0.5303,-0.4593,-0.3261,-0.3375,-0.2984,-0.2356,-0.2202,-0.2005,-0.1809,0.0,0.0,0.0,0.0,0.0,0.0,0.0,0.0,0.0,0.0,0.0,0.0,0.0,0.0,0.0,0.0,0.0,0.0,0.0,0.0,-0.6701,-0.6322,-0.6285,-0.6231,-0.6132,-0.5959,-0.585,-0.58,-0.6073,-0.5832,-0.5109,-0.4962,-0.4603,-0.4075,-0.4037,-0.4154,-0.4428,-0.4929,-0.5439,-0.5954,0.0,0.0,0.0,0.0,0.0,0.0,0.0,0.0,0.0,0.0,-0.2335,-0.16,-0.2089,0.0,0.0,0.0,0.0,0.0,-0.0583,-0.0359,-0.0539,-0.1316,-0.1523,-0.1773,-0.2581,-0.3139,-0.3329,-0.2904,-0.3073,-0.3353,-0.3741,-0.4499,-0.5253,-0.5822,0.0,-0.6917,-0.6908,-0.7071,-0.692,0.0,0.0,0.0,0.0,0.0,0.0,0.0,0.0,0.0,-0.5319,-0.5324,-0.5327,-0.5327,-0.5327,-0.5413,-0.5547,-0.5413,-0.5547,-0.603,-0.5816,-0.5949,-0.6384,-0.6083,-0.5975,-0.6122,0.0,-0.5235,-0.442,-0.4275,-0.3587,-0.2548,-0.2456,-0.2217,-0.1915,-0.1817,-0.1719,-0.162,0.0,0.0,0.0,0.0,0.0,0.0,0.0,0.0,0.0,0.0,0.0,0.0,0.0,0.0,0.0,0.0,0.0,0.0,0.0,0.0,-0.6783,-0.6327,-0.6566,-0.6642,-0.6561,-0.6263,-0.6046,-0.5941,-0.6096,-0.5761,-0.4916,-0.4522,-0.4113,-0.3704,-0.397,-0.4177,-0.4392,-0.5038,-0.5574,-0.5992,0.0,0.0,0.0,0.0,0.0,0.0,0.0,0.0,0.0,0.0,0.0,0.0,0.0,0.0,0.0,-0.2064,-0.193,-0.1796,-0.1218,-0.1124,-0.1352,-0.2033,-0.2044,-0.2145,-0.335,-0.4116,-0.4515,-0.433,-0.4601,-0.4824,-0.4639,-0.4945,-0.5556,-0.658,-0.7044,-0.7314,-0.7526,-0.7396,-0.697,0.0,0.0,0.0,0.0,0.0,0.0,0.0,0.0,0.0,-0.4921,-0.4966,-0.5053,-0.5144,-0.5144,-0.5364,-0.5811,-0.55,-0.5497,-0.5852,-0.5772,-0.5947,-0.6384,-0.6213,-0.6138,-0.6221,-0.553,-0.477,-0.3961,-0.3388,-0.27,-0.2005,-0.1817,-0.1757,-0.1807,-0.1675,-0.1578,-0.1622,0.0,0.0,0.0,0.0,0.0,0.0,0.0,0.0,0.0,0.0,0.0,0.0,0.0,0.0,0.0,0.0,0.0,0.0,0.0,0.0,-0.6082,-0.6028,-0.6055,-0.6164,-0.6408,-0.6023,-0.5991,-0.6354,-0.6187,-0.594,-0.5629,-0.5225,-0.4872,-0.4627,-0.4743,-0.4908,-0.5035,-0.523,-0.5326,-0.5383,-0.5505,0.0,0.0,0.0,0.0,0.0,0.0,0.0,0.0,0.0,0.0,0.0,0.0,0.0,-0.2513,-0.2469,-0.2334,-0.2162,-0.2202,-0.2453,-0.2663,-0.2304,-0.2093,-0.2289,-0.3345,-0.3898,-0.4154,-0.4287,-0.4237,-0.4449,-0.5439,-0.5644,-0.613,-0.7544,-0.6915,-0.6293,-0.6476,0.0,0.0,0.0,0.0,0.0,0.0,0.0,0.0,0.0,0.0,0.0,-0.4703,-0.4877,-0.5186,-0.563,-0.563,-0.5766,-0.6083,-0.621,-0.6296,-0.634,-0.5899,-0.5941,-0.6384,-0.6213,-0.6088,-0.605,-0.5137,-0.4338,-0.3598,-0.2946,-0.2238,-0.157,-0.1523,-0.1525,-0.1536,-0.1593,-0.1596,-0.1576,0.0,0.0,0.0,0.0,0.0,0.0,0.0,0.0,0.0,0.0,0.0,0.0,0.0,0.0,0.0,0.0,0.0,0.0,0.0,-0.5736,-0.5923,-0.6,-0.6077,-0.6213,-0.6381,-0.6154,-0.6268,-0.6712,-0.6331,-0.6012,-0.5765,-0.5392,-0.5147,-0.4992,-0.4804,-0.5009,-0.547,-0.5222,-0.5318,-0.5634,-0.5179,-0.4815,0.0,0.0,0.0,0.0,0.0,0.0,0.0,0.0,-0.2964,-0.2003,-0.2252,-0.2408,-0.2513,-0.2513,-0.2424,-0.2344,-0.2254,-0.2481,-0.2674,-0.2401,-0.2714,-0.3182,-0.3738,-0.473,-0.5673,-0.5857,-0.5997,-0.6065,-0.6017,-0.6445,-0.6833,-0.6962,-0.683,-0.6789,-0.7058,0.0,0.0,0.0,0.0,0.0,0.0,0.0,0.0,0.0,0.0,0.0,0.0,-0.5233,-0.5497,-0.5675,-0.5719,-0.5899,-0.6299,-0.5766,-0.5985,-0.683,-0.6343,-0.6207,-0.6384,-0.6213,-0.5765,-0.5196,-0.4377,-0.36,-0.2918,-0.2214,-0.1765,-0.1556,-0.1575,-0.1583,-0.1585,-0.1609,-0.1609,-0.1601,0.0,0.0,0.0,0.0,0.0,0.0,0.0,0.0,0.0,0.0,0.0,0.0,0.0,0.0,0.0,0.0,0.0,0.0,-0.5358,-0.5578,-0.5759,-0.5778,-0.5968,-0.6159,-0.6322,-0.6295,-0.6436,-0.6739,-0.6431,-0.6137,-0.5843,-0.5827,-0.5624,-0.5311,-0.5044,-0.5191,-0.5585,-0.5029,-0.5043,-0.5356,-0.4698,-0.4348,0.0,0.0,0.0,0.0,0.0,0.0,0.0,0.0,-0.3239,-0.2245,-0.2368,-0.2513,-0.2652,-0.2758,-0.2796,-0.2846,-0.2851,-0.3173,-0.3402,-0.2958,-0.3582,-0.4212,-0.4009,-0.5181,-0.6433,-0.6615,-0.695,-0.6998,-0.6447,-0.6793,0.0,0.0,-0.6697,-0.6833,0.0,0.0,0.0,0.0,0.0,0.0,0.0,0.0,0.0,0.0,0.0,0.0,0.0,-0.5542,-0.5764,-0.5897,-0.5855,-0.6077,-0.6609,-0.5766,-0.5855,-0.6874,-0.6389,-0.6213,-0.6384,-0.6035,-0.5455,-0.4658,-0.3839,-0.3147,-0.2547,-0.1794,-0.153,-0.156,-0.1591,-0.1603,-0.1604,-0.1613,-0.1617,-0.1617,0.0,0.0,0.0,0.0,0.0,0.0,0.0,0.0,0.0,0.0,0.0,0.0,0.0,0.0,0.0,0.0,0.0,0.0,-0.5431,-0.5529,-0.5513,-0.5312,-0.5626,-0.5927,-0.6186,-0.6327,-0.6408,-0.6413,-0.6482,-0.6319,-0.5953,-0.6586,-0.645,-0.5625,-0.5665,-0.5593,-0.5364,-0.4686,-0.4384,-0.4345,-0.3958,-0.3645,-0.337,0.0,0.0,0.0,0.0,0.0,0.0,0.0,-0.3496,-0.2558,-0.2829,-0.292,-0.2976,-0.331,-0.3505,-0.372,-0.4148,-0.4899,-0.521,-0.4114,-0.467,-0.5201,-0.4085,-0.4993,-0.6106,-0.6187,-0.6578,-0.681,-0.6633,-0.6478,0.0,-0.7007,-0.6523,0.0,0.0,0.0,0.0,0.0,0.0,0.0,0.0,0.0,0.0,0.0,0.0,0.0,0.0,-0.5719,-0.5941,-0.6384,-0.6213,-0.6438,-0.7095,-0.6435,-0.6213,-0.6384,-0.5825,-0.5874,-0.6343,-0.568,-0.5144,-0.4605,-0.3628,-0.2949,-0.2542,-0.1804,-0.1499,-0.1529,-0.1559,-0.162,-0.1575,-0.1605,-0.1616,-0.1617,0.0,0.0,0.0,0.0,0.0,0.0,0.0,0.0,0.0,0.0,0.0,0.0,0.0,0.0,0.0,0.0,0.0,0.0,-0.6126,-0.5927,-0.5814,-0.5864,-0.5873,-0.5901,-0.5997,-0.5972,-0.6376,-0.716,-0.7436,-0.7587,-0.7647,-0.7537,-0.7171,-0.6625,-0.5793,-0.5532,-0.5593,-0.4268,-0.3876,-0.4114,-0.3434,-0.2986,-0.275,0.0,0.0,0.0,0.0,0.0,0.0,0.0,0.0,0.0,-0.269,-0.2914,-0.2926,-0.3079,-0.3325,-0.3622,-0.384,-0.4424,-0.4965,-0.4806,-0.5287,-0.5516,-0.4476,-0.4948,-0.5671,-0.5939,-0.6014,-0.6116,-0.6302,-0.6259,0.0,-0.6792,0.0,0.0,0.0,0.0,0.0,0.0,0.0,0.0,0.0,0.0,0.0,0.0,0.0,0.0,0.0,-0.6121,-0.6251,0.0,-0.6523,-0.6526,-0.639,-0.6343,-0.6166,-0.5897,-0.5068,-0.4761,-0.4919,-0.4671,-0.3962,-0.2932,-0.2613,-0.2226,-0.1795,-0.1607,-0.1518,-0.1479,-0.1536,-0.1456,-0.1327,-0.1532,-0.1348,-0.1061,0.0,0.0,0.0,0.0,0.0,0.0,0.0,0.0,0.0,0.0,-0.6612,0.0,0.0,0.0,0.0,0.0,0.0,0.0,0.0,-0.6228,-0.6065,-0.594,-0.597,-0.6037,-0.6143,-0.6137,-0.6626,-0.7581,-0.7709,-0.7772,-0.7766,-0.7845,-0.7516,-0.6794,-0.5789,-0.5269,-0.5094,-0.3696,-0.3262,-0.3411,-0.2867,-0.2425,-0.2164,0.0,0.0,0.0,0.0,0.0,0.0,0.0,0.0,0.0,-0.2556,-0.2825,-0.2926,-0.3125,-0.3597,-0.4023,-0.4049,-0.45,-0.4952,-0.5102,-0.5352,-0.5448,-0.4998,-0.488,-0.5014,-0.5665,-0.5809,-0.5936,-0.6376,-0.6403,0.0,-0.6751,0.0,0.0,0.0,0.0,0.0,0.0,0.0,0.0,0.0,0.0,0.0,0.0,0.0,0.0,0.0,-0.639,-0.6476,0.0,-0.6438,-0.6485,-0.6393,-0.6124,-0.5811,-0.5408,-0.4528,-0.3866,-0.3449,-0.3624,-0.3121,-0.2196,-0.1891,-0.1592,-0.1334,-0.1229,-0.1183,-0.1239,-0.1229,-0.1145,-0.1069,-0.1322,-0.1187,-0.085,0.0,0.0,0.0,0.0,0.0,0.0,0.0,0.0,0.0,0.0,-0.6857,-0.6967,0.0,0.0,0.0,0.0,0.0,0.0,0.0,0.0,-0.6237,-0.5837,-0.6034,-0.6271,-0.6505,-0.6657,-0.7036,-0.7625,-0.7488,-0.7295,-0.702,-0.7838,-0.7587,-0.6428,-0.5709,-0.4953,-0.4112,-0.3099,-0.2608,-0.2472,-0.224,-0.1888,-0.1615,-0.2257,0.0,0.0,0.0,0.0,0.0,0.0,0.0,0.0,-0.2334,-0.2649,-0.2931,-0.3264,-0.3913,-0.4512,-0.451,-0.4778,-0.5027,-0.5064,-0.5023,-0.5048,-0.5389,-0.4654,-0.4262,-0.5452,-0.5719,-0.5989,-0.6637,-0.6748,-0.6704,0.0,0.0,0.0,0.0,0.0,0.0,0.0,0.0,0.0,0.0,0.0,0.0,0.0,0.0,0.0,0.0,-0.6393,0.0,-0.6038,-0.6083,-0.6302,-0.6688,-0.5855,-0.5275,0.0,-0.4083,-0.3169,-0.2199,-0.2639,-0.2551,-0.2067,-0.1422,-0.1121,-0.1089,-0.0792,-0.0748,-0.0804,-0.0836,-0.0842,-0.086,-0.1168,-0.108,-0.0888,0.0,0.0,0.0,0.0,0.0,0.0,0.0,0.0,0.0,0.0,0.0,0.0,0.0,0.0,0.0,0.0,0.0,0.0,0.0,0.0,-0.6625,-0.6625,-0.6697,-0.6684,-0.6586,-0.6873,-0.6998,-0.6993,-0.7478,-0.7982,-0.851,-0.8297,-0.7729,-0.6831,-0.5857,-0.4882,-0.3891,-0.2872,-0.2377,-0.2239,-0.1883,-0.1438,-0.1103,-0.1452,-0.1789,0.0,0.0,0.0,0.0,0.0,0.0,0.0,-0.2289,-0.2558,-0.2659,-0.2987,-0.3187,-0.3376,-0.3784,-0.4216,-0.4645,-0.493,-0.442,-0.3809,-0.3735,-0.3559,-0.3779,-0.5171,-0.5211,-0.5265,-0.6305,-0.6166,-0.6077,0.0,0.0,0.0,0.0,0.0,0.0,0.0,0.0,0.0,0.0,0.0,0.0,0.0,0.0,0.0,-0.5233,-0.5191,0.0,-0.5549,-0.5905,-0.5992,-0.5762,-0.5676,-0.5188,0.0,-0.3493,-0.2767,-0.2198,-0.2205,-0.1987,-0.1572,-0.1238,-0.1103,-0.1092,-0.0829,-0.0689,-0.0772,-0.1131,-0.1201,-0.1145,-0.1582,-0.1469,-0.1105,0.0,0.0,0.0,0.0,0.0,0.0,0.0,0.0,0.0,0.0,0.0,0.0,0.0,0.0,0.0,0.0,0.0,0.0,0.0,0.0,-0.6741,-0.6811,-0.6721,-0.6683,-0.6683,-0.6855,-0.6943,-0.6905,-0.7175,-0.7642,-0.8213,-0.7972,-0.7409,-0.6534,-0.5663,-0.4691,-0.3719,-0.2917,-0.2375,-0.1971,-0.1704,-0.1271,-0.0827,-0.129,-0.1544,-0.167,-0.2456,0.0,0.0,0.0,0.0,0.0,0.0,0.0,-0.1863,-0.2037,-0.2305,-0.2603,-0.2994,-0.3459,-0.395,-0.4533,-0.4015,-0.3403,-0.3502,-0.352,-0.3761,-0.4529,-0.4879,-0.5238,-0.5941,-0.5988,0.0,0.0,0.0,0.0,0.0,0.0,0.0,0.0,0.0,0.0,0.0,0.0,0.0,0.0,0.0,-0.5235,-0.5319,-0.5455,-0.5502,-0.5547,-0.5905,-0.6007,-0.5766,-0.5515,-0.4982,-0.4184,-0.3431,-0.2735,-0.2198,-0.1862,-0.1741,-0.1778,-0.1303,-0.1166,-0.1249,-0.0888,-0.0742,-0.0727,-0.1125,-0.1143,-0.1082,-0.1521,-0.1507,-0.1198,0.0,0.0,0.0,0.0,0.0,0.0,0.0,0.0,0.0,0.0,0.0,0.0,0.0,0.0,0.0,0.0,0.0,0.0,0.0,0.0,0.0,-0.6773,-0.6632,-0.6641,-0.6863,-0.6969,-0.7096,-0.7163,-0.7071,-0.7154,-0.7426,-0.737,-0.6915,-0.615,-0.5423,-0.4625,-0.3701,-0.3101,-0.2477,-0.1935,-0.1742,-0.133,-0.0826,-0.1484,-0.1538,-0.1388,-0.2339,-0.186,-0.0871,-0.1425,0.0,0.0,0.0,0.0,-0.0915,-0.0976,-0.134,-0.1791,-0.2015,-0.2464,-0.3048,-0.3823,-0.3638,-0.3317,-0.3537,-0.3715,-0.3805,-0.376,-0.4565,-0.5369,-0.563,-0.5899,0.0,0.0,0.0,0.0,0.0,0.0,0.0,0.0,0.0,0.0,0.0,0.0,0.0,0.0,0.0,-0.5369,-0.5586,-0.5899,-0.5988,-0.5766,-0.6014,-0.6097,-0.6007,-0.5332,-0.4705,-0.4144,-0.34,-0.2735,-0.2199,-0.1705,-0.1725,-0.2085,-0.1465,-0.1285,-0.1376,-0.0949,-0.075,-0.0735,-0.1083,-0.1138,-0.1072,-0.1516,-0.1593,-0.1476,0.0,0.0,0.0,0.0,0.0,0.0,0.0,0.0,0.0,0.0,-0.8242,0.0,0.0,0.0,0.0,0.0,0.0,0.0,-0.7171,0.0,0.0,-0.7134,-0.7111,-0.7098,-0.713,-0.7713,-0.7972,-0.7856,-0.7849,-0.7713,-0.7478,-0.6972,-0.6631,-0.6393,-0.5579,-0.4897,-0.4303,-0.3306,-0.2736,-0.2459,-0.2163,-0.181,-0.1493,-0.1775,-0.1878,-0.1875,-0.1882,-0.1581,-0.1176,-0.0935,-0.0486,0.0,0.0,0.0,-0.0174,-0.0436,-0.0398,-0.0269,-0.0314,-0.0985,-0.1843,-0.261,-0.3179,-0.3363,-0.2601,-0.305,-0.354,0.0,-0.3985,-0.4971,-0.5586,0.0,0.0,0.0,0.0,0.0,0.0,0.0,0.0,0.0,0.0,0.0,0.0,0.0,0.0,0.0,-0.4659,-0.4882,-0.5099,-0.4968,-0.5282,-0.6038,-0.6192,-0.6056,-0.5575,-0.5145,-0.4424,-0.3531,-0.2712,-0.2288,-0.2199,-0.1885,-0.177,-0.1853,-0.156,-0.1322,-0.1115,-0.0836,-0.0688,-0.0765,-0.1437,-0.1746,-0.1901,-0.2285,-0.246,-0.2453,0.0,0.0,0.0,0.0,0.0,0.0,0.0,0.0,0.0,0.0,0.0,-0.8598,0.0,0.0,0.0,-0.7428,-0.74,-0.7204,-0.6675,-0.6642,-0.6576,-0.6482,-0.6482,-0.6548,-0.6745,-0.7026,-0.7198,-0.7209,-0.7212,-0.7125,-0.6987,-0.6728,-0.6428,-0.6092,-0.5507,-0.499,-0.4452,-0.3889,-0.3558,-0.3444,-0.3277,-0.2985,-0.2623,-0.2702,-0.2561,-0.2238,-0.195,-0.1523,-0.0986,-0.0488,0.0177,0.0827,0.0969,0.0,0.0,0.0,0.0801,0.0673,0.0134,-0.0179,-0.0628,-0.1675,-0.1849,-0.1792,-0.1749,-0.2378,-0.2917,-0.2736,-0.3408,-0.4257,0.0,0.0,0.0,0.0,0.0,0.0,0.0,0.0,0.0,0.0,0.0,0.0,0.0,0.0,0.0,0.0,-0.4792,-0.4971,-0.5591,-0.5549,-0.5683,-0.6083,-0.6521,-0.6264,-0.5302,-0.5163,-0.4455,-0.3098,-0.2771,-0.2604,-0.2606,-0.2497,-0.2371,-0.2186,-0.1999,-0.1993,-0.2092,-0.1978,-0.1827,-0.1749,-0.2241,-0.23,-0.2191,-0.2495,-0.2551,-0.2487,0.0,0.0,0.0,0.0,0.0,0.0,0.0,0.0,0.0,0.0,0.0,0.0,0.0,0.0,0.0,0.0,-0.7657,-0.7195,-0.6441,-0.6178,-0.6013,-0.5918,-0.5855,-0.5954,-0.628,-0.6369,-0.6484,-0.661,-0.6618,-0.6625,-0.6632,-0.6577,-0.6322,-0.5866,-0.5535,-0.5195,-0.4798,-0.4394,-0.4274,-0.4375,-0.4105,-0.391,-0.3715,-0.3408,-0.3123,-0.2836,-0.2164,-0.1605,-0.1015,-0.0265,0.053,0.1306,0.1638,0.1804,0.0,0.0,0.0,0.1659,0.0851,0.0851,0.0761,-0.0403,-0.0403,-0.0269,-0.0896,-0.166,-0.2199,0.0,-0.2883,-0.3569,0.0,0.0,0.0,0.0,0.0,0.0,0.0,0.0,0.0,0.0,0.0,0.0,0.0,0.0,0.0,0.0,-0.5018,-0.5238,-0.6038,-0.6041,-0.6008,-0.6039,-0.6478,-0.6129,-0.4838,-0.4761,-0.4112,-0.292,-0.2829,-0.2784,-0.274,-0.2826,-0.2731,-0.2517,-0.2431,-0.2567,-0.2802,-0.2786,-0.2638,-0.2469,-0.269,-0.2568,-0.2316,-0.2515,-0.2484,-0.2333,0.0,0.0,0.0,0.0,0.0,0.0,0.0,0.0,0.0,0.0,0.0,0.0,-0.946,-0.9632,-0.9446,-0.8802,-0.856,-0.7999,-0.6924,-0.6075,-0.5712,-0.5906,-0.5712,0.0,-0.5906,-0.6225,-0.6505,-0.671,-0.6684,-0.6678,-0.6687,-0.6489,-0.6276,-0.6076,-0.5806,-0.5696,-0.5669,-0.4696,-0.4617,-0.5068,-0.4186,-0.4148,-0.4516,-0.3419,-0.3422,-0.3831,-0.2286,-0.1754,-0.1651,-0.0398,0.0309,0.0869,0.1479,0.187,0.2173,0.0,0.0,0.0,0.2509,0.255,0.2547,0.1521,0.0938,0.0536,0.0045,0.0,-0.1436,-0.1436,-0.2276,-0.3046,0.0,0.0,0.0,0.0,0.0,0.0,0.0,0.0,0.0,0.0,0.0,0.0,0.0,0.0,0.0,0.0,-0.5104,-0.5594,-0.6083,-0.5863,-0.5737,-0.5796,-0.5774,-0.5268,-0.4182,-0.3452,-0.3066,-0.292,-0.2649,-0.2424,-0.2243,-0.2426,-0.2516,-0.2517,-0.2842,-0.2818,-0.2626,-0.2536,-0.2381,-0.2243,-0.2424,-0.2412,-0.2225,-0.2502,-0.249,-0.2249,0.0,0.0,0.0,0.0,0.0,0.0,0.0,0.0,0.0,0.0,0.0,0.0,0.0,-0.9748,-0.962,-0.9166,-0.842,-0.7577,-0.6642,-0.6153,-0.5761,-0.5385,-0.5413,-0.5386,-0.5385,-0.5367,-0.5413,-0.5477,-0.5561,-0.5624,-0.5674,-0.591,-0.5974,-0.5916,-0.5766,-0.5676,-0.5568,-0.5147,-0.533,-0.5885,-0.5669,-0.5481,-0.5277,-0.4848,-0.4449,-0.3977,-0.2557,-0.2047,-0.1894,-0.0642,0.0305,0.1017,0.1222,0.1928,0.2704,0.319,0.3253,0.3226,0.3358,0.3491,0.3444,0.3087,0.2772,0.2413,0.1746,0.0634,-0.032,-0.0685,-0.1534,-0.2406,0.0,0.0,0.0,0.0,0.0,0.0,0.0,0.0,0.0,0.0,0.0,0.0,0.0,0.0,0.0,0.0,0.0,-0.5324,-0.5186,-0.5933,-0.6042,-0.5349,-0.6186,-0.5915,-0.4423,-0.3356,-0.2736,-0.2649,-0.2424,-0.2423,-0.2645,-0.2557,-0.2738,-0.3186,-0.3163,-0.3172,-0.3261,-0.3238,-0.305,-0.2869,-0.2915,-0.2726,-0.245,-0.251,-0.2338,-0.2086,0.0,0.0,0.0,0.0,0.0,0.0,0.0,0.0,0.0,-1.0301,0.0,0.0,0.0,0.0,-1.0155,-0.9538,-0.8474,-0.7512,-0.6609,-0.6228,-0.5827,-0.5396,-0.5376,-0.5345,-0.5259,-0.5042,-0.4912,-0.4912,-0.4999,-0.5006,-0.4935,-0.5426,-0.5644,-0.5651,-0.5782,-0.5835,-0.5859,-0.5856,-0.6159,-0.6682,-0.6298,-0.6069,-0.587,-0.5187,-0.4632,-0.4069,0.0,0.0,-0.1955,-0.0729,0.0219,0.0895,0.1146,0.1994,0.3002,0.3452,0.3585,0.3673,0.4162,0.4385,0.4474,0.4429,0.4251,0.3846,0.3042,0.2035,0.105,0.0365,-0.0561,-0.1477,0.0,0.0,0.0,0.0,0.0,0.0,0.0,0.0,0.0,0.0,0.0,0.0,0.0,0.0,0.0,0.0,0.0,0.0,-0.4964,-0.5607,-0.5522,-0.4426,-0.5294,-0.5171,-0.3854,-0.3094,-0.2615,-0.2379,-0.2154,-0.2288,-0.2645,-0.2557,-0.2826,-0.3361,-0.3227,-0.3317,-0.3452,-0.3452,-0.3272,-0.2959,-0.2959,-0.2714,-0.2335,-0.2273,-0.2104,-0.1798,0.0,0.0,0.0,0.0,0.0,0.0,0.0,0.0,-1.1059,-1.0839,0.0,0.0,0.0,0.0,0.0,-0.9901,-0.8828,-0.7854,-0.699,-0.6284,-0.5933,-0.592,-0.5706,-0.5624,-0.5603,-0.5287,-0.5106,-0.5106,-0.5106,-0.491,-0.4599,-0.5133,-0.5369,-0.5319,-0.5881,-0.6297,-0.6638,-0.6836,-0.7117,-0.7352,-0.5907,-0.5747,-0.6165,-0.4322,-0.3925,-0.4097,-0.2691,-0.2122,-0.1831,-0.0756,-0.0045,0.0538,0.1211,0.2107,0.3001,0.3494,0.3941,0.4387,0.0,0.0,0.0,0.545,0.5184,0.4781,0.3844,0.0,0.2638,0.1657,0.0648,-0.0333,0.0,0.0,0.0,0.0,0.0,0.0,0.0,0.0,0.0,0.0,0.0,0.0,0.0,0.0,0.0,0.0,-0.5287,-0.5599,-0.5332,-0.489,-0.4143,-0.3089,-0.3149,-0.2877,-0.2293,-0.2574,-0.2523,-0.2201,-0.193,-0.1974,-0.2199,-0.2424,-0.2647,-0.2913,-0.3092,-0.3183,-0.3183,-0.3183,-0.2915,-0.2469,-0.2471,-0.2201,-0.18,-0.1793,-0.1642,-0.1484,0.0,0.0,0.0,0.0,0.0,0.0,-1.149,-1.1584,-1.156,0.0,0.0,0.0,-1.1946,-1.1976,-1.1368,-0.9938,-0.916,-0.8409,-0.7544,-0.6931,-0.6457,-0.6127,-0.6014,-0.5836,-0.5607,-0.5289,-0.5029,-0.4871,-0.4871,-0.4671,-0.4327,-0.4875,-0.5164,-0.5265,-0.6237,-0.6884,-0.7223,-0.6987,-0.6902,-0.6902,-0.6474,-0.5973,-0.5402,-0.482,-0.4242,0.0,0.0,-0.2112,-0.1649,0.0,0.0,0.0869,0.1894,0.2511,0.3037,0.3826,0.4158,0.4463,0.5185,0.0,0.0,0.0,0.0,0.0,0.0,0.0,0.3475,0.2419,0.1385,0.0486,0.0,0.0,0.0,0.0,0.0,0.0,0.0,0.0,0.0,0.0,0.0,0.0,0.0,0.0,0.0,0.0,-0.501,-0.4822,-0.3937,-0.3599,-0.3559,-0.3695,-0.3016,-0.2494,-0.2288,-0.2541,-0.2399,-0.1927,-0.217,-0.2334,-0.2424,-0.2469,-0.2736,-0.3092,-0.2826,-0.2691,-0.2691,-0.2691,-0.2512,-0.2293,-0.2282,-0.2065,-0.1794,-0.1643,-0.1437,-0.1267,0.0,0.0,0.0,0.0,0.0,-1.1716,-1.1903,-1.1833,-1.174,0.0,0.0,0.0,-1.2143,-1.2022,-1.1447,-1.0321,-0.9678,-0.9032,-0.8296,-0.775,-0.7327,-0.6955,-0.6712,-0.6467,-0.6192,-0.57,-0.5322,-0.5126,-0.499,-0.4763,-0.4405,-0.4771,-0.5078,-0.5386,-0.6503,-0.73,-0.7839,-0.7952,-0.7698,-0.7203,-0.6676,-0.6075,-0.5432,-0.5032,-0.4368,0.0,0.0,0.0,-0.1626,-0.0782,0.0044,0.0,0.0,0.2271,0.2585,0.3371,0.3938,0.4457,0.5058,0.5249,0.5311,0.565,0.0,0.0,0.5222,0.4961,0.4448,0.0,0.2812,0.1958,0.1099,0.0,0.0,0.0,0.0,0.0,0.0,0.0,0.0,0.0,0.0,0.0,0.0,-0.5543,-0.533,-0.4755,-0.523,-0.4985,-0.3645,-0.3232,-0.3017,-0.3021,-0.2622,-0.2249,-0.2012,-0.2135,-0.2046,-0.1804,-0.1966,-0.2217,-0.2513,-0.2513,-0.2648,-0.2914,-0.2603,-0.2379,-0.2201,-0.2219,-0.2137,-0.2048,-0.2027,-0.1814,-0.1503,-0.139,-0.1215,-0.0983,0.0,0.0,-1.1365,-1.1622,-1.1872,-1.2073,-1.2173,-1.1956,-1.1801,0.0,-1.1983,-1.2065,-1.1952,-1.1733,-1.1377,-1.0839,-1.0193,-0.9582,-0.9049,-0.8616,-0.826,-0.7962,-0.7557,-0.725,-0.7019,-0.6298,-0.5804,-0.5633,-0.5252,-0.495,-0.4665,-0.4792,-0.511,-0.5613,-0.6643,-0.76,-0.8433,-0.914,-0.8963,-0.808,-0.6871,-0.6272,0.0,0.0,-0.4429,-0.3801,-0.3204,-0.2465,-0.1615,-0.0584,0.018,0.0,0.0,0.0,0.0,0.0,0.3504,0.4364,0.4824,0.5233,0.5588,0.5989,0.5765,0.0,0.5604,0.5563,0.5347,0.0,0.4332,0.3618,0.2755,0.0,0.0,0.0,0.0,0.0,0.0,0.0,0.0,0.0,0.0,0.0,-0.4954,-0.5494,-0.5582,-0.4844,-0.5568,-0.5443,-0.3991,-0.3257,-0.2481,-0.1615,-0.207,-0.2103,-0.1626,-0.1671,-0.1689,-0.1724,-0.158,-0.1793,-0.2396,-0.239,-0.2432,-0.2477,-0.2432,-0.2204,-0.1798,-0.1794,-0.1762,-0.176,-0.172,-0.146,-0.1103,-0.1124,-0.0936,-0.0741,0.0,-1.1021,-1.1459,-1.1903,-1.184,-1.193,-1.2552,-1.217,-1.2028,-1.2666,-1.2828,-1.253,-1.1548,-1.1632,-1.1461,-1.0708,-1.0225,-0.9678,-0.9049,-0.8953,-0.8534,-0.7633,-0.7557,-0.7419,-0.7153,-0.6328,-0.585,-0.5747,-0.5253,-0.4816,-0.4395,-0.4838,-0.5387,-0.6017,-0.6836,-0.78,-0.8858,-0.897,-0.9129,-0.9179,-0.8104,-0.7116,-0.6267,-0.5717,-0.509,-0.4412,-0.3715,-0.2599,-0.1259,0.0091,0.0773,0.1072,0.0,0.0,0.0,0.3125,0.0,0.0,0.5077,0.5389,0.0,0.0,0.0,0.0,0.5346,0.5406,0.5355,0.0,0.4274,0.3881,0.3769,0.2698,0.0,0.0,0.0,0.0,0.0,0.0,0.0,0.0,0.0,0.0,-0.5639,-0.5677,-0.563,-0.5508,-0.4522,-0.3777,-0.3475,-0.2465,-0.1812,-0.1616,-0.1718,-0.1715,-0.1608,-0.1978,-0.1857,-0.131,-0.1814,-0.1939,-0.1696,-0.1855,-0.2071,-0.2255,-0.2025,-0.1869,-0.1799,-0.1635,-0.155,-0.1532,-0.1391,-0.1265,-0.1125,-0.0698,-0.0502,-0.0452,-1.109,-1.1341,-1.156,-1.1903,-1.1809,-1.1921,-1.254,-1.2321,-1.2228,-1.2695,-1.2803,-1.261,-1.2014,-1.1945,-1.1686,-1.1024,-1.0386,-0.9825,-0.928,-0.8902,-0.8448,-0.7829,-0.7655,-0.7535,-0.7404,-0.6573,-0.5968,-0.5663,-0.5092,-0.4769,-0.4718,-0.5012,-0.5731,-0.6826,-0.7548,-0.8235,-0.8886,-0.9458,-0.9364,-0.8762,-0.8491,0.0,-0.7373,-0.7042,-0.6221,-0.5196,-0.4286,-0.2558,-0.061,0.0132,0.0614,0.0,0.0975,0.1281,0.1762,0.0,0.3242,0.3963,0.0,0.0,0.0,0.5624,0.0,0.0,0.0,0.5585,0.5505,0.5048,0.4865,0.4709,0.4458,0.0,0.3359,0.0,0.0,0.0,0.0,0.0,0.0,0.0,0.0,0.0,-0.5229,-0.5315,-0.5502,-0.603,-0.4461,-0.3618,-0.3854,-0.2522,-0.1819,-0.1819,-0.1819,-0.1667,-0.1415,-0.165,-0.1536,-0.1129,-0.136,-0.1444,-0.1477,-0.1682,-0.1805,-0.1805,-0.1805,-0.1739,-0.1577,-0.1565,-0.1435,-0.1272,-0.1214,-0.1136,-0.0947,-0.0554,-0.0303,-0.0202,-1.1404,-1.1591,-1.1685,-1.1833,-1.1854,-1.2043,-1.2632,-1.249,-1.2358,-1.2557,-1.256,-1.2555,-1.2477,-1.2219,-1.18,-1.1287,-1.0586,-0.9974,-0.9485,-0.8867,-0.8312,-0.7883,-0.7606,-0.74,-0.726,-0.6501,-0.5853,-0.5343,-0.4868,-0.4745,-0.5006,-0.5316,-0.6232,-0.7619,-0.8367,-0.8765,-0.8941,-1.0075,-0.9601,-0.8149,0.0,-0.8618,-0.819,-0.7881,-0.6972,-0.567,-0.4296,-0.2271,-0.0168,0.0042,0.0295,0.0461,0.0574,0.0826,0.0,0.0,0.0,0.0,0.0,0.0,0.0,0.0,0.0,0.5446,0.0,0.0,0.0,0.5354,0.5479,0.0,0.0,0.0,0.0,0.0,0.0,0.0,0.0,0.0,0.0,0.0,0.0,0.0,0.0,-0.4555,-0.5104,-0.5987,-0.4497,-0.375,-0.416,-0.286,-0.2071,-0.2071,-0.2071,-0.1819,-0.1364,-0.1364,-0.1254,-0.1037,-0.0839,-0.093,-0.1301,-0.1465,-0.1498,-0.1451,-0.1592,-0.1574,-0.1414,-0.1545,-0.1416,-0.1105,-0.1127,-0.0947,-0.0707,-0.0404,-0.0202,0.0,-1.124,-1.1584,-1.184,-1.2027,-1.2017,-1.2315,-1.3308,-1.2803,-1.2415,-1.2729,-1.2627,-1.2389,-1.2094,-1.1876,-1.156,-1.107,-1.067,-1.0119,-0.9371,-0.929,-0.8618,-0.7099,-0.6995,-0.6694,-0.6121,-0.5354,-0.4888,-0.4699,-0.4737,-0.472,-0.469,-0.5875,-0.6933,-0.7895,-0.8995,-0.9441,-0.9447,-1.0307,-0.9808,0.0,-0.9266,-0.8771,0.0,-0.684,-0.6251,-0.5398,-0.2957,-0.1582,-0.0716,0.0,0.0126,-0.0378,0.0,0.0124,0.0167,0.1511,0.0,0.0,0.0,0.0,0.0,0.0,0.5783,0.0,0.0,0.0,0.562,0.5581,0.0,0.0,0.0,0.0,0.0,0.0,0.0,0.0,0.0,0.0,0.0,0.0,0.0,0.0,0.0,-0.3303,-0.3996,-0.4745,-0.3731,-0.3166,-0.3435,-0.2742,-0.2371,-0.2371,-0.2371,-0.2221,-0.1921,-0.1921,-0.1564,-0.0856,-0.0805,-0.0805,-0.0853,-0.0639,-0.0927,-0.1561,-0.1366,-0.1351,-0.1473,-0.1585,-0.1444,-0.1177,-0.095,-0.0706,-0.0404,-0.0152,-0.0051,0.0,-1.149,-1.1553,-1.1584,-1.1872,-1.1983,-1.2317,-1.3045,-1.3159,-1.3266,-1.354,-1.3462,-1.3189,-1.2532,-1.2141,-1.1804,-1.1422,0.0,-0.9787,0.0,0.0,-0.8289,-0.7177,-0.7062,-0.6756,-0.6204,-0.5582,-0.5185,-0.501,-0.531,-0.532,-0.5087,-0.6602,-0.768,-0.8468,-0.9489,-0.955,-0.8912,-0.9935,-0.9109,0.0,0.0,0.0,0.0,-0.7217,-0.635,-0.4472,-0.2706,-0.1359,-0.0364,0.0,0.004,0.0,0.0,0.0,0.0,0.1169,0.0,0.0,0.0,0.0,0.0,0.0,0.0,0.0,0.5959,0.0,0.5909,0.0,0.0,0.0,0.0,0.0,0.0,0.0,0.532,0.0,0.0,0.0,0.0,0.0,0.0,0.0,0.0,0.0,0.0,0.0,-0.3389,-0.3047,-0.3105,-0.2677,-0.2345,-0.217,-0.2321,-0.2119,-0.1566,-0.1667,-0.1364,-0.0556,-0.0556,-0.0505,-0.0353,-0.0396,-0.0589,-0.0933,-0.1129,-0.1214,-0.1292,-0.1492,-0.1449,-0.1181,-0.0903,-0.0657,-0.0354,-0.0102,0.0,0.0,-1.1584,-1.1553,-1.1551,-1.196,-1.222,-1.2554,-1.3074,-1.3542,-1.386,-1.3916,-1.382,-1.3491,-1.2891,-1.2394,0.0,-1.1658,-1.0373,-0.9634,0.0,0.0,-0.8156,-0.7222,0.0,0.0,-0.5723,-0.5396,-0.5154,-0.5043,-0.5619,-0.5881,-0.5834,-0.7335,-0.8354,-0.8882,-0.9882,-0.976,-0.8841,-0.9675,-0.8559,-0.6331,-0.6613,-0.6371,-0.5941,-0.6771,-0.5755,-0.3748,-0.2623,-0.1519,-0.0589,-0.0432,-0.0314,0.0,-0.0275,0.0,0.0,0.0,0.0,0.0,0.3039,0.0,0.0,0.0,0.0,0.0,0.0,0.0,0.0,0.0,0.0,0.0,0.0,0.0,0.0,0.0,0.0,0.5348,0.0,0.0,0.0,0.0,0.0,0.0,0.0,0.0,0.0,-0.3031,-0.2769,-0.2646,-0.2765,-0.2557,-0.232,-0.2104,-0.2315,-0.2069,-0.1415,-0.1617,-0.1314,-0.0505,-0.0505,-0.0354,-0.0101,-0.0299,-0.0495,-0.0643,-0.1039,-0.1228,-0.1263,-0.1499,-0.1454,-0.1189,-0.0904,-0.0657,-0.0354,-0.0103,0.0,0.0052,-1.124,-1.1584,-1.1938,-1.2493,-1.2836,-1.3279,-1.3963,-1.3987,-1.3805,0.0,0.0,0.0,0.0,0.0,0.0,0.0,0.0,-0.9968,-0.9271,0.0,-0.8533,0.0,0.0,-0.6056,0.0,-0.417,-0.4287,-0.4331,-0.5389,-0.6246,-0.6875,-0.8101,-0.8768,-0.9041,-1.0172,-1.0341,-0.9758,-0.981,-0.8632,-0.6763,-0.6631,-0.6433,-0.6008,0.0,-0.3885,-0.3553,-0.2414,0.0,0.0,-0.0942,-0.1021,0.0,0.0,0.0,0.0,0.0,0.0,0.0,0.0,0.0,0.0,0.4775,0.0,0.0,0.0,0.0,0.5133,0.0,0.0,0.0,0.0,0.0,0.0,0.0,0.0,0.0,0.0,0.0,0.0,0.0,0.0,0.0,0.0,0.0,0.0,-0.1684,-0.1609,-0.1743,-0.2205,-0.2329,-0.2403,-0.2404,-0.2398,-0.2271,-0.1971,-0.1971,-0.1566,-0.0808,-0.0808,-0.0657,-0.0404,-0.0404,-0.0707,-0.1161,-0.1211,-0.1362,-0.1564,-0.1616,-0.1465,-0.1161,-0.0909,-0.0657,-0.0354,-0.0101,0.0,0.0052,-1.0101,-1.0962,-1.1824,-1.2325,-1.2513,-1.2917,0.0,-1.3704,0.0,0.0,-1.3287,0.0,0.0,-1.1939,-1.1804,0.0,0.0,-1.0175,-1.0065,-0.9607,0.0,0.0,0.0,-0.5907,0.0,0.0,0.0,-0.3852,-0.5668,-0.6332,-0.5972,-0.8091,-0.9045,-0.9056,-1.0239,-1.0419,-0.9768,-0.9189,0.0,0.0,0.0,-0.4961,-0.4547,0.0,0.0,-0.4314,-0.3768,-0.272,0.0,-0.1178,-0.1021,-0.0904,-0.0589,-0.0397,-0.0201,0.0322,0.0898,0.0,0.0,0.0,0.3519,0.4244,0.0,0.0,0.0,0.0,0.0,0.0,0.0,0.0,0.0,0.0,0.0,0.0,0.0,0.0,0.0,0.0,0.0,0.0,0.0,0.0,0.0,0.0,0.0,-0.0816,-0.0922,-0.1121,0.0,-0.1962,-0.2151,-0.1863,-0.232,-0.2342,-0.1718,-0.1718,-0.1415,-0.0808,-0.096,-0.0808,-0.0404,-0.0606,-0.0758,-0.096,-0.1111,-0.1263,-0.1314,-0.1314,-0.1263,-0.1162,-0.0707,-0.0505,-0.0354,-0.0102,0.0,0.0052,-0.943,-1.0526,-1.1635,-1.2227,-1.2324,0.0,0.0,0.0,0.0,0.0,-1.2805,0.0,-1.203,0.0,-1.1694,0.0,-1.0852,-1.0054,-0.9929,-0.9636,0.0,-0.686,-0.6912,0.0,0.0,0.0,0.0,0.0,-0.558,-0.6358,-0.5996,-0.8234,-0.9246,-0.9141,-1.0199,-1.0481,-1.0081,-0.886,-0.8118,0.0,0.0,-0.4085,0.0,0.0,-0.4559,-0.4482,0.0,-0.285,-0.1849,-0.1516,-0.1194,-0.0914,-0.0748,-0.0476,-0.0161,0.0161,0.0698,0.1307,0.1925,0.2519,0.0,0.3694,0.4292,0.0,0.5144,0.0,0.0,0.0,0.0,0.0,0.0,0.0,0.0,0.0,0.0,0.0,0.0,0.2792,0.0,0.0,0.0,0.0,0.0,0.0,0.0207,-0.0129,-0.0347,-0.0619,0.0,0.0,-0.1705,-0.1457,-0.2018,-0.2095,-0.1616,-0.1617,-0.1364,-0.096,-0.1111,-0.096,-0.0556,-0.0707,-0.0808,-0.0808,-0.096,-0.1111,-0.1212,-0.1111,-0.1111,-0.1162,-0.0606,-0.0404,-0.0354,-0.0102,0.0155,0.0364,-0.9335,-1.0298,-1.1383,0.0,-1.2308,0.0,0.0,0.0,-1.1744,0.0,-1.181,-1.1912,-1.2026,-1.187,-1.169,-1.1661,-1.066,-0.9704,-0.901,-0.938,0.0,0.0,-0.75,-0.6644,-0.3976,0.0,0.0,0.0,0.0,-0.6298,-0.6857,-0.849,-0.9284,-0.9311,-1.0053,-1.0504,-1.0674,-0.8892,-0.8002,-0.7533,-0.4488,-0.3875,-0.4685,-0.3931,-0.3923,-0.4034,-0.2606,-0.2436,-0.2804,-0.193,-0.1591,-0.1543,-0.1072,-0.0788,-0.0551,-0.0157,0.0325,0.0756,0.126,0.1906,0.2624,0.3233,0.0,0.0,0.0,0.0,0.4856,0.0,0.0,0.0,0.0,0.0,0.0,0.0,0.0,0.0,0.0,0.0,0.0,0.0,0.0,0.0,0.0,0.1042,0.0738,0.0336,0.0086,-0.0219,0.0,0.0,-0.1283,-0.1284,-0.153,-0.1661,-0.1612,-0.1613,-0.1463,-0.116,-0.1212,-0.1061,-0.0758,-0.0808,-0.0808,-0.0808,-0.0808,-0.096,-0.1162,-0.0909,-0.0909,-0.1111,-0.0606,-0.0404,-0.0354,-0.0101,0.0357,0.0886,-0.9511,-1.0626,-1.1589,0.0,-1.1891,-1.2165,0.0,0.0,0.0,0.0,-1.2012,-1.2236,-1.1375,-1.1767,-1.1886,-1.144,-1.1257,0.0,0.0,0.0,0.0,-0.7611,-0.743,-0.6372,-0.4247,-0.466,-0.3999,-0.2178,0.0,-0.6028,-0.5615,-0.784,-0.9013,-0.9322,-0.982,-1.0137,-1.0279,-0.9281,-0.7854,-0.6225,-0.4877,-0.421,0.0,0.0,-0.326,-0.3305,-0.3163,-0.2727,-0.2184,-0.1796,-0.1667,-0.1625,-0.1285,-0.1145,-0.1009,-0.0444,-0.008,0.0363,0.1166,0.1759,0.2277,0.2859,0.3599,0.4218,0.0,0.0,0.0,0.0,0.0,0.0,0.0,0.0,0.0,0.0,0.0,0.0,0.0,0.0,0.0,0.0642,0.0,0.0,0.1216,0.0908,0.052,0.0123,-0.0248,0.0,0.0,0.0,0.0,-0.2142,-0.2616,-0.2622,-0.2034,-0.211,-0.173,-0.089,-0.1305,-0.1162,-0.0505,-0.0909,-0.101,-0.0808,-0.0808,-0.0859,-0.0859,-0.0606,-0.0556,-0.0556,-0.0253,-0.0101,-0.0101,-0.0051,0.0355,0.0817,-0.9637,-1.0864,0.0,-1.1657,0.0,0.0,-1.1537,-1.1107,0.0,-1.0452,-1.1232,0.0,-1.0646,-1.1038,-1.135,-1.125,-1.0858,0.0,-0.9742,0.0,0.0,-0.7249,-0.7435,-0.6582,-0.4512,-0.4717,0.0,-0.2422,0.0,-0.5896,-0.575,-0.7869,-0.8941,-0.9175,-0.9695,-0.9904,-0.9865,-0.8634,-0.7175,-0.5623,-0.4426,-0.3861,0.0,-0.2788,-0.2608,-0.277,-0.2647,-0.229,-0.1901,-0.1754,-0.1706,-0.1703,-0.1519,-0.1326,-0.1099,-0.0651,-0.0121,0.0441,0.0947,0.1488,0.2002,0.2579,0.3154,0.3667,0.4055,0.448,0.4812,0.0,0.0,0.0,0.0,0.0,0.0,0.0,0.0,0.0,0.0,0.0,0.0,0.0,-0.037,0.0,0.0,0.0234,-0.004,-0.0365,-0.061,0.0,0.0,0.0,0.0,-0.2333,-0.2468,-0.2435,-0.2269,-0.1968,-0.159,-0.1144,-0.1357,-0.1212,-0.0758,-0.0808,-0.0758,-0.0606,-0.0505,-0.0505,-0.0606,-0.0354,-0.0303,-0.0354,-0.0101,0.0051,0.0152,0.0153,0.046,0.0871,-0.9721,-1.0948,0.0,0.0,0.0,0.0,0.0,-0.964,0.0,-0.9456,0.0,-1.0321,-0.9904,-1.0139,-1.0482,-1.0868,0.0,-0.9311,-0.9063,-0.9023,-0.8247,-0.6653,-0.7368,-0.6857,-0.4797,-0.4526,-0.3999,0.0,0.0,-0.5859,-0.6379,-0.8243,-0.9076,-0.9027,-0.9575,-0.9664,-0.9252,-0.7461,-0.623,-0.536,-0.3687,-0.313,-0.3262,-0.2321,-0.2154,-0.2334,-0.1705,-0.1615,-0.1789,-0.1713,-0.1701,-0.1783,-0.1706,-0.1378,-0.1026,-0.0777,-0.0122,0.0529,0.0651,0.1114,0.1684,0.2204,0.2522,0.2884,0.3609,0.3976,0.415,0.4263,0.476,0.5173,0.0,0.0,0.0,0.0,0.0,0.0,0.0,0.0,0.0,0.0,0.0,0.0,0.0,0.0,0.0,0.0,0.0,0.0,0.0,0.0,0.0,-0.2198,-0.1895,0.0,-0.2247,0.0,-0.1409,-0.156,-0.1312,-0.1162,-0.1061,-0.0606,-0.0404,-0.0354,-0.0101,-0.0152,-0.0303,-0.0051,-0.0051,-0.0202,0.0,0.0202,0.0456,0.0516,0.078,0.1149,-0.9856,0.0,0.0,0.0,0.0,-0.8739,-0.907,-0.9291,-0.9256,-0.8827,-0.9618,-0.9963,-0.9196,-0.9923,-1.0169,-0.9365,-0.96,0.0,0.0,0.0,0.0,-0.7575,-0.7166,-0.6342,-0.5041,-0.5081,-0.4316,0.0,0.0,0.0,-0.5631,-0.8337,-0.9355,-0.8994,-0.9281,-0.8926,-0.8021,-0.682,0.0,-0.4752,-0.3482,-0.2917,-0.2733,-0.2713,-0.2376,-0.193,-0.2019,-0.193,-0.1749,-0.1519,-0.1606,-0.1739,-0.151,-0.153,-0.1456,-0.0884,-0.0578,-0.0326,0.0285,0.0612,0.0909,0.1463,0.1912,0.2359,0.2942,0.3181,0.35,0.4154,0.4389,0.4634,0.5127,0.0,0.0,0.0,0.0,0.0,0.0,0.0,0.0,0.0,0.0,-0.1059,0.0,0.0,0.0,0.0,0.0,0.0,0.0,0.0,0.0,0.0,-0.2856,0.0,0.0,0.0,-0.1824,-0.1283,-0.1204,-0.096,-0.0556,-0.0455,-0.0303,-0.0051,0.0,-0.0051,-0.0051,0.0202,0.0455,0.0556,0.0404,0.0505,0.076,0.1032,0.1624,0.223,-1.0196,0.0,0.0,0.0,0.0,0.0,0.0,-0.7818,0.0,-0.8026,-0.873,-0.8941,-0.8237,-0.8731,-0.906,-0.9009,-0.9017,-0.8803,-0.8264,-0.7938,-0.7427,-0.6586,-0.6452,-0.5947,-0.5079,-0.5026,-0.4623,-0.3861,0.0,0.0,0.0,0.0,-0.8711,-0.9109,-0.8493,-0.7728,0.0,0.0,0.0,-0.4243,-0.3068,-0.2682,-0.2813,-0.2712,-0.2601,-0.2511,-0.2288,-0.2109,-0.1974,-0.1705,-0.1705,-0.1794,-0.166,-0.1503,-0.1298,-0.0847,-0.0456,-0.0122,0.0244,0.0488,0.074,0.1246,0.1563,0.1878,0.241,0.2757,0.3089,0.3397,0.3858,0.4368,0.4892,0.4388,0.0,0.0,0.0,0.0,0.0,0.0,0.0,0.0,0.0,0.0,0.0,0.0,0.0,0.0,0.0,0.0,0.0,0.0,0.0,0.0,0.0,0.0,0.0,0.0,0.0,-0.1375,-0.1101,-0.0808,-0.0404,-0.0253,0.0051,0.0404,0.0404,0.0505,0.0606,0.0606,0.0707,0.0808,0.0657,0.0965,0.1539,0.188,0.2445,0.297,0.0,-0.987,0.0,0.0,-0.8542,0.0,-0.6692,-0.6383,-0.6517,-0.7272,-0.7703,-0.7808,-0.7376,-0.754,-0.7924,-0.8636,-0.8289,-0.7912,-0.7593,-0.7327,-0.6741,-0.5727,-0.5742,-0.5615,-0.5265,-0.4828,-0.465,0.0,0.0,0.0,0.0,0.0,0.0,0.0,0.0,0.0,0.0,0.0,-0.3547,-0.3357,-0.2418,-0.2344,-0.2797,-0.2574,-0.2781,-0.3048,-0.2467,-0.2243,-0.2154,-0.1839,-0.1705,-0.1705,-0.1705,-0.1463,-0.109,-0.0772,-0.0336,0.0124,0.0206,0.0372,0.0583,0.112,0.1264,0.1406,0.1967,0.2422,0.2677,0.2722,0.3496,0.4235,0.4633,0.4382,0.0,0.0,0.0,0.0,0.0,0.0,0.0,0.0,0.0,0.0,-0.1995,0.0,0.0,0.0,0.0,0.0,0.0,0.0,0.0,0.0,0.0,-0.2366,-0.1405,0.0,-0.1176,0.0,-0.03,0.0,0.0101,0.0404,0.0707,0.106,0.106,0.1262,0.1515,0.1262,0.1212,0.1313,0.1262,0.1786,0.2546,0.2695,0.3227,0.3879,0.0,0.0,0.0,0.0,0.0,0.0,-0.6059,-0.5953,-0.6033,-0.6748,-0.6902,-0.6939,-0.6877,-0.7054,-0.718,-0.7295,-0.7438,-0.7438,-0.716,-0.6558,-0.6349,-0.6659,-0.5365,-0.51,-0.6073,-0.4824,-0.4274,0.0,0.0,0.0,0.0,0.0,0.0,0.0,0.0,0.0,0.0,-0.3585,-0.2849,-0.1614,-0.1528,-0.1799,-0.2295,-0.2426,-0.2691,-0.2868,-0.2602,-0.2334,-0.2109,-0.1615,-0.1436,-0.1436,-0.1436,-0.1388,-0.1296,-0.0848,-0.0659,-0.0519,-0.0087,0.0043,0.0173,0.0652,0.075,0.0939,0.1659,0.1884,0.2106,0.2727,0.3618,0.4285,0.4332,0.4714,0.4691,0.0,0.0,0.0,0.0,0.0,-0.11,-0.1467,0.0,0.0,0.0,-0.0292,0.0,0.0,-0.2117,0.0,0.0,0.0,0.0,-0.047,0.0,-0.1363,0.1218,0.0782,0.0,0.098,0.1997,0.2217,0.1765,0.2068,0.2068,0.1866,0.1866,0.217,0.2624,0.2371,0.2523,0.2928,0.2725,0.3061,0.3635,0.3383,0.4085,0.5138,0.0,0.0,0.0,0.0,0.0,0.0,0.0,-0.5365,-0.5217,-0.6088,-0.6083,-0.5949,-0.5949,-0.6038,-0.6269,-0.671,-0.6693,-0.6715,-0.68,-0.6212,-0.5913,-0.6017,-0.5112,-0.4897,-0.548,-0.4667,-0.4262,0.0,0.0,0.0,0.0,0.0,0.0,0.0,0.0,-0.3498,-0.2168,-0.2106,-0.1754,-0.1212,-0.141,-0.1769,-0.2243,-0.2424,-0.2647,-0.2868,-0.2467,-0.2467,-0.2556,-0.2063,-0.166,-0.1393,-0.1275,-0.1234,-0.1142,-0.064,-0.05,-0.0451,-0.0089,0.0,0.009,0.0445,0.054,0.0685,0.1234,0.1508,0.1737,0.2148,0.2892,0.3539,0.3808,0.4328,0.4312,0.0,0.0,0.0,0.0,0.0,0.0,0.0,0.0,-0.0205,0.0,0.0,0.0,0.0,0.0,0.0,0.0,0.0,0.0,-0.0279,0.0,-0.0234,0.2116,0.1604,0.1564,0.2008,0.2545,0.262,0.2219,0.2371,0.2422,0.2522,0.2823,0.3145,0.3384,0.3127,0.3127,0.3336,0.3425,0.3717,0.4118,0.4455,0.4969,0.5656,-0.4789,0.0,-0.5036,0.0,-0.4755,-0.4729,-0.5412,-0.4739,-0.4422,-0.511,-0.506,-0.496,-0.511,-0.5168,-0.5502,-0.6328,-0.6278,-0.6337,-0.6647,-0.6134,-0.5733,-0.5559,-0.4842,0.0,-0.5408,-0.4565,-0.4267,-0.4651,-0.3878,0.0,0.0,0.0,0.0,0.0,-0.2974,-0.2192,-0.1302,-0.1139,-0.1136,-0.1212,-0.1459,-0.1727,-0.2019,-0.2289,-0.2512,-0.2645,-0.2242,-0.2422,-0.2826,-0.2395,-0.2037,-0.1679,-0.1382,-0.1254,-0.1122,-0.0564,-0.0422,-0.0326,-0.0093,0.0,0.0047,0.0321,0.0416,0.0513,0.0887,0.112,0.1353,0.1634,0.2306,0.292,0.3333,0.3807,0.3885,0.3091,0.0,0.0,0.0,0.0,0.0,0.0,0.0042,-0.0294,0.0525,-0.0432,0.0,0.0,0.0,0.0,0.0,0.0,0.0,0.0,0.0,0.0,0.0,0.2878,0.2898,0.3279,0.371,0.3695,0.3325,0.3277,0.3328,0.353,0.393,0.4126,0.4248,0.3988,0.3896,0.392,0.4288,0.4537,0.478,0.5324,0.5735,0.5991,-0.3777,-0.359,-0.3462,-0.3943,-0.4031,-0.4191,-0.4723,-0.4193,-0.3726,-0.3801,-0.3811,-0.3971,-0.435,-0.4581,-0.5102,-0.6018,-0.6359,-0.6573,-0.6777,-0.6352,-0.5982,0.0,0.0,-0.4701,-0.634,-0.4565,-0.4207,-0.5481,0.0,0.0,-0.4689,0.0,-0.321,-0.3121,-0.1477,-0.0852,-0.1121,-0.1122,-0.1211,-0.1436,-0.1705,-0.166,-0.148,-0.2019,-0.2199,-0.2154,-0.1885,-0.2287,-0.2831,-0.2435,-0.2404,-0.2495,-0.1943,-0.1642,-0.134,-0.0634,-0.0387,-0.0335,-0.0049,0.0,0.0048,0.0333,0.0381,0.0477,0.0667,0.0715,0.0858,0.1383,0.2095,0.2665,0.2951,0.329,0.3578,0.3868,0.0,0.0,0.0,0.0,0.0,0.1191,0.0931,0.1741,0.4216,0.1805,0.0,0.0,0.0,0.0,0.0,0.0,0.0,0.1708,0.1708,0.0,0.5141,0.5032,0.5032,0.5194,0.6098,0.6197,0.5536,0.5288,0.519,0.519,0.519,0.5247,0.5337,0.5076,0.5024,0.5106,0.5475,0.5641,0.5728,0.6004,0.6182,0.633,-0.1997,-0.1995,-0.2129,-0.2439,-0.2485,-0.2888,-0.4061,-0.3414,-0.298,-0.3706,-0.3226,-0.2811,-0.2936,-0.3643,-0.433,0.0,-0.4886,-0.509,0.0,-0.5221,-0.4928,-0.5095,-0.452,-0.4342,-0.4694,-0.3999,-0.3536,-0.346,0.0,0.0,0.0,-0.1765,-0.1508,-0.1462,-0.0947,-0.0673,-0.0628,-0.0819,-0.0908,-0.0987,-0.1549,-0.1726,-0.1705,-0.2064,-0.2064,-0.1885,-0.1615,-0.2127,-0.2932,-0.2814,-0.2967,-0.3131,-0.2601,-0.2032,-0.1465,-0.0846,-0.0548,-0.0347,-0.0049,-0.0247,-0.0444,0.0,-0.0144,-0.0243,0.034,0.0778,0.1119,0.146,0.1829,0.224,0.2667,0.3001,0.3237,0.3335,0.3451,0.0,0.0,0.0,0.0,0.3226,0.1542,0.1147,0.0,0.2593,0.0,0.0,0.0,0.0,0.0,0.0,0.0,0.0,0.3174,0.0,0.6149,0.6134,0.6172,0.6269,0.6519,0.629,0.5746,0.5442,0.5342,0.5346,0.5617,0.577,0.5807,0.5771,0.5656,0.5528,0.5923,0.5766,0.5412,0.6031,0.6246,0.633,-0.0987,-0.1336,-0.1815,-0.217,-0.2318,-0.2693,-0.3612,-0.2955,-0.2511,-0.3058,-0.2685,-0.2304,-0.2207,-0.2814,0.0,-0.4127,-0.4072,-0.4238,-0.478,-0.4425,-0.418,-0.4122,-0.3941,-0.3849,-0.3937,0.0,0.0,-0.2835,-0.2083,-0.1417,-0.0728,-0.0423,-0.0276,-0.0274,-0.0226,-0.0224,-0.0269,-0.0413,-0.064,-0.0899,-0.1331,-0.1463,-0.1436,-0.1705,-0.1615,-0.1392,-0.1312,-0.1876,-0.2735,-0.3011,-0.327,-0.3439,-0.3015,-0.238,-0.1591,-0.0855,-0.0455,-0.0202,-0.005,-0.0252,-0.0402,-0.0099,-0.0247,-0.0347,0.0149,0.0599,0.0953,0.1204,0.1491,0.1774,0.2313,0.257,0.2729,0.2975,0.3304,0.3531,0.3484,0.0,0.0,0.0,0.0,0.0,0.0,0.3388,0.324,0.0,0.0,0.0,0.0,0.0,0.0,0.2828,0.4403,0.0,0.6567,0.6665,0.6725,0.6801,0.6725,0.6479,0.6167,0.6014,0.5888,0.5857,0.6065,0.6167,0.6126,0.6126,0.5973,0.579,0.6137,0.5821,0.5305,0.5971,0.6215,0.627,-0.0583,-0.1411,0.0,0.0,-0.3008,0.0,-0.3226,-0.2627,-0.2118,-0.1958,-0.2132,-0.2206,-0.1961,-0.2157,-0.2634,-0.3426,0.0,0.0,0.0,-0.3886,-0.3592,-0.2909,-0.2908,-0.3189,-0.3799,-0.2667,-0.2455,-0.3139,-0.1472,-0.0438,0.0048,0.0328,0.0414,0.0451,0.063,0.045,0.0045,0.0,-0.0412,-0.108,-0.1102,-0.096,-0.0762,-0.0987,-0.0942,-0.0719,-0.0965,-0.1528,-0.224,-0.2859,-0.3192,-0.3352,-0.3157,-0.2519,-0.1715,-0.0707,-0.0202,0.0,0.0,-0.0051,-0.0051,0.0,0.0,0.0,0.0,0.0205,0.0519,0.0831,0.1039,0.1402,0.1971,0.205,0.2179,0.2676,0.2778,0.288,0.3074,0.0,0.0,0.0,0.0,0.0,0.0,0.4141,0.464,0.0,0.0,0.0,0.0,0.0,0.3669,0.4156,0.5383,0.6199,0.663,0.6744,0.6806,0.6815,0.6815,0.6815,0.6815,0.6815,0.6752,0.66,0.6506,0.6449,0.6406,0.6246,0.6017,0.5877,0.6161,0.5821,0.5245,0.5843,0.6061,0.6112,0.0,0.0,-0.0623,-0.0934,-0.1177,-0.134,-0.1415,-0.1288,-0.116,-0.1084,-0.1132,-0.1171,-0.1106,-0.1119,-0.1261,-0.1459,-0.2048,-0.2306,-0.2114,-0.2046,-0.2005,-0.1851,-0.1826,-0.1858,-0.2,-0.1402,-0.0885,-0.0501,0.0099,0.0493,0.0598,0.0684,0.0724,0.072,0.0745,0.0602,0.0282,0.0093,-0.0323,-0.0827,-0.1016,-0.1051,-0.1031,-0.1076,-0.0942,-0.0719,-0.078,-0.1215,-0.1759,-0.1946,-0.2029,-0.2056,-0.2014,-0.1412,-0.0757,-0.0707,-0.0354,0.0,0.0,-0.0307,-0.0507,-0.0103,0.0,0.0,0.0,0.0203,0.051,0.0828,0.1091,0.1454,0.2023,0.2091,0.219,0.2433,0.2706,0.2705,0.2131,0.1363,0.0,0.0,0.1991,0.2339,0.4048,0.4524,0.4736,0.0,0.0,0.0,0.0,0.53,0.5115,0.4651,0.5728,0.6438,0.6757,0.6787,0.685,0.6942,0.6942,0.6942,0.6942,0.6942,0.6926,0.6904,0.6964,0.6967,0.6845,0.6903,0.6634,0.6161,0.5991,0.5598,0.519,0.5354,0.5569,0.5839,0.0628,0.0403,0.0134,-0.0448,-0.0552,-0.0565,-0.0619,-0.0528,-0.0388,-0.0245,-0.0341,-0.0385,-0.0283,-0.0338,-0.039,-0.0239,-0.0971,-0.1326,-0.1178,-0.1127,-0.1132,-0.1193,-0.1034,-0.0931,-0.0931,-0.0445,0.01,0.0748,0.0888,0.1032,0.1132,0.1277,0.1313,0.1242,0.1274,0.1174,0.0893,0.0516,0.0047,-0.0509,-0.0555,-0.0685,-0.0762,-0.0493,-0.0406,-0.0365,-0.0372,-0.076,-0.126,-0.153,-0.16,-0.1563,-0.1462,-0.1109,-0.0707,-0.0505,-0.0253,0.0,0.0,-0.0205,-0.0354,-0.0051,0.0102,0.0202,0.0202,0.0407,0.0667,0.1037,0.1195,0.1405,0.1835,0.1998,0.2202,0.2436,0.2315,0.2084,0.1743,0.1173,0.0,0.238,0.2431,0.2957,0.4589,0.501,0.5163,0.5163,0.0,0.0,0.5933,0.6144,0.6065,0.5553,0.6103,0.6554,0.6798,0.691,0.6997,0.7117,0.7117,0.7117,0.7117,0.7117,0.7141,0.7205,0.7216,0.7199,0.7208,0.7218,0.6793,0.6205,0.5917,0.5435,0.4915,0.4845,0.5074,0.5502,0.1031,0.0852,0.0538,-0.0359,-0.0325,-0.0238,-0.0238,-0.0048,0.0196,0.044,0.0241,0.019,0.0417,0.024,0.0196,0.0432,-0.0146,-0.0542,-0.0542,-0.0551,-0.0556,-0.0556,-0.0354,-0.0202,-0.0202,0.0251,0.0745,0.132,0.1316,0.1404,0.1629,0.1901,0.1981,0.1878,0.1904,0.1757,0.1495,0.0995,0.0377,-0.0278,-0.0046,-0.0137,-0.0403,0.0179,0.0227,0.0,0.0,-0.0289,-0.0736,-0.1152,-0.1311,-0.1311,-0.1009,-0.0908,-0.0807,-0.0101,0.0101,0.0101,0.0,0.0,0.0,0.0051,0.0253,0.0404,0.0455,0.0614,0.088,0.1245,0.1246,0.1305,0.1646,0.195,0.2205,0.2499,0.1869,0.1473,0.1672,0.0,0.1171,0.2473,0.2943,0.3702,0.4933,0.5369,0.5633,0.5633,0.6109,0.6426,0.0,0.6544,0.66,0.6443,0.6406,0.6554,0.6798,0.7089,0.721,0.721,0.721,0.721,0.7265,0.721,0.732,0.75,0.7332,0.7373,0.7503,0.7334,0.6866,0.6233,0.5895,0.5374,0.4679,0.4457,0.4695,0.511,0.1749,0.1436,0.1121,0.0583,0.0557,0.062,0.062,0.063,0.0683,0.072,0.0679,0.0675,0.0743,0.0681,0.0699,0.0734,0.0647,0.0553,0.0553,0.0555,0.0556,0.0556,0.0606,0.0606,0.0606,0.0881,0.125,0.1773,0.1743,0.185,0.2197,0.2252,0.2268,0.2289,0.2065,0.1855,0.1556,0.1007,0.033,-0.0324,0.0139,-0.0046,-0.0583,0.0134,0.0225,0.0,0.0,-0.0048,-0.0096,0.005,-0.005,-0.0151,0.0353,0.0353,0.0202,0.0556,0.0657,0.0558,0.0103,0.0,0.0052,0.0304,0.0354,0.0455,0.0707,0.0759,0.0917,0.1242,0.1298,0.1358,0.1646,0.1991,0.2215,0.2242,0.1749,0.1418,0.1759,0.0,0.1795,0.2581,0.3507,0.4286,0.4731,0.5263,0.5686,0.5902,0.6217,0.6479,0.6748,0.6785,0.6766,0.6747,0.6495,0.6554,0.6798,0.7089,0.721,0.721,0.721,0.7324,0.7549,0.7324,0.7479,0.7904,0.7651,0.7703,0.7907,0.7651,0.7257,0.6779,0.6061,0.5591,0.5255,0.4838,0.4742,0.4797,0.2154,0.193,0.1666,0.1093,0.1122,0.1292,0.1403,0.1562,0.1657,0.1626,0.1648,0.1644,0.158,0.161,0.1603,0.1476,0.1598,0.1615,0.1465,0.1061,0.0804,0.0796,0.1055,0.1357,0.1591,0.1676,0.1831,0.2065,0.2047,0.2103,0.2235,0.2402,0.2461,0.2509,0.2392,0.2232,0.1905,0.1253,0.0571,-0.0139,0.0231,0.0091,-0.0224,0.0499,0.0689,0.0606,0.0623,0.0536,0.0444,0.0552,0.0556,0.0455,0.0707,0.0707,0.0657,0.0758,0.0808,0.0759,0.051,0.0409,0.0459,0.0607,0.0707,0.0859,0.101,0.1111,0.1266,0.143,0.1496,0.1566,0.1699,0.2107,0.2407,0.2466,0.2049,0.0,0.0,0.2033,0.2235,0.2889,0.39,0.4766,0.5245,0.5689,0.607,0.6342,0.6663,0.688,0.6991,0.6934,0.6902,0.6902,0.679,0.6787,0.6899,0.7125,0.7268,0.7438,0.7438,0.7549,0.7826,0.7712,0.7875,0.8266,0.7937,0.795,0.8111,0.7744,0.7285,0.6759,0.6236,0.5912,0.5617,0.5388,0.5483,0.5719,0.2691,0.2467,0.2213,0.1568,0.16,0.1824,0.2056,0.2266,0.2403,0.2311,0.2391,0.234,0.2261,0.2354,0.2308,0.2127,0.2302,0.2321,0.2121,0.1515,0.1151,0.1129,0.1537,0.1931,0.2291,0.2215,0.2217,0.2253,0.2253,0.2303,0.2407,0.2583,0.2682,0.2708,0.2705,0.2504,0.2197,0.1508,0.0771,0.0093,0.0372,0.0276,0.0091,0.0828,0.1077,0.1052,0.1073,0.0991,0.0803,0.0857,0.0859,0.0808,0.096,0.101,0.101,0.1061,0.1061,0.1061,0.0859,0.0808,0.0808,0.0859,0.1061,0.1212,0.1263,0.1465,0.1617,0.1617,0.1641,0.1724,0.1805,0.227,0.264,0.2797,0.0,0.0,0.0,0.2546,0.2691,0.3492,0.4305,0.5078,0.5648,0.6049,0.6386,0.6604,0.699,0.721,0.721,0.7125,0.7024,0.7024,0.7051,0.7091,0.7091,0.7262,0.749,0.7718,0.7718,0.7826,0.81,0.8045,0.8211,0.8598,0.8266,0.8246,0.8348,0.7883,0.7325,0.6757,0.6495,0.6266,0.6081,0.5871,0.611,0.6547,0.3631,0.3317,0.2933,0.226,0.2213,0.2256,0.2347,0.2389,0.24,0.2404,0.2388,0.2398,0.2398,0.239,0.237,0.2366,0.2369,0.2371,0.2371,0.2321,0.2251,0.2208,0.2174,0.2202,0.2295,0.2247,0.2293,0.2475,0.2475,0.2634,0.2958,0.2963,0.2992,0.3045,0.2818,0.2571,0.2243,0.1488,0.0879,0.0371,0.0614,0.0423,0.0092,0.0832,0.0984,0.0812,0.0829,0.0835,0.0839,0.1105,0.101,0.0909,0.1364,0.1566,0.1566,0.1819,0.1921,0.1768,0.101,0.0808,0.0859,0.1111,0.1162,0.1263,0.1516,0.1566,0.1617,0.1617,0.1641,0.1776,0.2124,0.2378,0.2694,0.3018,0.0,0.0,0.3734,0.3246,0.3284,0.4623,0.4862,0.5037,0.538,0.594,0.633,0.633,0.6879,0.721,0.721,0.7202,0.7196,0.7196,0.731,0.7359,0.7359,0.7758,0.7934,0.7989,0.7989,0.8156,0.8429,0.8156,0.8325,0.8881,0.8598,0.8517,0.8615,0.8155,0.7756,0.7367,0.6733,0.6571,0.66,0.6195,0.6275,0.6505,0.3765,0.3535,0.3313,0.2629,0.2587,0.2686,0.2887,0.2913,0.2857,0.2851,0.2892,0.2856,0.2851,0.2893,0.2826,0.2674,0.2775,0.2826,0.2674,0.2944,0.2932,0.2645,0.2464,0.2558,0.2955,0.2862,0.2938,0.3186,0.3005,0.3016,0.3128,0.2995,0.2983,0.3041,0.2961,0.2689,0.2248,0.1689,0.1123,0.0649,0.0709,0.0612,0.0556,0.1126,0.1337,0.1315,0.129,0.1299,0.1301,0.1411,0.1364,0.1364,0.1718,0.1869,0.192,0.2171,0.2271,0.2121,0.1667,0.1415,0.1314,0.1415,0.1465,0.1465,0.1566,0.1617,0.1667,0.1819,0.1913,0.2115,0.2394,0.2726,0.3004,0.336,0.0,0.356,0.4198,0.4177,0.4282,0.4814,0.5098,0.5324,0.5601,0.588,0.6158,0.6492,0.6771,0.699,0.721,0.721,0.721,0.721,0.7555,0.7694,0.7535,0.7855,0.81,0.8318,0.8318,0.8488,0.8768,0.8605,0.866,0.8881,0.8771,0.8633,0.8453,0.81,0.7591,0.6961,0.691,0.6993,0.7075,0.7217,0.7364,0.7425,0.4246,0.412,0.3914,0.3205,0.3062,0.311,0.3422,0.3331,0.3265,0.3371,0.3254,0.3264,0.337,0.3337,0.3252,0.3149,0.3283,0.333,0.3148,0.344,0.3474,0.3122,0.2933,0.3065,0.3525,0.3389,0.3417,0.3622,0.3328,0.3183,0.3183,0.3026,0.2967,0.3008,0.309,0.279,0.2267,0.1891,0.147,0.1029,0.0948,0.104,0.117,0.1518,0.1696,0.1835,0.176,0.1718,0.1718,0.1718,0.1667,0.1667,0.1921,0.2123,0.2272,0.2472,0.2522,0.2472,0.2222,0.1969,0.1818,0.1667,0.1617,0.1617,0.1718,0.1718,0.1819,0.207,0.2235,0.2398,0.2664,0.3013,0.3362,0.3699,0.4036,0.437,0.4592,0.4873,0.5043,0.5043,0.5268,0.5491,0.5656,0.5766,0.5989,0.6548,0.6659,0.6824,0.721,0.721,0.721,0.721,0.7709,0.7934,0.7715,0.8103,0.838,0.8598,0.8598,0.8712,0.8885,0.8885,0.8885,0.8881,0.8826,0.8578,0.8294,0.7993,0.7453,0.6807,0.7151,0.7271,0.7354,0.7586,0.779,0.7826,0.5283,0.5078,0.4862,0.4039,0.3679,0.3606,0.3972,0.3531,0.3381,0.3932,0.3531,0.343,0.3932,0.3721,0.363,0.3871,0.3856,0.3844,0.3913,0.3852,0.3813,0.3813,0.3668,0.3658,0.381,0.3665,0.3624,0.3701,0.3351,0.3227,0.3186,0.3069,0.3005,0.3011,0.3086,0.2795,0.2307,0.21,0.1827,0.1526,0.1478,0.1669,0.1908,0.1908,0.21,0.2371,0.2071,0.2022,0.2022,0.2022,0.1819,0.1667,0.1921,0.2373,0.2826,0.2826,0.2826,0.2725,0.2472,0.2422,0.227,0.1717,0.1617,0.1667,0.1921,0.2022,0.2071,0.2371,0.2493,0.2664,0.2931,0.3343,0.3699,0.398,0.4484,0.4873,0.4929,0.5212,0.5382,0.5382,0.5382,0.5382,0.5382,0.5656,0.5935,0.6274,0.655,0.6824,0.721,0.721,0.721,0.721,0.7709,0.7989,0.7989,0.8602,0.8885,0.8885,0.8885,0.8885,0.8885,0.8885,0.8885,0.8881,0.8598,0.841,0.824,0.7776,0.7454,0.7232,0.7364,0.7414,0.7359,0.7091,0.7278,0.7496,0.5283,0.5134,0.4896,0.4047,0.3866,0.3907,0.3979,0.3883,0.3831,0.3982,0.3838,0.3776,0.3977,0.3867,0.3893,0.4246,0.403,0.3996,0.4238,0.421,0.4354,0.4608,0.397,0.3814,0.4194,0.3955,0.394,0.4206,0.3948,0.3873,0.3881,0.3532,0.3353,0.3358,0.3153,0.2795,0.2305,0.2073,0.1904,0.1763,0.1503,0.1742,0.2147,0.1956,0.21,0.2371,0.2071,0.2122,0.2271,0.2271,0.2221,0.2221,0.2473,0.2777,0.3079,0.3079,0.3079,0.3027,0.2775,0.2674,0.2573,0.227,0.217,0.217,0.2271,0.2271,0.2372,0.2623,0.2881,0.3202,0.3561,0.3906,0.4202,0.4587,0.4761,0.4987,0.5212,0.5326,0.5491,0.5656,0.5322,0.5154,0.5373,0.5485,0.5652,0.5935,0.6657,0.7099,0.721,0.721,0.7268,0.7493,0.7823,0.81,0.8374,0.8712,0.8885,0.8885,0.8885,0.8885,0.8885,0.8885,0.8885,0.8881,0.8598,0.8352,0.8045,0.7756,0.7393,0.7093,0.7218,0.7215,0.7148,0.7128,0.7072,0.6937,0.5616,0.5469,0.5229,0.4388,0.4301,0.4334,0.4435,0.4286,0.4236,0.4435,0.4067,0.3841,0.4084,0.3971,0.3981,0.424,0.4244,0.4348,0.453,0.4597,0.4804,0.5151,0.4523,0.4297,0.4662,0.4383,0.4354,0.4578,0.4299,0.4169,0.4139,0.3798,0.3623,0.3626,0.3356,0.2956,0.2478,0.2264,0.2087,0.2,0.182,0.2062,0.2574,0.2288,0.2393,0.2675,0.2272,0.2271,0.2371,0.2271,0.2321,0.2472,0.2725,0.2977,0.318,0.318,0.318,0.318,0.2977,0.2977,0.2927,0.2775,0.2573,0.2422,0.2522,0.2573,0.2679,0.3106,0.3365,0.3636,0.4022,0.4366,0.4597,0.4866,0.4987,0.5156,0.5382,0.5382,0.5435,0.5601,0.5433,0.532,0.5375,0.5599,0.5877,0.6156,0.6821,0.721,0.721,0.721,0.7268,0.7438,0.7823,0.8045,0.8156,0.866,0.8885,0.8885,0.8885,0.8885,0.8885,0.8885,0.8826,0.8712,0.8432,0.81,0.7826,0.766,0.7448,0.7273,0.7459,0.7362,0.7119,0.7035,0.6852,0.6605,0.6271,0.6083,0.5774,0.5003,0.4885,0.4935,0.519,0.4788,0.4636,0.5129,0.4257,0.3767,0.4255,0.4087,0.3966,0.4173,0.4627,0.4858,0.4799,0.5013,0.5204,0.5421,0.5191,0.5101,0.5153,0.494,0.4858,0.491,0.4484,0.4212,0.4144,0.3942,0.383,0.3779,0.361,0.3223,0.2758,0.2513,0.2322,0.2186,0.2192,0.2575,0.3049,0.272,0.2835,0.3079,0.2573,0.2422,0.2371,0.2122,0.2222,0.2472,0.2725,0.2977,0.318,0.318,0.318,0.318,0.318,0.318,0.323,0.323,0.2876,0.2573,0.2775,0.2826,0.3043,0.3665,0.3885,0.4008,0.4359,0.4704,0.4921,0.4929,0.5212,0.5382,0.5382,0.5382,0.5382,0.5437,0.5601,0.5656,0.5437,0.594,0.6381,0.6644,0.6982,0.7204,0.7196,0.7204,0.721,0.721,0.7709,0.7881,0.7662,0.8494,0.8881,0.8881,0.8881,0.8885,0.8885,0.8881,0.8712,0.8484,0.81,0.7826,0.7662,0.7607,0.7607,0.7718,0.7934,0.7726,0.7307,0.6918,0.6664,0.6509,0.6923,0.6552,0.6106,0.5549,0.5434,0.5386,0.524,0.509,0.5064,0.5134,0.4655,0.4411,0.4504,0.4569,0.472,0.5007,0.5269,0.5448,0.5463,0.5392,0.5442,0.5644,0.5597,0.5565,0.5592,0.5043,0.4891,0.5061,0.4726,0.4604,0.4648,0.4375,0.4152,0.3851,0.3682,0.3166,0.2415,0.2356,0.2278,0.219,0.218,0.2575,0.3053,0.2762,0.277,0.2826,0.2522,0.2422,0.2371,0.2321,0.2472,0.2725,0.2775,0.2977,0.318,0.318,0.318,0.318,0.318,0.318,0.323,0.3484,0.3433,0.3281,0.313,0.313,0.3247,0.3718,0.4003,0.4264,0.4617,0.4931,0.5188,0.5258,0.5326,0.5382,0.5382,0.5382,0.5491,0.5712,0.5322,0.5152,0.5373,0.571,0.6068,0.6533,0.6937,0.7169,0.7027,0.7161,0.7324,0.7493,0.7823,0.7989,0.7934,0.8549,0.8771,0.8598,0.8826,0.8885,0.8881,0.8657,0.8543,0.8484,0.7937,0.7771,0.7881,0.7662,0.7881,0.8266,0.81,0.7952,0.7806,0.7504,0.7399,0.7363,0.7203,0.6788,0.6396,0.5899,0.5648,0.5516,0.537,0.523,0.5132,0.5177,0.4703,0.4459,0.4648,0.465,0.4827,0.5344,0.5479,0.557,0.568,0.5594,0.5597,0.5688,0.5688,0.5715,0.5812,0.5427,0.5209,0.5218,0.4873,0.4771,0.4726,0.4627,0.4356,0.4069,0.3864,0.3299,0.2512,0.2347,0.2264,0.2222,0.2222,0.2575,0.3104,0.2921,0.2829,0.2775,0.2472,0.222,0.207,0.2321,0.2472,0.2674,0.2927,0.3079,0.318,0.318,0.318,0.318,0.318,0.318,0.3281,0.3534,0.3586,0.3584,0.3433,0.3482,0.3652,0.3925,0.4198,0.4497,0.4885,0.5106,0.5204,0.5308,0.5353,0.5382,0.5382,0.5382,0.5419,0.5484,0.552,0.5766,0.6207,0.6265,0.6412,0.679,0.7064,0.7185,0.7122,0.7177,0.7265,0.7382,0.766,0.7771,0.7601,0.8211,0.829,0.8005,0.8455,0.8676,0.8616,0.8348,0.8211,0.8045,0.7715,0.7604,0.7601,0.7607,0.7771,0.8045,0.7881,0.7806,0.7794,0.7513,0.7493,0.7607,0.7449,0.7007,0.6628,0.6223,0.5903,0.5655,0.5586,0.5314,0.5197,0.5355,0.4712,0.4428,0.4782,0.4686,0.4869,0.5557,0.5515,0.5502,0.5633,0.5638,0.5644,0.5644,0.5688,0.5731,0.5871,0.5738,0.5578,0.5356,0.5001,0.48,0.473,0.473,0.4532,0.4235,0.4037,0.3491,0.2695,0.2404,0.2217,0.213,0.2184,0.2536,0.3056,0.3079,0.2937,0.2725,0.2522,0.217,0.1818,0.227,0.2422,0.2522,0.2977,0.318,0.318,0.318,0.318,0.318,0.318,0.318,0.3281,0.3584,0.3685,0.3685,0.3685,0.3784,0.4004,0.4183,0.4355,0.464,0.4986,0.5128,0.519,0.519,0.532,0.5382,0.5382,0.5382,0.5347,0.52,0.5808,0.6362,0.6821,0.6768,0.676,0.7017,0.7143,0.7202,0.7182,0.7199,0.721,0.721,0.7438,0.7482,0.7182,0.77,0.7746,0.7328,0.7889,0.8169,0.8126,0.7874,0.7657,0.744,0.7385,0.7326,0.721,0.7382,0.7496,0.7607,0.7496,0.75,0.757,0.7413,0.749,0.7771,0.8227,0.7591,0.7023,0.6888,0.655,0.6182,0.5886,0.581,0.5734,0.5591,0.5225,0.4952,0.4952,0.53,0.5657,0.5975,0.5777,0.5589,0.5458,0.546,0.546,0.546,0.5599,0.5696,0.5712,0.5699,0.5616,0.5467,0.5237,0.5031,0.4768,0.4768,0.4518,0.4017,0.4017,0.3434,0.2449,0.2356,0.2123,0.1901,0.2171,0.2473,0.2774,0.3075,0.287,0.2472,0.2674,0.2574,0.2321,0.2371,0.2573,0.2775,0.2826,0.3027,0.318,0.318,0.318,0.318,0.318,0.318,0.3331,0.3833,0.3932,0.3932,0.3932,0.3784,0.3755,0.4131,0.4252,0.4378,0.4718,0.502,0.519,0.519,0.532,0.5382,0.5382,0.5382,0.5347,0.52,0.5525,0.5731,0.565,0.627,0.6564,0.625,0.6822,0.7166,0.7013,0.7155,0.721,0.721,0.7438,0.739,0.701,0.7659,0.7647,0.6881,0.6891,0.7103,0.7525,0.7048,0.6882,0.6826,0.655,0.6771,0.7154,0.6935,0.7104,0.7551,0.7049,0.7001,0.7343,0.7718,0.81,0.8377,0.8783,0.8288,0.7722,0.743,0.6731,0.6074,0.5832,0.5489,0.5351,0.5468,0.5355,0.5335,0.5597,0.5677,0.5766,0.5855,0.5544,0.5322,0.5416,0.528,0.5191,0.5191,0.5416,0.5597,0.5688,0.5761,0.5764,0.5595,0.5461,0.5186,0.4784,0.4937,0.4636,0.3982,0.3982,0.3393,0.2401,0.2528,0.2381,0.2043,0.2441,0.2695,0.2966,0.3134,0.2977,0.2623,0.2573,0.2522,0.2422,0.2573,0.2724,0.2826,0.2977,0.313,0.318,0.318,0.318,0.318,0.318,0.318,0.3331,0.3883,0.3982,0.4033,0.4185,0.4034,0.3792,0.3672,0.388,0.4092,0.4073,0.4508,0.4953,0.5161,0.5406,0.5652,0.5877,0.5835,0.5838,0.59,0.5899,0.5926,0.6089,0.6492,0.6639,0.6426,0.6906,0.7188,0.7139,0.7182,0.721,0.721,0.726,0.7201,0.6986,0.7308,0.7101,0.6446,0.6355,0.6406,0.6615,0.6129,0.6012,0.6129,0.6077,0.627,0.6659,0.655,0.655,0.6601,0.6492,0.6771,0.7265,0.7986,0.8377,0.854]},{"header":{"parameterUnit":"m.s-1","parameterCategory":1,"la1":30.6,"la2":28.766,"lo1":-90.7593,"lo2":-88.6598,"dy":0.0162,"dx":0.0183,"nx":116,"ny":114,"refTime":"2023-08-23T18:00:00:Z","depth":0,"parameterNumber":3,"parameterNumberName":"V-component_of_WINDS"},"data":[0.0,0.0,0.0,0.0,0.0,0.0,0.0,0.0,0.0,0.0,0.0,0.0,0.0,0.0,0.0,0.0,0.0,0.0,0.0,0.0,0.0,0.0,0.0,0.0,0.0,0.0,0.0,0.0,0.0,0.0,0.0,0.0,0.0,0.0,0.0,0.0,0.0,0.0,0.0,0.0,0.0,0.0,0.0,0.0,0.0,0.0,0.0,0.0,0.0,0.0,0.0,0.0,0.0,0.0,0.0,0.0,0.0,0.0,0.0,0.0,0.0,0.0,0.0,0.0,0.0,0.0,0.0,0.0,0.0,0.0,0.0,0.0,0.0,0.0,0.0,0.0,0.0,0.0,0.0,0.0,0.0,0.0,0.0,0.0,0.0,0.0,0.0,0.0,0.0,0.0,0.0,0.0,0.0,0.0,0.0,0.0,0.0,0.0,0.0,0.0,0.0,0.0,0.0,0.0,0.0,0.0,0.0,0.0,0.0,0.0,0.0,0.0,0.0,0.0,0.0,0.0,0.0,0.0,0.0,0.0,0.0,0.0,0.0,0.0,0.0,0.0,0.0,0.0,0.0,0.0,0.0,0.0,0.0,0.0,0.0,0.0,0.0,0.0,0.0,0.0,0.0,0.0,0.0,0.0,0.0,0.0,0.0,0.0,0.0,0.0,0.0,0.0,0.0,0.0,0.0,0.0,0.0,0.0,0.0,0.0,0.0,0.0,0.0,0.0,0.0,0.0,0.0,0.0,0.0,0.0,0.0,0.0,0.0,0.0,0.0,0.0,0.0,0.0,0.0,0.0,0.0,0.0,0.0,0.0,0.0,0.0,0.0,0.0,0.0,0.0,0.0,0.0,0.0,0.0,0.0,0.0,0.0,0.0,0.0,0.0,0.0,0.0,0.0,0.0,0.0,0.0,0.0,0.0,0.0,0.0,0.0,0.0,0.0,0.0,0.0,0.0,0.0,0.0,0.0,0.0,0.0,0.0,0.0,0.0,0.0,0.0,0.0,0.0,0.0,0.0,0.0,0.0,0.0,0.0,0.0,0.0,0.0,0.0,0.0,0.0,0.0,0.0,0.0,0.0,0.0,0.0,0.0,0.0,0.0,0.0,0.0,0.0,0.0,0.0,0.0,0.0,0.0,0.0,0.0,0.0,0.0,0.0,0.0,0.0,0.0,0.0,0.0,0.0,0.0,0.0,0.0,0.0,0.0,0.0,0.0,0.0,0.0,0.0,0.0,0.0,0.0,0.0,0.0,0.0,0.0,0.0,0.0,0.0,0.0,0.0,0.0,0.0,0.0,0.0,0.0,0.0,0.0,0.0,0.0,0.0,0.0,0.0,0.0,0.0,0.0,0.0,0.0,0.0,0.0,0.0,0.0,0.0,0.0,0.0,0.0,0.0,0.0,0.0,0.0,0.0,0.0,0.0,0.0,0.0,0.0,0.0,0.0,0.0,0.0,0.0,0.0,0.0,0.0,0.0,0.0,0.0,0.0,0.0,0.0,0.0,0.0,0.0,0.0,0.0,0.0,0.0,0.0,0.0,0.0,0.0,0.0,0.0,0.0,0.0,0.0,0.0,0.0,0.0,0.0,0.0,0.0,0.0,0.0,0.0,0.0,0.0,0.0,0.0,0.0,0.0,0.0,0.0,0.0,0.0,0.0,0.0,0.0,0.0,0.0,0.0,0.0,0.0,0.0,0.0,0.0,0.0,0.0,0.0,0.0,0.0,0.0,0.0,0.0,0.0,0.0,0.0,0.0,0.0,0.0,0.0,0.0,0.0,0.0,0.0,0.0,0.0,0.0,0.0,0.0,0.0,0.0,0.0,0.0,0.0,0.0,0.0,0.0,0.0,0.0,0.0,0.0,0.0,0.0,0.0,0.0,0.0,0.0,0.0,0.0,0.0,0.0,0.0,0.0,0.0,0.0,0.0,0.0,0.0,0.0,0.0,0.0,0.0,0.0,0.0,0.0,0.0,0.0,0.0,0.0,0.0,0.0,0.0,0.0,0.0,0.0,0.0,0.0,0.0,0.0,0.0,0.0,0.0,0.0,0.0,0.0,0.0,0.0,0.0,0.0,0.0,0.0,0.0,0.0,0.0,0.0,0.0,0.0,0.0,0.0,0.0,0.0,0.0,0.0,0.0,0.0,0.0,0.0,0.0,0.0,0.0,0.0,0.0,0.0,0.0,0.0,0.0,0.0,0.0,0.0,0.0,0.0,0.0,0.0,0.0,0.0,0.0,0.0,0.0,0.0,0.0,0.0,0.0,0.0,0.0,0.0,0.0,0.0,0.0,0.0,0.0,0.0,0.0,0.0,0.0,0.0,0.0,0.0,0.0,0.0,0.0,0.0,0.0,0.0,0.0,0.0,0.0,0.0,0.0,0.0,0.0,0.0,0.0,0.0,0.0,0.0,0.0,0.0,0.0,0.0,0.0,0.0,0.0,0.0,0.0,0.0,0.0,0.0,0.0,0.0,0.0,0.0,0.0,0.0,0.0,0.0,0.0,0.0,0.0,0.0,0.0,0.0,0.0,0.0,0.0,0.0,0.0,0.0,0.0,0.0,0.0,0.0,0.0,0.0,0.0,0.0,0.0,0.0,0.0,0.0,0.0,0.0,0.0,0.0,0.0,0.0,0.0,0.0,0.0,0.0,0.0,0.0,0.0,0.0,0.0,0.0,0.0,0.0,0.0,0.0,0.0,0.0,0.0,0.0,0.0,0.0,0.0,0.0,0.0,0.0,0.0,0.0,0.0,0.0,0.0,0.0,0.0,0.0,0.0,0.0,0.0,0.0,0.0,0.0,0.0,0.0,0.0,0.0,0.0,0.0,0.0,0.0,0.0,0.0,0.0,0.0,0.0,0.0,0.0,0.0,0.0,0.0,0.0,0.0,0.0,0.0,0.0,0.0,0.0,0.0,0.0,0.0,0.0,0.0,0.0,0.0,0.0,0.0,0.0,0.0,0.0,0.0,0.0,0.0,0.0,0.0,0.0,0.0,0.0,0.0,0.0,0.0,0.0,0.0,0.0,0.0,0.0,0.0,0.0,0.0,0.0,0.0,0.0,0.0,0.0,0.0,0.0,0.0,0.0,0.0,0.0,0.0,0.0,0.0,0.0,0.0,0.0,0.0,0.0,0.0,0.0,0.0,0.0,0.0,0.0,0.0,0.0,0.0,0.0,0.0,0.0,0.0,0.0,0.0,0.0,0.0,0.0,0.0,0.0,0.0,0.0,0.0,0.0,0.0,0.0,0.0,0.0,0.0,0.0,0.0,0.0,0.0,0.0,0.0,0.0,0.0,0.0,0.0,0.0,0.0,0.0,0.0,0.0,0.0,0.0,0.0,0.0,0.0,0.0,0.0,0.0,0.0,0.0,0.0,0.0,0.0,0.0,0.0,0.0,0.0,0.0,0.0,0.0,0.0,0.0,0.0,0.0,0.0,0.0,0.0,0.0,0.0,0.0,0.0,0.0,0.0,0.0,0.0,0.0,0.0,0.0,0.0,0.0,0.0,0.0,0.0,0.0,0.0,0.0,0.0,0.0,0.0,0.0,0.0,0.0,0.0,0.0,0.0,0.0,0.0,0.0,0.0,0.0,0.0,0.0,0.0,0.0,0.0,0.0,0.0,0.0,0.0,0.0,0.0,0.0,0.0,0.0,0.0,0.0,0.0,0.0,0.0,0.0,0.0,0.0,0.0,0.0,0.0,0.0,0.0,0.0,0.0,0.0,0.0,0.0,0.0,0.0,0.0,0.0,0.0,0.0,0.0,0.0,0.0,0.0,0.0,0.0,0.0,0.0,0.0,0.0,0.0,0.0,0.0,0.0,0.0,0.0,0.0,0.0,0.0,0.0,0.0,0.0,0.0,0.0,0.0,0.0,0.0,0.0,0.0,0.0,0.0,0.0,0.0,0.0,0.0,0.0,0.0,0.0,0.0,0.0,0.0,0.0,0.0,0.0,0.0,0.0,0.0,0.0,0.0,0.0,0.0,0.0,0.0,0.0,0.0,0.0,0.0,0.0,0.0,0.0,0.0,0.0,0.0,0.0,0.0,0.0,0.0,0.0,0.0,0.0,0.0,0.0,0.0,0.0,0.0,0.0,0.0,0.0,0.0,0.0,0.0,0.0,0.0,0.0,0.0,0.0,0.0,0.0,0.0,0.0,0.0,0.0,0.0,0.0,0.0,0.0,0.0,0.0,0.0,0.0,0.0,0.0,0.0,0.0,0.0,0.0,0.0,0.0,0.0,0.0,0.0,0.0,0.0,0.0,0.0,0.0,0.0,0.0,0.0,0.0,0.0,0.0,0.0,0.0,0.0,0.0,0.0,0.0,0.0,0.0,0.0,0.0,0.0,0.0,0.0,0.0,0.0,0.0,0.0,0.0,0.0,0.0,0.0,0.0,0.0,0.0,0.0,0.0,0.0,0.0,0.0,0.0,0.0,0.0,0.0,0.0,0.0,0.0,0.0,0.0,0.0,0.0,0.0,0.0,0.0,0.0,0.0,0.0,0.0,0.0,0.0,0.0,0.0,0.0,0.0,0.0,0.0,0.0,0.0,0.0,0.0,0.0,0.0,0.0,0.0,0.0,0.0,0.0,0.0,0.0,0.0,0.0,0.0,0.0,0.0,0.0,0.0,0.0,0.0,0.0,0.0,0.0,0.0,0.0,0.0,0.0,0.0,0.0,0.0,0.0,0.0,0.0,0.0,0.0,0.0,0.0,0.0,0.0,0.0,0.0,0.0,0.0,0.0,0.0,0.0,0.0,0.0,0.0,0.0,0.0,0.0,0.0,0.0,0.0,0.0,0.0,0.0,0.0,0.0,0.0,0.0,0.0,0.0,0.0,0.0,0.0,0.0,0.0,0.0,0.0,0.0,0.0,0.0,0.0,0.0,0.0,0.0,0.0,0.0,0.0,0.0,0.0,0.0,0.0,0.0,0.0,0.0,0.0,0.0,0.0,0.0,0.0,0.0,0.0,0.0,0.0,0.0,0.0,0.0,0.0,0.0,0.0,0.0,0.0,0.0,0.0,0.0,0.0,0.0,0.0,0.0,0.0,0.0,0.0,0.0,0.0,0.0,0.0,0.0,0.0,0.0,0.0,0.0,0.0,0.0,0.0,0.0,0.0,0.0,0.0,0.0,0.0,0.0,0.0,0.0,0.0,0.0,0.0,0.0,0.0,0.0,0.0,0.0,0.0,0.0,0.0,0.0,0.0,0.0,0.0,0.0,0.0,0.0,0.0,0.0,0.0,0.0,0.0,0.0,0.0,0.0,0.0,0.0,0.0,0.0,0.0,0.0,0.0,0.0,0.0,0.0,0.0,0.0,0.0,0.0,0.0,0.0,0.0,0.0,0.0,0.0,0.0,0.0,0.0,0.0,0.0,0.0,0.0,0.0,0.0,0.0,0.0,0.0,0.0,0.0,0.0,0.0,0.0,0.0,0.0,0.0,0.0,0.0,0.0,0.0,0.0,0.0,0.0,0.0,0.0,0.0,0.0,0.0,0.0,0.0,0.0,0.0,0.0,0.0,0.0,0.0,0.0,0.0,0.0,0.0,0.0,0.0,0.0,0.0,0.0,0.0,0.0,0.0,0.0,0.0,0.0,0.0,0.0,0.0,0.0,0.0,0.0,0.0,0.0,0.0,0.0,0.0,0.0,0.0,0.0,0.0,0.0,0.0,0.0,0.0,0.0,0.0,0.0,0.0,0.0,0.0,0.0,0.0,0.0,0.0,0.0,0.0,0.0,0.0,0.0,0.0,0.0,0.0,0.0,0.0,0.0,0.0,0.0,0.0,0.0,0.0,0.0,0.0,0.0,0.0,0.0,0.0,0.0,0.0,0.0,0.0,0.0,0.0,0.0,0.0,0.0,0.0,0.0,0.0,0.0,0.0,0.0,0.0,0.0,0.0,0.0,0.0,0.0,0.0,0.0,0.0,0.0,0.0,0.0,0.0,0.0,0.0,0.0,0.0,0.0,0.0,0.0,0.0,0.0,0.0,0.0,0.0,0.0,0.0,0.0,0.0,0.0,0.0,0.0,0.0,0.0,0.0,0.0,0.0,0.0,0.0,0.0,0.0,0.0,0.0,0.0,0.0,0.0,0.0,0.0,2.4771,0.0,0.0,0.0,0.0,0.0,0.0,0.0,0.0,0.0,0.0,0.0,0.0,0.0,0.0,0.0,0.0,0.0,0.0,0.0,0.0,0.0,0.0,0.0,0.0,0.0,0.0,0.0,0.0,0.0,0.0,0.0,0.0,0.0,0.0,0.0,0.0,0.0,0.0,0.0,1.6198,1.6691,1.751,1.6834,1.6427,1.6255,0.0,0.0,0.0,0.0,0.0,0.0,0.0,0.0,0.0,0.0,0.0,0.0,0.0,0.0,0.0,0.0,0.0,0.0,0.0,0.0,0.0,0.0,0.0,0.0,0.0,0.0,0.0,0.0,0.0,0.0,0.0,0.0,0.0,0.0,0.0,0.0,0.0,0.0,0.0,0.0,0.0,0.0,0.0,0.0,0.0,0.0,0.0,0.0,0.0,0.0,0.0,0.0,0.0,0.0,0.0,0.0,0.0,0.0,0.0,0.0,0.0,0.0,0.0,0.0,0.0,0.0,0.0,0.0,0.0,0.0,0.0,2.7115,0.0,0.0,0.0,0.0,0.0,0.0,0.0,0.0,0.0,0.0,0.0,0.0,0.0,0.0,0.0,0.0,0.0,0.0,0.0,0.0,0.0,0.0,0.0,0.0,1.7693,1.8196,1.7841,0.0,0.0,0.0,0.0,0.0,0.0,0.0,0.0,1.6765,1.6603,1.6714,1.7505,1.8273,1.8994,1.9075,1.897,1.8722,1.7119,0.0,0.0,0.0,0.0,0.0,0.0,0.0,0.0,0.0,0.0,0.0,0.0,0.0,0.0,0.0,0.0,0.0,0.0,0.0,0.0,0.0,0.0,0.0,0.0,0.0,0.0,0.0,0.0,0.0,0.0,0.0,0.0,0.0,0.0,0.0,0.0,0.0,0.0,0.0,0.0,0.0,0.0,0.0,0.0,0.0,0.0,0.0,0.0,0.0,0.0,0.0,0.0,0.0,0.0,0.0,0.0,0.0,0.0,0.0,0.0,0.0,0.0,0.0,3.1359,3.2099,3.3365,3.3475,3.3507,3.3359,3.1019,3.0072,3.013,0.0,0.0,0.0,0.0,0.0,0.0,0.0,0.0,0.0,0.0,0.0,0.0,0.0,0.0,0.0,0.0,0.0,0.0,0.0,0.0,0.0,0.0,1.7908,1.7972,1.912,1.8436,1.8459,0.0,0.0,0.0,0.0,0.0,0.0,1.7047,1.6858,1.7032,1.755,1.9933,2.1181,2.1359,2.1956,2.2102,2.1773,1.8641,1.7754,1.857,0.0,0.0,0.0,0.0,0.0,0.0,0.0,0.0,0.0,0.0,0.0,0.0,0.0,0.0,0.0,0.0,0.0,0.0,0.0,0.0,0.0,0.0,0.0,0.0,0.0,0.0,0.0,0.0,0.0,0.0,0.0,0.0,0.0,0.0,0.0,0.0,0.0,0.0,0.0,0.0,0.0,2.5346,2.5944,0.0,0.0,0.0,0.0,0.0,0.0,0.0,0.0,0.0,0.0,0.0,0.0,0.0,3.2195,3.2725,3.3059,3.3304,3.3467,3.4011,3.4298,3.4414,3.5002,3.5338,3.5404,3.5045,0.0,3.2693,3.1553,0.0,0.0,0.0,0.0,0.0,0.0,0.0,0.0,0.0,0.0,0.0,0.0,0.0,0.0,0.0,0.0,0.0,0.0,0.0,0.0,0.0,1.9213,1.9571,1.9971,1.9814,2.0048,2.0892,0.0,0.0,0.0,0.0,1.7888,1.7297,1.7214,1.7792,1.8982,2.0814,2.1891,2.225,2.2389,2.2829,2.334,2.0866,1.9467,1.8945,1.8611,0.0,0.0,0.0,0.0,0.0,0.0,0.0,0.0,0.0,0.0,0.0,0.0,0.0,0.0,0.0,0.0,0.0,0.0,0.0,0.0,0.0,0.0,0.0,0.0,0.0,0.0,0.0,0.0,0.0,0.0,0.0,0.0,0.0,0.0,0.0,0.0,0.0,0.0,0.0,2.5263,2.6437,2.7838,2.7585,2.7815,0.0,0.0,0.0,0.0,0.0,0.0,0.0,0.0,0.0,3.2139,3.3124,3.3744,3.3926,3.4134,3.4201,3.4126,3.4804,3.5108,3.5072,3.5781,3.6185,3.6318,3.6328,3.5892,3.5162,3.4351,3.4424,3.4801,0.0,0.0,0.0,0.0,3.2552,3.35,0.0,0.0,0.0,0.0,0.0,0.0,0.0,0.0,0.0,0.0,0.0,0.0,1.9974,2.0655,2.1246,2.147,2.137,2.1562,2.2203,2.1159,0.0,0.0,1.9328,1.8565,1.7754,1.8135,1.9077,2.0637,2.1876,2.2678,2.3054,2.2801,2.3189,2.4045,2.2677,2.1553,2.0625,1.9964,1.9229,1.8479,0.0,0.0,0.0,0.0,0.0,0.0,0.0,0.0,0.0,0.0,0.0,0.0,0.0,0.0,0.0,0.0,0.0,0.0,0.0,0.0,0.0,0.0,0.0,0.0,0.0,0.0,0.0,0.0,0.0,0.0,0.0,0.0,0.0,0.0,0.0,0.0,0.0,2.6575,2.7675,2.91,2.8708,2.9044,0.0,0.0,0.0,0.0,0.0,0.0,3.1826,3.2764,3.3307,3.3348,3.4226,3.4643,3.4546,3.4546,3.4521,3.4464,3.538,3.5822,3.5829,3.6744,3.7232,3.7364,3.7373,3.7435,3.7454,3.6596,3.6424,3.6577,3.539,3.5059,3.5144,3.5103,3.5742,3.6835,0.0,0.0,0.0,0.0,0.0,0.0,0.0,0.0,0.0,0.0,0.0,2.1416,2.2074,2.1969,2.2485,2.4071,2.2876,2.2511,2.3617,2.2627,2.168,2.0971,2.0479,1.9636,1.8366,1.9786,2.1149,2.238,2.3898,2.4533,2.4305,2.4103,2.394,2.3812,2.3528,2.4176,2.5312,2.3069,2.2252,2.2356,2.1885,0.0,0.0,0.0,0.0,0.0,0.0,0.0,0.0,0.0,0.0,0.0,0.0,0.0,0.0,0.0,0.0,0.0,0.0,0.0,0.0,0.0,0.0,0.0,0.0,0.0,0.0,0.0,0.0,0.0,0.0,0.0,0.0,0.0,0.0,0.0,0.0,0.0,0.0,2.8176,2.9602,0.0,0.0,0.0,0.0,3.2949,3.3575,3.4137,3.4688,3.4745,3.4738,3.4617,3.4675,3.4691,3.4691,3.4691,3.4739,3.4892,3.6332,3.6951,3.6856,3.8255,3.8978,3.9156,3.9156,3.9394,3.9563,3.7529,3.6694,3.672,3.6892,3.7186,3.7646,3.8707,3.9434,4.0008,0.0,0.0,0.0,0.0,0.0,0.0,0.0,0.0,0.0,2.1322,2.1871,2.2234,2.2051,2.3118,2.3916,2.4118,2.4072,2.4229,2.4669,2.3355,2.2298,2.173,2.0637,1.998,1.9823,2.1835,2.2867,2.2826,2.4446,2.485,2.4068,2.3866,2.4259,2.5063,2.4371,2.5198,2.6963,2.5143,2.4016,2.3401,2.2712,2.1284,0.0,0.0,0.0,0.0,0.0,0.0,0.0,0.0,0.0,0.0,0.0,0.0,0.0,0.0,0.0,0.0,0.0,0.0,0.0,0.0,0.0,0.0,0.0,0.0,0.0,0.0,0.0,0.0,0.0,0.0,0.0,0.0,0.0,0.0,0.0,0.0,0.0,2.9899,3.0637,0.0,3.3232,3.3131,3.3502,3.4778,3.4912,3.5031,3.5195,3.5182,3.5152,3.5105,3.5105,3.5105,3.5105,3.5105,3.5135,3.5234,3.6757,3.7484,3.7526,3.9118,3.9884,3.9935,4.0079,4.0262,4.0424,3.9649,3.9118,3.8762,3.8762,3.9101,3.9634,4.0219,4.0763,4.1258,0.0,0.0,0.0,0.0,0.0,0.0,0.0,0.0,2.2085,2.1929,2.2942,2.3519,2.3059,2.4524,2.5371,2.4945,2.509,2.5224,2.5262,2.4035,2.3169,2.2887,2.1858,2.1562,2.2146,2.3586,2.4134,2.3713,2.4753,2.4882,2.4128,2.3935,2.4498,2.5659,2.5225,2.5884,2.7206,2.6435,2.5733,2.5058,2.4249,2.3158,2.1833,0.0,0.0,0.0,0.0,0.0,0.0,0.0,0.0,0.0,0.0,0.0,0.0,0.0,0.0,0.0,0.0,0.0,0.0,0.0,0.0,0.0,0.0,0.0,0.0,0.0,0.0,0.0,0.0,0.0,0.0,0.0,0.0,0.0,0.0,0.0,3.0836,3.1216,3.2038,3.3167,3.4733,3.4532,3.4722,3.5722,3.5538,3.5379,3.5373,3.5321,3.5291,3.5291,3.5111,3.5135,3.5389,3.5228,3.5304,3.5622,3.7144,3.7902,3.8007,3.9664,4.0419,4.0468,4.0652,4.0802,4.0919,4.0919,4.07,4.0262,3.9632,3.9648,4.0079,3.9823,4.0112,4.0683,0.0,0.0,0.0,0.0,0.0,0.0,0.0,2.3045,2.281,2.2764,2.4192,2.5235,2.5249,2.6214,2.683,2.6757,2.594,2.5437,2.543,2.4715,2.43,2.4339,2.4169,2.4433,2.5151,2.4983,2.4971,2.5119,2.4935,2.4766,2.4621,2.442,2.4709,2.5456,2.6054,2.6293,2.6311,2.7036,2.7433,2.747,2.6687,2.6038,2.538,0.0,0.0,0.0,0.0,0.0,0.0,0.0,0.0,0.0,0.0,0.0,0.0,0.0,0.0,0.0,0.0,0.0,0.0,0.0,0.0,0.0,0.0,0.0,0.0,0.0,0.0,0.0,0.0,0.0,0.0,0.0,0.0,0.0,2.9561,3.1402,3.2612,3.1938,3.3751,3.5112,3.5232,3.5046,3.5185,3.5766,3.5577,3.5396,3.5337,3.5314,3.5314,3.5291,3.4811,3.4866,3.5577,3.5091,3.523,3.6036,3.7462,3.8179,3.8288,3.9877,4.0666,4.0849,4.099,4.1123,4.1255,4.1255,4.1255,4.1076,3.9418,3.896,3.9044,3.7883,3.7814,3.8573,0.0,0.0,0.0,0.0,0.0,0.0,0.0,2.3638,2.3672,2.4229,2.5085,2.5858,2.6441,2.7299,2.7805,2.779,2.6989,2.6333,2.6006,2.4697,2.3695,2.3113,2.4973,2.557,2.4563,2.6187,2.6486,2.5322,2.5803,2.5692,2.5034,2.4821,2.5136,2.5877,2.6575,2.7177,2.7704,2.8481,2.8754,2.8488,2.6634,2.5787,2.5551,0.0,0.0,0.0,0.0,0.0,0.0,0.0,0.0,0.0,0.0,0.0,0.0,0.0,0.0,0.0,0.0,0.0,0.0,0.0,0.0,0.0,0.0,0.0,0.0,0.0,0.0,0.0,0.0,0.0,0.0,0.0,0.0,3.1776,3.0704,3.2471,3.3771,3.3425,3.4981,3.607,3.599,3.6028,3.609,3.6174,3.6041,3.5971,3.5949,3.5861,3.5622,3.5241,3.547,3.5492,3.5316,3.5543,3.5854,3.6233,3.6735,3.7672,3.9011,3.9662,4.0595,4.1749,4.1878,4.2002,4.2068,4.2068,4.2127,4.2113,4.1173,4.0866,4.0971,4.0933,4.1121,4.1507,0.0,0.0,0.0,0.0,0.0,0.0,0.0,2.4155,2.4293,2.5169,2.6007,2.6698,2.7198,2.8139,2.8607,2.8232,2.7735,2.713,2.6378,2.5473,2.4821,2.45,2.674,2.7163,2.5425,2.7125,2.7191,2.5483,2.5886,2.5812,2.5321,2.5149,2.5485,2.6272,2.6638,2.7039,2.7509,2.8291,2.8558,2.8352,2.7251,2.688,2.6879,2.6055,2.5492,2.506,2.4772,2.4718,2.4755,2.4496,0.0,0.0,0.0,0.0,0.0,0.0,0.0,0.0,0.0,0.0,0.0,0.0,0.0,0.0,0.0,0.0,0.0,0.0,0.0,0.0,0.0,0.0,0.0,0.0,3.2939,3.3432,3.2887,3.41,3.4998,3.4884,3.5983,3.669,3.6527,3.6564,3.6502,3.6322,3.6251,3.6208,3.6251,3.6144,3.5827,3.5299,3.5616,3.5661,3.5368,3.5749,3.6118,3.6527,3.7331,3.8356,3.9552,4.0426,4.1375,0.0,4.2472,4.2552,4.2571,4.2632,4.2691,0.0,0.0,0.0,0.0,0.0,4.1453,4.2093,0.0,0.0,0.0,0.0,0.0,0.0,0.0,2.4586,2.4798,2.5732,2.6837,2.7595,2.7746,2.8887,2.929,2.8378,2.8301,2.7805,2.6649,2.6649,2.6829,2.7134,2.8728,2.8736,2.6942,2.766,2.7248,2.5606,2.5545,2.5511,2.5509,2.5385,2.5754,2.6484,2.6455,2.65,2.6632,2.7454,2.7808,2.7879,2.84,2.8698,2.8734,2.7983,2.758,2.7308,2.6507,2.6224,2.612,2.5639,0.0,0.0,0.0,0.0,0.0,0.0,0.0,0.0,0.0,0.0,0.0,0.0,0.0,0.0,0.0,0.0,0.0,0.0,0.0,0.0,0.0,0.0,0.0,0.0,3.4288,3.5013,3.5398,3.5954,3.6236,3.6111,3.6708,3.705,3.6851,3.6768,3.6643,3.6364,3.6276,3.6272,3.6343,0.0,0.0,0.0,0.0,3.5649,3.5683,3.5851,3.6253,3.6869,3.8383,3.9365,3.9911,4.1425,4.2316,4.2688,4.2881,4.2919,4.2879,4.2995,4.3069,4.2904,4.1339,4.0807,4.0836,3.9992,4.0472,4.1595,0.0,0.0,0.0,0.0,0.0,0.0,0.0,2.4937,2.5203,2.6092,2.709,2.7994,2.8668,2.9776,3.0055,2.9023,2.8933,2.8396,2.7151,2.7123,2.7271,2.7485,2.8793,2.8691,2.6931,2.707,2.664,2.5605,2.5584,2.5581,2.5579,2.5547,2.5632,2.5821,2.6447,2.7075,2.7754,2.8616,2.9315,2.9836,2.9907,2.9737,2.9398,2.9013,2.8809,2.8684,2.8366,2.8167,2.8061,2.7838,2.769,2.7603,2.78,2.7833,0.0,0.0,0.0,0.0,0.0,0.0,0.0,0.0,0.0,0.0,0.0,0.0,0.0,0.0,0.0,0.0,0.0,0.0,0.0,3.3717,3.4685,3.5623,3.6338,3.7075,3.7202,3.6219,3.6782,3.7203,3.705,3.697,3.6888,3.671,3.6643,3.662,3.6623,3.6602,3.6419,3.5989,3.6301,3.6346,3.6092,3.6539,3.6913,3.7201,0.0,0.0,4.0292,4.0306,4.1321,4.3105,4.3304,4.3322,4.3214,4.3357,4.341,4.3356,4.2905,4.2814,4.2922,4.274,4.2848,4.3117,0.0,0.0,0.0,0.0,0.0,0.0,0.0,2.5226,2.551,2.6384,2.6973,2.7623,2.8468,2.9058,2.9171,2.8605,2.8396,2.8295,2.8255,2.8139,2.8171,2.8446,2.9475,2.9045,2.6909,2.7273,2.6851,2.5545,2.5556,2.5542,2.5541,2.5554,2.5579,2.5639,2.6443,2.7031,2.7524,2.8805,2.9557,2.9929,3.0268,3.026,3.0063,3.0165,2.987,2.9425,2.9624,2.9377,2.892,2.8688,2.8753,2.8959,2.9035,2.9287,2.9489,0.0,0.0,0.0,0.0,0.0,0.0,0.0,0.0,0.0,0.0,0.0,0.0,0.0,0.0,3.2032,3.2804,0.0,3.3784,3.4323,3.5357,3.626,3.6723,3.7479,3.7718,3.6988,3.7235,3.7373,3.7222,3.7106,3.695,3.6667,3.6768,3.6788,3.6667,3.6809,3.6713,3.6253,3.6756,3.6818,3.635,3.7017,3.7449,3.7649,3.8365,3.9428,4.0774,4.1412,4.232,4.3409,4.3599,4.3615,4.346,4.3664,4.3814,4.3878,4.383,4.3765,4.3701,4.3701,4.38,4.3929,0.0,0.0,0.0,0.0,0.0,0.0,0.0,0.0,2.5696,2.6385,2.6671,2.7069,2.7773,2.8007,2.8064,2.7951,2.7522,2.7829,2.914,2.8979,2.9022,2.9485,2.999,2.9311,2.7245,2.7725,2.7228,2.5667,2.568,2.5592,2.547,2.546,2.5495,2.5595,2.6242,2.6763,2.7224,2.8574,2.9348,2.9709,3.0308,3.0556,3.0593,3.113,3.0807,3.0129,3.0744,3.0465,2.977,2.9528,2.9849,3.0314,3.0188,3.0664,3.1227,3.107,3.1138,0.0,0.0,0.0,0.0,0.0,0.0,0.0,0.0,3.2556,3.255,3.3277,3.2951,3.2771,3.357,3.4026,3.4395,3.4816,3.5685,3.6468,3.6872,3.7502,3.7888,3.7809,3.7721,3.7594,3.7391,3.728,3.7089,3.6731,3.697,3.7029,3.6814,3.705,3.7034,3.6666,3.7169,3.7245,3.679,3.745,3.788,3.8104,3.9794,4.078,4.1179,4.276,4.3548,4.3664,4.3862,4.3862,4.3763,4.3974,4.4162,4.43,4.4314,4.4211,4.4008,4.4008,4.4131,4.4314,0.0,0.0,0.0,0.0,0.0,0.0,0.0,0.0,0.0,2.5716,2.6349,2.6834,2.6933,2.7649,2.8008,2.774,2.6945,2.7146,2.8831,2.8979,2.933,3.015,2.9475,2.8954,2.8679,2.7941,2.7148,2.6292,2.6303,2.5967,2.5329,2.5316,2.5356,2.5434,2.5584,2.6502,2.7987,2.8175,2.9131,3.0565,3.0704,3.0724,3.0761,3.1534,3.1606,3.1391,3.2057,3.2004,3.1621,3.1708,3.1474,3.1182,3.1353,3.142,3.1409,3.1164,3.1843,3.2607,3.2233,3.2844,3.352,3.324,3.3931,3.4604,0.0,3.4415,3.4631,3.4608,3.4128,3.3718,3.3788,3.3785,3.4012,3.4699,3.4869,3.5426,3.6874,3.7146,3.7473,3.815,3.8021,3.781,3.7667,3.7649,3.7595,3.7485,3.7503,3.7522,3.7485,3.7522,3.7558,3.7559,3.7631,3.7703,3.7844,3.7983,3.817,3.8385,3.9595,4.0532,4.1222,4.2497,4.336,4.3881,4.4036,4.4143,4.4207,4.4237,4.4285,4.43,4.4373,4.4416,4.443,4.4368,4.4354,4.4397,0.0,0.0,0.0,0.0,0.0,0.0,0.0,0.0,0.0,0.0,2.6323,2.6661,2.6163,2.6395,2.6525,2.6363,2.689,2.7496,2.8103,2.9072,2.9727,2.9942,2.9582,2.9106,2.8556,2.8195,2.7634,2.6873,2.6873,2.6716,2.6408,2.6402,2.6441,2.6536,2.7119,2.7832,2.8665,2.9255,2.9959,3.0701,3.0721,3.0758,3.0848,3.1651,3.1881,3.1874,3.2462,3.2546,0.0,3.2259,3.2338,3.2437,3.1935,3.2402,3.3023,3.2434,3.2938,3.3605,3.3353,3.365,3.4083,3.4339,3.4766,3.5234,3.5634,3.5878,3.595,3.5874,3.5242,3.4658,3.4477,3.3907,3.3607,3.4029,3.4334,3.4833,3.5705,3.6583,3.728,3.7608,3.7865,3.7984,3.788,3.7667,3.7468,3.7376,3.7631,3.7649,3.7376,3.765,3.7863,3.788,3.7984,3.8087,3.8154,3.8188,3.8385,3.8716,4.0075,4.1036,4.1649,4.3102,4.3915,4.4192,4.4222,4.4325,4.4468,4.443,4.4454,4.4537,4.4565,4.4592,4.4605,4.4537,4.4537,4.4578,0.0,0.0,0.0,0.0,0.0,0.0,0.0,0.0,0.0,0.0,2.6543,2.6765,2.6365,2.6067,2.5876,2.5812,2.7133,2.7912,2.7748,2.9174,2.9907,2.9685,2.9523,2.9101,2.8427,2.8437,2.8073,2.7279,2.7279,2.7167,2.6961,2.7015,2.7058,2.7142,2.7891,2.8467,2.8887,2.9692,3.0265,3.0611,3.0679,3.0734,3.0859,3.1452,3.1962,3.2457,3.3059,3.3172,3.3065,3.3145,3.3457,3.3673,3.296,3.3535,3.4353,3.375,3.3953,3.4386,3.4523,3.4579,3.4796,3.5497,3.586,3.6215,3.6918,3.708,3.7017,3.6742,3.5959,3.5267,3.5055,3.4369,3.384,3.3943,3.4273,3.4591,3.4863,3.5808,3.6659,3.7127,3.7466,3.7658,3.7743,3.7666,3.7577,3.7505,3.7845,3.788,3.7542,3.7896,3.8119,3.8119,3.8271,3.8354,3.8354,3.8387,3.8578,3.8939,4.0314,4.1301,4.1948,4.3605,4.4397,4.4482,4.4397,4.4487,4.4619,4.4584,4.4605,4.4712,4.4725,4.4738,4.4719,4.468,4.4712,4.4738,0.0,0.0,0.0,0.0,0.0,0.0,0.0,0.0,0.0,0.0,0.0,0.0,0.0,2.7358,2.686,2.6852,2.7675,2.8168,2.8099,2.9174,2.975,2.9604,2.9039,2.8718,2.87,2.8628,2.8221,2.7485,2.7485,2.7096,2.6326,2.6534,2.6618,2.6631,2.6906,2.756,2.8447,2.8724,2.9442,3.0427,3.063,3.0747,3.0806,3.082,3.189,3.3442,3.4182,3.4231,3.4103,3.5078,3.5124,3.4775,3.4868,3.4888,3.486,3.4774,3.4756,3.4945,3.5728,3.5945,3.609,3.6693,3.748,3.8103,3.8072,3.8059,3.7841,3.7044,3.6143,3.5454,3.5295,3.5214,3.5078,3.4879,3.4812,3.4816,3.4887,3.4768,3.5314,3.6999,3.6762,3.6627,0.0,3.77,3.8136,3.8256,3.8336,3.8382,3.8366,3.8382,3.8382,3.8382,3.8462,3.8476,3.8476,3.8609,3.8795,3.9011,3.9968,4.0938,4.1948,4.3704,4.4565,4.4699,4.4619,4.4632,4.4699,4.468,4.4699,4.4712,4.4757,4.4815,4.4796,4.4858,4.4846,4.4815,0.0,0.0,0.0,0.0,0.0,0.0,0.0,0.0,0.0,0.0,0.0,0.0,0.0,0.0,0.0,0.0,2.8591,2.9,2.8844,2.9647,3.0031,2.9799,2.9565,2.9383,2.9297,2.9015,2.8712,2.8434,2.8068,2.7808,2.7625,2.7705,2.7798,2.7928,2.8114,2.8476,2.8939,2.9269,2.9715,3.0229,3.0414,3.0938,3.1601,3.1643,3.2732,3.4373,0.0,3.5346,3.5258,3.6074,3.5836,3.509,3.4464,3.4655,3.5204,3.572,3.5799,3.5904,3.6748,3.6933,3.7036,3.7785,3.8176,3.8526,3.9036,3.9089,3.8952,3.8671,3.7412,3.6322,3.6133,3.561,3.4962,3.422,3.4526,3.4704,3.4243,3.453,3.5016,3.567,3.6448,0.0,0.0,0.0,0.0,3.7377,3.7896,3.8236,3.8338,3.8499,3.8611,3.8611,3.8652,3.8667,3.8624,3.8593,3.8743,3.9078,4.0779,4.2076,4.3006,4.4163,4.4712,4.4699,4.4685,4.4693,4.4757,4.4725,4.4745,4.4783,4.4209,4.4367,4.4801,4.4295,4.4428,4.4858,0.0,0.0,0.0,0.0,0.0,0.0,0.0,0.0,0.0,0.0,0.0,0.0,0.0,0.0,0.0,0.0,0.0,2.9451,2.9326,2.9855,3.0108,2.9915,2.9969,2.9827,2.942,2.9431,2.9241,2.8851,2.8511,2.8368,2.8409,2.8357,2.8409,2.8525,2.862,2.8815,2.9097,2.9745,3.0213,3.056,3.1097,3.196,3.2944,3.3003,3.4105,0.0,3.6618,3.6843,3.6754,3.686,3.6281,3.5431,3.5033,3.5246,3.5829,3.6741,3.6687,3.6602,3.78,3.8004,3.8085,3.8853,3.9039,3.9161,3.9634,3.9658,3.9524,3.9211,3.822,3.7368,3.7217,3.6413,3.556,3.4905,3.4867,3.4637,3.3944,3.4165,3.4643,3.5271,3.614,3.6705,0.0,0.0,0.0,3.7173,3.7831,3.8318,3.8467,3.8643,3.8735,3.8735,3.8747,3.875,3.8707,3.8609,3.8755,3.9161,4.0942,4.2258,4.3108,4.3977,4.4518,4.4757,4.4751,4.477,4.4802,4.4481,4.4405,4.4383,4.3521,4.3703,4.4402,4.3914,4.4249,4.4931,0.0,0.0,0.0,0.0,0.0,0.0,0.0,0.0,0.0,0.0,0.0,0.0,0.0,0.0,0.0,0.0,0.0,0.0,2.957,2.9854,3.0002,2.995,3.0236,3.0044,2.9255,2.9887,2.9798,2.8904,2.8867,2.8761,2.8591,2.8471,2.8412,2.8427,2.8419,2.8587,2.8955,3.0075,3.0866,3.1458,3.2429,3.3568,3.4678,3.4749,3.5871,3.7543,3.8376,3.8659,3.8517,3.7564,3.658,3.5855,3.6446,3.6577,3.6728,3.7782,3.7452,3.7103,3.8793,3.9155,3.9211,3.9849,4.0007,3.9975,3.9859,3.9807,3.9588,3.8768,3.8561,3.8512,3.8433,3.7584,3.687,3.6752,3.5766,3.4734,3.401,3.3707,3.4171,3.576,3.5908,3.622,3.7085,0.0,0.0,3.7636,0.0,3.8588,3.8758,3.8807,3.8822,3.8822,3.875,3.8723,3.8723,3.8719,3.891,3.9242,4.0508,4.1517,4.2286,4.3182,4.407,4.4838,4.4814,4.4814,4.4781,4.4004,4.3682,4.3549,4.2678,4.2867,4.3656,4.3726,4.4224,4.4877,0.0,0.0,0.0,0.0,0.0,0.0,0.0,0.0,0.0,0.0,0.0,0.0,0.0,0.0,0.0,0.0,0.0,0.0,3.0408,3.0468,3.0486,3.0414,3.0466,3.065,3.1037,3.072,3.045,3.0222,2.9809,2.9296,2.8676,2.8541,2.8529,2.8633,2.8688,2.9178,2.9998,2.9883,3.0787,3.2252,3.2013,3.3355,3.5502,3.5565,3.7105,3.927,3.9492,3.9549,3.9442,3.914,3.7944,3.6497,3.5978,3.6232,3.6904,3.7821,3.8303,3.8757,3.9818,3.9996,3.9938,4.01,4.0157,4.0148,4.0177,4.012,4.0072,3.9933,3.9353,3.8851,3.8785,3.8435,3.766,3.6234,3.6131,3.5676,3.4044,3.428,3.4802,3.534,3.6431,3.7044,3.6782,3.7823,0.0,0.0,3.825,3.8588,3.8572,3.8818,3.8935,3.8935,3.8939,3.8954,3.9007,3.9192,3.9363,3.9521,4.0646,4.1313,4.1604,4.3073,4.387,4.4113,4.4709,4.4578,4.3985,4.3777,4.3346,4.2728,4.1862,4.2074,4.2878,4.2911,4.3045,4.3395,0.0,0.0,0.0,0.0,0.0,0.0,0.0,0.0,0.0,0.0,0.0,0.0,0.0,0.0,0.0,0.0,0.0,0.0,0.0,3.0665,3.063,3.0554,3.0832,3.1201,3.1684,3.1592,3.1538,3.1529,3.0845,3.0251,2.9747,2.9167,2.895,2.9055,2.8968,2.9349,3.0055,3.0198,3.1203,0.0,0.0,3.4231,3.6382,3.6455,3.7879,3.9869,3.9899,4.0097,4.03,3.9858,3.8937,3.792,3.7373,3.7485,3.8007,3.8967,3.9198,3.9361,4.0254,4.0389,4.0203,3.9803,3.9727,3.9641,3.9272,3.948,3.9747,3.9802,3.9738,3.9653,3.9613,3.8755,3.7723,3.6623,3.5958,3.531,3.4605,3.4865,3.5423,3.6196,3.71,3.7626,3.76,3.8327,3.8645,0.0,3.8611,3.8789,3.8851,3.9082,3.9224,3.9224,3.917,3.917,3.9219,3.9502,3.9647,3.9701,4.0393,4.0916,4.1326,4.227,4.2897,4.3244,0.0,4.3631,4.3183,4.2803,4.237,4.189,4.1043,4.1254,4.2028,4.206,4.2546,4.3308,0.0,0.0,0.0,0.0,0.0,0.0,0.0,0.0,0.0,0.0,0.0,0.0,0.0,0.0,0.0,0.0,0.0,0.0,0.0,0.0,3.052,3.0341,3.1037,3.152,3.1705,3.2194,3.2465,3.2474,3.171,3.1211,3.0958,2.9952,2.9522,2.9575,2.9457,2.957,2.9934,3.092,3.1986,3.3082,3.3968,3.5527,3.7296,0.0,3.8459,3.9974,4.0034,4.0507,4.0964,4.0149,3.9673,3.9406,3.929,3.9198,3.9327,4.0243,3.9947,3.9484,4.0349,4.0423,4.006,3.9292,3.9029,3.8755,3.8016,3.85,3.9185,3.9319,4.0077,4.0777,4.0879,3.9317,3.7965,3.7813,3.6072,3.4921,3.5509,3.5636,3.6162,3.7558,3.7816,3.8149,3.8865,3.8979,3.9021,3.9045,3.9073,3.9149,3.9311,3.9439,3.9526,3.9539,3.9439,3.9414,3.9464,3.9705,3.9837,3.9837,4.0026,4.0466,4.1146,4.1252,4.1689,4.2343,0.0,0.0,4.2156,4.1571,4.1172,4.0895,4.0346,4.0566,4.1194,4.1388,4.2352,4.3649,0.0,0.0,0.0,0.0,0.0,0.0,0.0,0.0,0.0,0.0,2.5386,2.6619,0.0,0.0,0.0,0.0,0.0,0.0,0.0,0.0,0.0,2.9453,3.0183,3.0951,3.1686,3.1679,3.1721,3.1776,3.1562,3.108,3.0338,3.0109,2.9975,3.002,3.0696,3.109,3.1327,3.2264,3.3232,3.4137,3.4381,3.5982,3.8261,3.8322,0.0,0.0,4.0895,4.0976,4.1074,4.0854,4.0244,3.9423,3.8648,3.8833,3.9383,3.9579,3.9962,4.0373,4.0557,4.0057,3.9438,3.9226,3.8649,3.81,3.8063,3.8717,3.9571,4.0412,4.1334,4.2194,4.2859,4.2017,4.0891,3.9961,3.8736,3.7612,3.6766,3.7124,3.7524,3.7766,3.8368,3.8859,3.9059,3.9073,0.0,0.0,0.0,3.9458,3.9376,3.9502,3.9611,3.967,3.9751,3.9796,3.9807,3.9965,4.0046,4.0046,4.0077,4.0183,4.0324,4.1061,4.1431,4.1561,4.2337,0.0,4.0261,4.1127,4.0528,3.915,4.0005,4.0431,4.0641,4.1387,4.1837,4.2268,0.0,0.0,0.0,0.0,0.0,0.0,0.0,2.2252,2.2239,2.2965,2.3246,2.4231,2.6491,2.6832,2.7226,0.0,0.0,0.0,0.0,0.0,0.0,0.0,0.0,0.0,3.1778,3.1676,3.1853,3.2377,0.0,3.1432,3.103,3.0541,3.033,3.0395,3.1265,3.1452,3.122,3.2573,3.342,3.3866,3.4354,3.5598,3.7201,0.0,0.0,0.0,4.0932,4.1091,4.1093,4.1068,4.1031,4.0838,3.982,4.0089,4.0818,4.0806,4.0751,4.0707,4.0707,3.9695,3.851,3.8024,3.7575,3.7317,3.7437,3.8147,3.9199,4.0641,4.1347,4.207,4.3322,4.2339,4.1122,4.0546,3.9522,3.8528,3.7792,3.7962,3.8253,3.8456,3.8901,3.9183,3.9115,3.9151,3.9272,3.9439,0.0,3.9611,3.9658,3.9826,3.9892,3.9859,3.9986,4.0038,3.9996,4.0137,4.0195,4.0157,4.0195,4.0195,4.0176,4.0586,4.0748,4.0747,4.1196,0.0,4.0046,4.0635,4.0339,3.9547,4.0127,4.0354,4.0394,4.0815,4.1523,4.2384,0.0,0.0,0.0,0.0,0.0,0.0,0.0,2.1102,2.121,2.1909,2.1588,2.2172,2.4515,2.5093,2.5657,0.0,0.0,0.0,0.0,0.0,0.0,0.0,0.0,0.0,0.0,0.0,0.0,3.2594,3.19,0.0,0.0,0.0,0.0,0.0,3.1529,3.1573,3.1103,3.2843,3.3587,0.0,0.0,3.542,0.0,0.0,0.0,0.0,0.0,4.0834,4.0876,4.1035,4.1636,4.2139,4.1089,4.1517,4.2365,4.2177,4.149,4.0762,4.0563,3.9158,3.7576,3.6887,3.657,3.6528,3.6833,3.7725,3.9027,4.0899,4.148,4.2108,4.3595,4.2347,4.1033,4.0956,4.0011,3.9146,3.8814,3.8758,3.8855,3.9136,3.933,3.9363,3.9178,3.9272,0.0,3.9587,0.0,0.0,3.9946,4.0128,4.0176,4.0067,4.0166,4.0186,4.0147,4.0244,4.0263,4.0215,4.0253,4.0253,4.0196,4.0196,4.0196,4.0196,4.0225,0.0,0.0,4.0213,4.0166,3.9986,4.0232,4.0451,4.0587,4.0395,4.1504,4.3072,0.0,0.0,0.0,0.0,0.0,0.0,0.0,2.0619,2.0325,2.0955,2.113,2.1616,2.2642,2.3702,2.4727,0.0,0.0,0.0,0.0,0.0,0.0,0.0,0.0,0.0,0.0,0.0,0.0,3.0927,3.0837,0.0,0.0,0.0,0.0,0.0,0.0,3.1973,3.2088,3.3769,0.0,0.0,0.0,0.0,0.0,0.0,0.0,0.0,0.0,4.0008,4.0126,4.0854,4.1675,4.2224,4.1266,4.2084,4.3222,4.2417,4.1529,4.0621,3.9831,3.828,3.6897,3.6812,3.6208,3.5843,3.669,3.8222,3.9994,4.1814,4.2859,4.3727,4.462,4.3395,4.2205,4.2074,4.1209,4.041,4.0003,3.9948,3.9792,3.9419,3.9502,3.9526,3.9376,3.9439,3.9495,3.9587,0.0,0.0,4.0157,4.0253,4.0291,4.0263,4.0272,4.0291,4.0291,4.0301,4.0301,4.0301,4.0244,4.0206,4.0196,4.0196,4.0196,4.0196,4.0263,0.0,0.0,3.99,3.9738,3.8956,3.9983,4.0858,4.148,4.0686,4.195,4.3943,0.0,0.0,0.0,0.0,0.0,0.0,2.0544,2.0241,2.0423,2.1594,2.0996,2.1188,2.3082,2.3354,2.3817,2.4769,0.0,0.0,0.0,0.0,0.0,0.0,0.0,0.0,0.0,0.0,3.042,2.9914,3.04,0.0,0.0,0.0,0.0,0.0,0.0,3.1601,3.1283,3.3608,0.0,0.0,0.0,0.0,0.0,0.0,0.0,0.0,0.0,0.0,3.9275,4.064,4.1322,4.1633,4.1749,4.2591,4.3397,4.2516,4.1255,4.0054,3.9672,3.7859,3.6079,3.6086,3.5816,3.5944,3.7463,3.8739,4.0278,4.2655,4.3026,4.3335,4.4706,4.3528,4.2297,4.2165,4.1737,4.1125,4.0281,4.0165,4.0052,3.9743,3.9854,3.9865,0.0,0.0,3.9762,0.0,0.0,0.0,4.0253,4.0291,4.0272,4.0244,4.0272,4.0272,4.0244,4.0272,4.0272,4.0244,4.0206,4.0196,4.0196,4.0157,4.0147,4.0147,4.0166,0.0,0.0,3.9785,3.9585,3.8693,3.9834,4.0806,4.1484,4.0652,4.1953,4.4011,0.0,0.0,0.0,0.0,0.0,2.0295,2.0181,2.0097,2.0522,2.185,2.1081,2.1197,2.3247,2.3338,2.3527,2.4216,2.4849,0.0,0.0,0.0,0.0,0.0,0.0,0.0,0.0,0.0,2.994,2.9335,2.9929,2.9935,0.0,0.0,3.0549,3.0597,0.0,0.0,0.0,0.0,0.0,0.0,0.0,0.0,0.0,0.0,0.0,0.0,0.0,0.0,0.0,0.0,0.0,4.1141,4.1466,4.2332,4.3114,4.2461,4.121,3.9992,3.968,3.8037,3.6397,3.6362,3.6572,3.7199,3.8783,3.9986,4.1405,4.3627,4.3593,4.3548,4.4773,4.3535,4.2275,4.212,4.1796,4.1234,4.0359,4.0227,4.0166,4.0014,0.0,4.0005,0.0,3.9505,3.9566,0.0,0.0,0.0,4.0263,4.0301,4.0291,4.0234,4.0291,4.0291,4.0234,4.0253,4.0253,4.0234,4.0206,4.0215,4.0225,4.0177,3.9965,3.9647,0.0,0.0,0.0,3.9908,3.9966,3.9071,4.0454,4.1523,4.2193,4.137,4.2518,4.4365,0.0,0.0,0.0,0.0,0.0,0.0,2.0303,2.0242,2.0485,2.1297,2.1404,2.1721,2.2616,2.3527,2.4115,2.4182,2.4264,0.0,0.0,0.0,0.0,0.0,0.0,0.0,0.0,0.0,2.9148,2.9202,2.9279,2.934,2.9417,3.0215,3.0565,3.0496,0.0,0.0,0.0,0.0,0.0,0.0,0.0,0.0,0.0,0.0,0.0,0.0,0.0,0.0,0.0,0.0,0.0,0.0,0.0,4.1025,4.2376,4.2236,4.1574,4.0705,3.9826,3.8954,3.8259,3.8182,3.8864,3.9782,4.0664,4.2263,4.3839,4.4788,4.4988,4.4983,4.5001,4.3571,4.2338,4.213,4.1313,4.0612,4.033,4.0302,4.0267,4.0215,4.0195,3.9853,3.8993,3.8794,3.8744,0.0,0.0,0.0,4.0196,4.0263,4.0301,4.0301,4.0301,4.0301,4.0301,4.0225,4.0225,4.0301,4.0234,4.0234,4.0307,4.0307,3.9652,0.0,0.0,0.0,0.0,4.0339,4.1017,4.0183,4.2125,4.3406,4.4077,4.3195,4.3952,4.5276,0.0,0.0,0.0,0.0,0.0,0.0,0.0,2.1773,2.2432,2.3332,2.2884,2.3053,2.4526,2.4379,2.4187,2.4202,2.4815,0.0,0.0,0.0,0.0,0.0,0.0,0.0,0.0,0.0,2.9657,2.8989,2.9666,2.9703,2.9207,3.002,3.0378,3.0356,3.0342,3.0465,0.0,0.0,0.0,0.0,0.0,0.0,0.0,0.0,0.0,0.0,0.0,0.0,0.0,0.0,0.0,0.0,0.0,0.0,0.0,4.0688,4.0262,3.9944,3.9676,3.8955,3.8299,3.8261,3.8534,3.9023,3.9939,4.1028,4.2097,4.3038,4.3214,4.3217,4.3219,4.2285,4.1454,4.1237,4.0888,4.0591,4.0457,4.0407,4.0391,4.0412,4.0364,4.0221,0.0,0.0,0.0,0.0,0.0,0.0,4.0263,4.0291,4.0301,4.0301,4.0301,4.0301,4.0299,4.029,4.0299,4.0363,4.0299,4.028,4.0307,4.0252,0.0,0.0,0.0,0.0,0.0,4.029,4.0499,3.9178,4.18,4.3388,4.4096,4.3224,4.4017,4.5425,0.0,0.0,0.0,0.0,0.0,0.0,0.0,2.2676,2.3347,2.4285,2.3867,2.4011,2.5404,2.5043,2.4675,2.4648,2.5198,0.0,0.0,0.0,0.0,0.0,0.0,0.0,0.0,2.9187,2.9103,2.8814,2.9403,2.9494,2.9123,2.992,3.0286,3.0286,3.0585,3.0512,0.0,0.0,0.0,0.0,0.0,0.0,3.5689,0.0,0.0,0.0,0.0,0.0,0.0,0.0,0.0,0.0,0.0,0.0,0.0,0.0,4.016,3.9986,3.9338,3.8986,3.8837,3.8831,3.9343,4.0029,4.06,4.14,4.2187,4.2738,4.2824,4.2829,4.285,4.2109,4.1431,4.1279,4.0898,4.0584,4.0549,4.0438,4.0377,4.0414,0.0,0.0,0.0,0.0,0.0,0.0,0.0,0.0,4.0291,4.03,4.0309,4.0346,4.0309,4.0299,4.0334,4.0316,4.0334,4.0394,4.0334,4.0325,4.0379,4.0325,0.0,0.0,0.0,0.0,0.0,4.1313,4.1581,4.0314,4.2881,4.4255,4.4694,4.4179,4.449,4.5163,0.0,0.0,0.0,0.0,0.0,0.0,0.0,2.3142,2.3495,2.4388,2.4431,2.4668,2.5423,2.5494,2.5476,2.5397,0.0,0.0,0.0,0.0,0.0,0.0,0.0,0.0,2.8874,2.7849,2.7725,2.8613,2.8613,2.8729,2.9031,2.9826,3.0177,3.0152,3.104,3.1027,0.0,0.0,0.0,0.0,0.0,0.0,0.0,0.0,0.0,0.0,0.0,0.0,0.0,0.0,0.0,0.0,0.0,0.0,0.0,0.0,0.0,0.0,0.0,3.9098,3.9799,3.9779,4.1013,4.2209,4.2209,4.2932,0.0,4.3455,4.3417,4.341,4.3411,4.2656,4.1982,4.193,4.1188,4.0608,4.061,4.0429,0.0,0.0,3.9706,0.0,3.9115,0.0,0.0,0.0,0.0,0.0,4.0297,4.0306,4.0342,4.0413,4.0351,4.0351,4.0422,4.0351,4.0349,4.0406,4.0349,4.0377,4.051,4.0499,0.0,0.0,0.0,0.0,0.0,4.2942,4.3643,4.2925,4.4927,4.5703,4.5719,4.5773,4.5253,4.4666,0.0,0.0,0.0,0.0,0.0,0.0,0.0,0.0,0.0,0.0,2.5284,2.5311,2.5559,2.548,2.5397,0.0,0.0,0.0,0.0,0.0,0.0,0.0,0.0,0.0,2.6942,2.7231,2.7486,2.771,2.7714,2.7823,2.805,2.8906,2.9315,2.9421,3.0893,3.2153,0.0,0.0,0.0,0.0,0.0,0.0,0.0,0.0,0.0,0.0,3.7014,3.6938,0.0,0.0,0.0,0.0,0.0,0.0,0.0,0.0,4.0114,3.9924,3.8858,0.0,4.0698,4.0695,4.1039,4.138,0.0,4.2069,4.2509,4.1831,4.2207,4.2438,4.1749,4.1385,4.1174,4.1163,4.0922,4.0738,4.0688,4.0586,0.0,4.046,4.0311,4.0153,4.0072,0.0,0.0,0.0,0.0,4.0347,4.0372,4.0433,4.0457,4.0484,4.05,4.0535,4.055,4.0535,4.0508,4.0481,4.05,4.0519,4.05,4.0542,0.0,0.0,0.0,0.0,4.0248,4.1783,4.2225,4.2213,4.4773,4.5801,4.5847,4.5879,4.5365,4.4787,0.0,0.0,0.0,0.0,0.0,0.0,0.0,0.0,0.0,0.0,0.0,0.0,0.0,0.0,0.0,0.0,0.0,0.0,0.0,0.0,0.0,0.0,0.0,2.597,2.6153,2.6543,2.6976,2.7444,2.7422,2.7518,2.7754,2.8228,2.8679,2.9159,3.0877,3.282,0.0,0.0,0.0,0.0,3.6918,0.0,0.0,0.0,0.0,0.0,3.7793,3.7664,0.0,3.7707,3.8312,3.9173,0.0,0.0,0.0,0.0,4.0429,4.035,3.9873,4.0107,4.0498,4.0502,4.0805,4.1207,4.1609,4.2065,4.2363,4.2265,4.2627,4.2669,4.1763,4.1493,4.1286,4.0904,4.08,4.0718,0.0,0.0,4.0077,4.0407,4.0427,4.0413,0.0,0.0,0.0,0.0,0.0,4.0414,4.0438,4.0477,4.0508,4.0549,4.0639,4.0653,4.0598,4.0598,4.0598,4.0591,4.06,4.0574,4.0549,4.0574,4.1296,0.0,0.0,0.0,4.2285,4.1981,4.2102,4.268,4.4124,4.4985,4.5356,4.4982,4.4563,4.4335,0.0,0.0,0.0,0.0,0.0,0.0,0.0,0.0,0.0,0.0,0.0,0.0,0.0,0.0,0.0,0.0,0.0,0.0,0.0,0.0,0.0,0.0,0.0,2.5258,2.5852,2.5846,2.6253,2.7125,2.705,2.7151,2.738,2.7516,2.8266,2.9575,3.1202,3.3299,0.0,0.0,0.0,0.0,3.7536,0.0,0.0,0.0,0.0,0.0,0.0,0.0,0.0,3.8081,3.8727,3.9607,3.9602,0.0,0.0,0.0,0.0,0.0,4.1108,4.0596,4.007,4.0074,4.0483,4.1129,4.1992,4.2187,4.2399,4.3087,4.3316,4.3131,4.2247,4.1932,4.159,4.0911,4.0746,0.0,4.0559,3.988,3.9653,4.0358,4.0379,0.0,0.0,0.0,0.0,0.0,0.0,4.0469,4.0527,4.0537,4.0574,4.0628,4.0746,4.0752,4.0635,4.0628,4.0654,4.0674,4.0654,4.0621,4.0595,4.0621,4.1498,0.0,0.0,0.0,4.4168,4.2422,4.2348,4.3345,4.354,4.4112,4.4755,4.4065,4.3809,4.3913,0.0,0.0,0.0,0.0,0.0,0.0,0.0,0.0,0.0,0.0,0.0,0.0,0.0,0.0,0.0,0.0,0.0,0.0,0.0,0.0,0.0,2.4929,2.4974,2.5075,2.5228,2.519,2.5241,2.5387,2.5327,2.5367,2.5525,2.6275,2.8291,3.1339,3.2474,3.3969,3.5672,3.5602,3.5653,3.5901,3.7394,0.0,0.0,0.0,0.0,0.0,0.0,0.0,0.0,3.6703,3.7317,3.8705,3.87,0.0,0.0,0.0,0.0,0.0,4.1094,4.1015,4.0898,4.0858,4.0404,4.0202,4.1031,4.1259,4.1337,4.1466,4.2071,4.227,4.1302,4.0994,4.0873,4.0818,0.0,4.0681,0.0,0.0,4.038,4.0623,0.0,0.0,0.0,0.0,0.0,0.0,0.0,4.0662,4.0668,4.0726,4.0752,4.0778,4.079,4.0784,4.0776,4.0771,4.0713,4.0621,4.0713,4.0713,4.0595,4.0713,4.1287,0.0,0.0,4.0687,4.243,4.1321,4.1524,4.2629,4.4109,4.4783,4.4958,4.4829,4.4799,4.4807,0.0,0.0,0.0,0.0,0.0,0.0,0.0,0.0,0.0,0.0,0.0,0.0,0.0,0.0,0.0,0.0,0.0,0.0,0.0,0.0,2.4794,2.4893,2.4862,2.4876,2.4941,2.4942,2.4968,2.5,2.4935,2.5013,2.525,2.6612,2.8656,3.1219,3.2583,3.4143,3.5742,3.5637,3.5859,3.6312,0.0,0.0,0.0,0.0,0.0,0.0,0.0,0.0,0.0,0.0,3.8171,3.858,3.9046,0.0,0.0,0.0,0.0,0.0,4.1109,4.1092,4.1207,4.16,4.1046,4.0606,4.1463,4.162,4.1723,4.2185,4.2604,4.2603,4.1707,4.1495,4.1288,4.0778,0.0,3.9992,4.0469,4.0104,4.0011,0.0,0.0,0.0,0.0,0.0,0.0,0.0,0.0,0.0,4.0748,4.0787,4.0806,4.0806,4.0806,4.0775,4.0757,4.0775,4.0757,4.0649,4.0739,4.072,4.0595,4.07,4.121,4.1899,0.0,4.0444,4.2053,4.0674,4.0996,4.2423,4.3251,4.4143,4.4998,4.5002,4.5006,4.499,0.0,0.0,0.0,0.0,0.0,0.0,0.0,0.0,0.0,0.0,0.0,0.0,0.0,0.0,0.0,0.0,0.0,0.0,0.0,0.0,2.4772,2.4912,2.483,2.479,2.4811,2.4888,2.4942,2.4987,2.5151,2.533,2.5587,2.7205,2.8809,3.0439,3.2335,3.4022,3.5452,3.5563,3.5957,3.6543,0.0,0.0,0.0,0.0,0.0,0.0,0.0,0.0,0.0,0.0,0.0,0.0,0.0,0.0,0.0,4.11,4.1107,4.1133,4.133,4.1215,4.1306,4.2334,4.161,4.092,4.1976,4.179,4.165,4.2534,4.2879,4.2756,4.1932,4.1779,4.1505,4.0682,3.995,3.9703,4.0359,3.9906,3.9785,0.0,0.0,0.0,0.0,0.0,0.0,0.0,0.0,0.0,4.0818,4.0812,4.0782,4.079,4.079,4.0742,4.07,4.0744,4.0724,4.0675,4.0745,4.0701,4.0595,4.0661,4.1067,4.1627,4.0306,4.0678,4.2099,4.0777,4.1201,4.2707,4.2696,4.3519,4.4749,4.5145,4.5187,4.5029,0.0,0.0,0.0,0.0,0.0,0.0,0.0,0.0,0.0,0.0,0.0,0.0,0.0,0.0,0.0,0.0,0.0,0.0,0.0,0.0,2.4973,2.4986,2.498,2.4953,2.4891,2.4967,2.4955,2.4905,2.5772,2.625,2.6339,2.7357,2.8354,2.9423,3.1974,3.3589,3.4458,3.5259,3.5639,3.5749,3.656,0.0,0.0,0.0,0.0,0.0,0.0,0.0,0.0,0.0,0.0,0.0,0.0,0.0,4.1095,4.1098,4.1106,4.1252,4.2013,4.1588,4.132,4.3063,4.1686,4.0306,4.1917,4.0948,3.9941,4.0791,4.1621,4.1893,4.0969,4.0803,4.0713,4.0455,4.0508,4.0589,4.06,0.0,0.0,0.0,0.0,0.0,0.0,0.0,0.0,0.0,0.0,0.0,4.0883,4.0823,4.0765,4.0706,4.0706,4.0707,4.07,4.0641,4.0609,4.0602,4.0688,4.0662,4.0595,4.0661,4.0739,4.0784,4.0732,4.1276,4.219,4.2124,4.2695,4.3604,4.3606,4.3684,4.3997,4.5617,4.5695,4.5129,0.0,0.0,0.0,0.0,0.0,0.0,0.0,0.0,0.0,0.0,0.0,0.0,0.0,0.0,0.0,0.0,0.0,0.0,0.0,2.5095,2.5031,2.4993,2.4954,2.4921,2.4898,2.4915,2.4907,2.4832,2.5274,2.5532,2.5609,2.7106,2.8286,2.9245,3.1906,3.3514,3.4293,3.5201,3.5581,3.5572,3.5996,3.5968,0.0,0.0,0.0,0.0,0.0,0.0,0.0,0.0,3.989,3.9891,4.0445,4.0827,4.1095,4.1095,4.11,4.1281,4.2127,4.2075,4.22,4.3977,4.2844,4.1597,4.2727,4.1921,4.1016,4.1345,4.168,4.1828,4.15,4.0981,4.0561,4.0519,4.0542,4.0569,4.0543,0.0,0.0,0.0,0.0,0.0,0.0,0.0,0.0,0.0,0.0,0.0,0.0,4.0779,4.0724,4.07,4.0694,4.0688,4.0628,4.0707,4.0655,4.0542,4.0621,4.0622,4.0595,4.0661,4.1023,4.1571,4.1646,4.221,4.3085,4.3146,4.3695,4.4563,4.5109,4.5324,4.5402,4.6066,4.6085,4.5851,0.0,0.0,0.0,0.0,0.0,0.0,0.0,0.0,0.0,0.0,0.0,0.0,0.0,0.0,0.0,0.0,0.0,0.0,2.5618,2.5291,2.507,2.5025,2.498,2.4934,2.4893,2.49,2.4884,2.4824,2.5208,2.5563,2.5952,2.7415,2.8434,2.9189,3.1849,3.3487,3.4294,3.5229,3.5602,3.5575,3.5688,3.5732,0.0,0.0,0.0,0.0,0.0,0.0,0.0,0.0,4.0594,4.0309,4.0908,4.1095,4.1145,4.1392,4.1273,4.1347,4.2776,4.2695,4.2638,4.4394,4.3681,4.2762,4.3625,4.2577,4.1496,4.1764,4.1809,4.1821,4.1889,4.1142,0.0,0.0,4.0564,4.0561,0.0,0.0,0.0,0.0,0.0,0.0,0.0,0.0,0.0,0.0,0.0,0.0,0.0,4.0718,4.0687,4.0668,4.0694,4.0662,4.0579,4.0707,4.0694,4.0534,4.0337,4.0364,4.0595,4.0688,4.1085,4.1694,4.1777,4.2344,4.3187,4.3263,4.3801,4.468,4.5558,4.589,4.5929,4.6202,4.63,4.63,0.0,0.0,0.0,0.0,0.0,0.0,0.0,0.0,0.0,0.0,0.0,0.0,0.0,0.0,0.0,0.0,0.0,0.0,2.64,2.5601,2.5125,2.5128,2.512,2.505,2.4927,2.4912,2.4891,2.491,2.5759,2.6704,2.7708,2.8387,2.8798,2.911,3.1725,3.3422,3.4349,3.5296,3.5708,3.5713,3.5778,3.5811,3.5818,0.0,0.0,0.0,0.0,0.0,0.0,0.0,4.0984,4.1092,4.1094,4.1107,4.126,4.2057,4.163,4.1474,4.4083,4.3416,4.2435,4.4243,4.3971,4.3538,4.4461,4.2579,4.0855,4.1711,4.183,4.1812,4.188,4.1193,0.0,4.0512,4.0612,0.0,0.0,0.0,0.0,0.0,0.0,0.0,0.0,0.0,0.0,0.0,0.0,0.0,0.0,4.0694,4.0662,4.0595,4.0661,4.0646,4.0496,4.0626,4.0661,4.0595,3.987,3.9902,4.0621,4.0739,4.079,4.0815,4.0953,4.1516,4.2326,4.2383,4.2923,4.3782,4.4641,4.499,4.5109,4.5968,4.628,4.63,0.0,0.0,0.0,0.0,0.0,0.0,0.0,0.0,0.0,0.0,0.0,0.0,0.0,0.0,0.0,0.0,0.0,0.0,2.721,2.7014,2.6918,2.6867,2.6906,2.6619,2.5977,2.5361,2.5222,2.56,2.5826,2.6351,2.7228,2.8129,2.8627,2.8839,3.1642,3.3056,3.3422,3.5073,3.5747,3.576,3.6499,3.6421,3.595,0.0,0.0,0.0,0.0,0.0,0.0,0.0,0.0,0.0,4.1045,4.1029,4.1205,4.2055,4.1664,4.1404,4.3346,4.2996,4.2347,4.3446,4.3055,4.2613,4.3501,4.2604,4.1667,4.1925,4.148,4.1228,4.1852,4.1266,0.0,4.0588,0.0,0.0,0.0,0.0,0.0,0.0,0.0,0.0,0.0,0.0,0.0,0.0,0.0,0.0,0.0,4.0655,4.0615,0.0,4.0612,4.0631,4.0633,4.0621,4.0648,4.0668,4.0544,4.0601,4.0798,4.0218,4.0686,4.1929,4.1969,4.2481,4.3283,4.331,4.3469,4.3725,4.3977,4.4468,4.5039,4.5286,4.5761,4.6296,0.0,0.0,0.0,0.0,0.0,0.0,0.0,0.0,0.0,0.0,2.9823,0.0,0.0,0.0,0.0,0.0,0.0,0.0,0.0,2.7807,2.7643,2.765,2.7644,2.7229,2.6344,2.5442,2.5279,2.5906,2.6235,2.6664,2.7194,2.8409,2.9063,2.9281,3.1424,3.2802,3.3581,3.4804,3.5495,3.5834,3.643,3.6384,3.6029,0.0,0.0,0.0,0.0,0.0,0.0,0.0,0.0,0.0,4.1053,4.1036,4.1205,4.2052,4.1642,4.1308,4.3033,4.2811,4.223,4.2704,4.2437,4.209,4.2225,4.2415,4.236,4.1628,4.1332,4.1255,4.1426,4.1007,0.0,4.0615,0.0,0.0,0.0,0.0,0.0,0.0,0.0,0.0,0.0,0.0,0.0,0.0,0.0,0.0,0.0,4.0633,4.06,0.0,4.0646,4.0658,4.0653,4.0674,4.07,4.0736,4.0529,4.0617,4.0968,4.0404,4.0799,4.1896,4.2243,4.29,4.3671,4.3322,4.3382,4.3674,4.3322,4.3715,4.4538,4.4863,4.5336,4.5832,0.0,0.0,0.0,0.0,0.0,0.0,0.0,0.0,0.0,0.0,2.9406,2.916,0.0,0.0,0.0,0.0,0.0,0.0,0.0,0.0,2.7845,2.7912,2.779,2.7297,2.6458,2.5513,2.5371,2.6055,2.6887,2.7344,2.7517,2.8998,2.9872,3.0242,3.1181,3.2654,3.4423,3.4549,3.5098,3.5911,3.5985,3.6025,3.6097,3.6904,0.0,0.0,0.0,0.0,0.0,0.0,0.0,0.0,4.1106,4.1106,4.1263,4.2061,4.1594,4.1199,4.2908,4.2761,4.2083,4.2,4.2045,4.1865,4.0936,4.2068,4.2796,4.1065,4.1345,4.1622,4.0752,4.0595,4.0603,0.0,0.0,0.0,0.0,0.0,0.0,0.0,0.0,0.0,0.0,0.0,0.0,0.0,0.0,0.0,0.0,4.0653,0.0,4.0707,4.07,4.0647,4.0506,4.0694,4.0754,0.0,4.0105,4.0266,4.1093,4.095,4.0975,4.1159,4.2027,4.2798,4.3404,4.2688,4.2825,4.3371,4.2589,4.2863,4.38,4.4594,4.4987,4.5226,0.0,0.0,0.0,0.0,0.0,0.0,0.0,0.0,0.0,0.0,0.0,0.0,0.0,0.0,0.0,0.0,0.0,0.0,0.0,0.0,2.958,2.958,2.8862,2.8384,2.8246,2.7312,2.6938,2.7161,2.7194,2.7498,2.8054,2.9175,3.0158,3.0974,3.1412,3.2664,3.4488,3.4568,3.5095,3.5965,3.669,3.6593,3.6096,3.6944,3.7242,0.0,0.0,0.0,0.0,0.0,0.0,0.0,4.1108,4.1092,4.1262,4.2062,4.1656,4.117,4.2194,4.233,4.199,4.1269,4.1621,4.1956,4.1139,4.1723,4.2135,4.1003,4.0959,4.1031,4.0666,4.0648,4.0662,0.0,0.0,0.0,0.0,0.0,0.0,0.0,0.0,0.0,0.0,0.0,0.0,0.0,0.0,0.0,4.0779,4.0804,0.0,4.0776,4.0726,4.0398,3.9741,4.0384,4.043,0.0,4.0435,4.0844,4.1074,4.0389,4.0439,4.1142,4.2013,4.2114,4.1704,4.2199,4.2104,4.1633,4.1449,4.2327,4.3715,4.3917,4.4859,4.6041,0.0,0.0,0.0,0.0,0.0,0.0,0.0,0.0,0.0,0.0,0.0,0.0,0.0,0.0,0.0,0.0,0.0,0.0,0.0,0.0,3.0094,3.0098,2.9257,2.8805,2.8805,2.7881,2.7214,2.6821,2.7134,2.7675,2.8407,2.9367,3.0138,3.0739,3.0931,3.1864,3.3289,3.3761,3.4508,3.5394,3.6308,3.6404,3.6084,3.6931,3.7234,3.7306,3.8104,0.0,0.0,0.0,0.0,0.0,0.0,0.0,4.0641,4.1473,4.1381,4.1089,4.1513,4.1634,4.1492,4.098,4.1231,4.1501,4.1062,4.1276,4.1431,4.0942,4.0842,4.0818,4.0662,4.0675,0.0,0.0,0.0,0.0,0.0,0.0,0.0,0.0,0.0,0.0,0.0,0.0,0.0,0.0,0.0,4.0798,4.0748,4.075,4.0763,4.0757,4.0726,4.0494,4.0076,4.0525,4.0574,4.0232,4.0754,4.1042,4.1074,4.0621,4.09,4.1778,4.2636,4.2757,4.2384,4.2842,4.2513,4.1673,4.1254,4.1918,4.3131,4.3548,4.4545,4.5746,0.0,0.0,0.0,0.0,0.0,0.0,0.0,0.0,0.0,0.0,0.0,0.0,0.0,0.0,0.0,0.0,0.0,0.0,0.0,0.0,0.0,3.0087,2.9458,2.9055,2.9004,2.8214,2.7437,2.6733,2.7464,2.8168,2.8844,2.9423,2.9954,3.04,3.0558,3.1182,3.2171,3.296,3.3835,3.4751,3.5465,3.5854,3.6065,3.6747,3.7077,3.7396,3.8934,3.9624,3.9932,4.0815,0.0,0.0,0.0,0.0,3.9931,4.0652,4.0935,4.1016,4.1025,4.102,4.102,4.1112,4.107,4.0999,4.0941,4.0925,4.0917,4.0921,4.0859,4.0781,4.0706,4.0688,0.0,0.0,0.0,0.0,0.0,0.0,0.0,0.0,0.0,0.0,0.0,0.0,0.0,0.0,0.0,4.0781,4.0712,4.0688,4.0675,4.0707,4.0849,4.0797,4.0494,4.0845,4.0902,4.0707,4.0914,4.1042,4.1093,4.1097,4.1585,4.2449,4.3315,4.3614,4.3474,4.3486,4.2962,4.2103,4.1372,4.1723,4.2701,4.3411,4.4229,4.5093,0.0,0.0,0.0,0.0,0.0,0.0,0.0,0.0,0.0,0.0,2.9718,0.0,0.0,0.0,0.0,0.0,0.0,0.0,3.0014,0.0,0.0,3.0003,2.9908,2.9851,2.9844,2.9557,2.9367,2.9317,2.942,2.9557,2.9718,2.9179,2.9758,3.1247,3.1442,3.205,3.2962,3.3195,3.3815,3.462,3.4737,3.5266,3.6004,3.6128,3.6592,3.7336,3.8313,3.9148,3.9924,4.081,4.0524,0.0,0.0,0.0,3.9824,3.9939,4.0506,4.1093,4.1092,4.1043,4.117,4.193,4.1558,4.1015,4.105,4.1039,4.098,0.0,4.092,4.0851,4.0712,0.0,0.0,0.0,0.0,0.0,0.0,0.0,0.0,0.0,0.0,0.0,0.0,0.0,0.0,0.0,4.0888,4.0862,4.0796,4.0832,4.0812,4.0707,4.1434,4.1139,3.9669,4.1164,4.1228,3.9863,4.0691,4.1089,4.1093,4.1109,4.1583,4.244,4.3312,4.3261,4.2563,4.257,4.2065,4.1262,4.1147,4.2093,4.3533,4.3592,4.417,4.4933,0.0,0.0,0.0,0.0,0.0,0.0,0.0,0.0,0.0,0.0,0.0,2.9617,0.0,0.0,0.0,2.9932,2.9959,3.0007,3.0109,3.0116,3.013,3.0171,3.0171,3.0157,3.0113,2.9547,2.9003,2.8517,2.8012,2.8055,2.8552,2.8714,2.9763,3.1526,3.1634,3.1956,3.245,3.3486,3.3856,3.3829,3.4827,3.546,3.5822,3.5836,3.6061,3.6592,3.7997,3.8759,3.9284,4.0642,4.0527,3.9894,4.0379,0.0,0.0,0.0,4.0793,4.1108,4.1093,4.1074,4.1147,4.149,4.1306,4.1055,4.1095,4.1083,4.1068,4.1061,4.1011,4.0931,0.0,0.0,0.0,0.0,0.0,0.0,0.0,0.0,0.0,0.0,0.0,0.0,0.0,0.0,0.0,0.0,4.0872,4.0851,4.0751,4.0776,4.0758,4.07,4.1463,4.1601,4.0967,4.1673,4.1519,4.0487,4.0902,4.1109,4.1128,4.1566,4.1749,4.172,4.259,4.2453,4.1647,4.2141,4.1855,4.1095,4.1052,4.2125,4.3636,4.3111,4.4067,4.5557,0.0,0.0,0.0,0.0,0.0,0.0,0.0,0.0,0.0,0.0,0.0,0.0,0.0,0.0,0.0,0.0,2.9874,2.9969,3.014,3.0195,3.0228,3.0267,3.0299,3.0279,3.0194,2.9336,2.851,2.7799,2.7174,2.7072,2.7493,2.8629,2.9905,3.1271,3.2005,3.2122,3.1867,3.366,3.3892,3.3229,3.5014,3.5704,3.5725,3.6227,3.6154,3.6041,3.8103,3.8697,3.8776,4.0507,4.0524,3.99,4.0553,4.0311,0.0,0.0,0.0,4.108,4.1065,4.1065,4.1048,4.1014,4.1014,4.1054,4.1084,4.1099,4.1093,0.0,4.1227,4.1311,0.0,0.0,0.0,0.0,0.0,0.0,0.0,0.0,0.0,0.0,0.0,0.0,0.0,0.0,0.0,0.0,4.0865,4.0818,4.0707,4.0726,4.081,4.1023,4.1786,4.2273,4.246,4.2193,4.1751,4.1107,4.1094,4.1097,4.112,4.1721,4.1668,4.1153,4.2,4.1972,4.137,4.1802,4.1635,4.1098,4.1045,4.1992,4.3297,4.2641,4.3738,4.5467,0.0,0.0,0.0,0.0,0.0,0.0,0.0,0.0,0.0,0.0,0.0,0.0,2.9332,2.9318,2.9399,2.9598,2.9608,2.9724,2.9992,3.0196,3.0266,3.0209,3.0266,0.0,3.0209,2.9287,2.8746,2.8638,2.8665,2.8224,2.7459,2.927,3.0174,3.0375,3.2929,3.3147,3.1744,3.3678,3.3925,3.317,3.5044,3.5717,3.581,3.7658,3.7245,3.6067,3.8761,3.9199,3.8773,4.0506,4.0526,3.9815,3.9855,3.9839,3.9804,0.0,0.0,0.0,4.1017,4.0956,4.0917,4.0987,4.0946,4.0934,4.1074,0.0,4.1108,4.1108,4.1696,4.2234,0.0,0.0,0.0,0.0,0.0,0.0,0.0,0.0,0.0,0.0,0.0,0.0,0.0,0.0,0.0,0.0,4.0834,4.077,4.07,4.0752,4.1145,4.1906,4.2776,4.3294,4.3432,4.2673,4.188,4.1107,4.1106,4.11,4.1091,4.1139,4.1134,4.1153,4.1955,4.2289,4.2184,4.1465,4.1142,4.1091,4.11,4.1668,4.2461,4.2426,4.3014,4.3829,0.0,0.0,0.0,0.0,0.0,0.0,0.0,0.0,0.0,0.0,0.0,0.0,0.0,2.9238,2.928,2.9405,2.9607,2.9834,3.0116,3.0758,3.0893,3.0346,3.0897,3.0941,3.0346,2.9496,2.9031,2.9019,2.8446,2.8274,2.8523,2.9711,3.0554,3.1162,3.2699,3.3031,3.2614,3.4442,3.4631,3.3808,3.5052,3.5873,3.6397,3.6515,3.6566,3.668,3.7745,3.8265,3.8547,3.9252,3.9999,4.0534,3.9981,4.0149,4.0574,4.0539,4.0769,4.0986,4.0956,4.0926,4.091,4.0938,4.0922,4.0925,4.1017,4.1479,4.1874,4.1869,4.2589,4.3195,0.0,0.0,0.0,0.0,0.0,0.0,0.0,0.0,0.0,0.0,0.0,0.0,0.0,0.0,0.0,0.0,0.0,4.0787,4.0765,4.1235,4.1674,4.2044,4.333,4.3821,4.3447,4.3249,4.2451,4.1106,4.11,4.1081,4.1048,4.1073,4.1081,4.1048,4.1344,4.1461,4.1434,4.1142,4.1039,4.1033,4.1049,4.159,4.2331,4.178,4.2827,4.4443,0.0,0.0,0.0,0.0,0.0,0.0,0.0,0.0,0.0,2.9089,0.0,0.0,0.0,0.0,2.9079,2.9246,2.9551,2.9851,3.0123,3.0783,3.106,3.08,3.1081,3.1107,3.0804,2.9732,2.9159,2.9159,2.853,2.839,2.872,2.9823,3.0637,3.1251,3.2378,3.2885,3.3019,3.4764,3.493,3.4177,3.5718,3.6511,3.68,3.7199,3.739,3.7534,0.0,0.0,3.8935,3.931,4.0175,4.1006,4.0413,4.0595,4.1003,4.1007,4.0976,4.0949,4.0882,4.0859,4.0849,4.0854,4.0873,4.0874,4.0942,4.1415,4.1842,4.1854,4.2828,4.3647,0.0,0.0,0.0,0.0,0.0,0.0,0.0,0.0,0.0,0.0,0.0,0.0,0.0,0.0,0.0,0.0,0.0,0.0,4.0793,4.1537,4.2297,4.3015,4.4314,4.4525,4.3501,4.3562,4.2752,4.1103,4.1096,4.1089,4.1048,4.1073,4.1055,4.0995,4.1006,4.0999,4.1007,4.1007,4.1002,4.1026,4.1026,4.1415,4.1927,4.1637,4.2819,4.4514,0.0,0.0,0.0,0.0,0.0,0.0,0.0,0.0,2.881,2.8893,0.0,0.0,0.0,0.0,0.0,2.9166,2.9447,2.9702,2.9977,3.0213,3.0701,3.1559,3.0784,3.072,3.1577,2.9987,2.9146,2.9146,2.9146,2.8764,2.8043,2.9677,3.0448,3.0556,3.2122,3.2779,3.2812,3.4565,3.4787,3.4219,3.7032,3.761,3.7089,3.9864,3.9846,3.8572,4.0379,4.0491,3.9938,4.0755,4.1074,4.1129,4.1115,4.1059,4.0984,4.0964,4.0924,4.0878,0.0,0.0,0.0,4.0711,4.0746,4.0775,4.0855,0.0,4.0931,4.1041,4.2436,4.3631,0.0,0.0,0.0,0.0,0.0,0.0,0.0,0.0,0.0,0.0,0.0,0.0,0.0,0.0,0.0,0.0,4.0851,4.0809,4.0845,4.1706,4.3024,4.4874,4.5751,4.5417,4.3748,4.3655,4.2777,4.1132,4.1107,4.1105,4.1093,4.11,4.1067,4.101,4.0997,4.1009,4.1009,4.1009,4.1049,4.1098,4.1137,4.1132,4.123,4.211,4.2996,4.3862,0.0,0.0,0.0,0.0,0.0,0.0,2.8619,2.8582,2.8612,0.0,0.0,0.0,2.9383,2.9455,2.9423,2.9277,2.9387,2.957,2.9842,3.0632,3.1214,3.1519,3.1302,3.1296,3.1596,3.0581,3.0051,3.0116,3.0116,3.0346,3.0791,3.1223,3.1711,3.2328,3.3248,3.328,3.2748,3.4535,3.5507,3.5925,3.6719,3.7713,3.8746,3.8902,3.9126,0.0,0.0,3.9475,3.9751,0.0,4.0527,4.1924,4.1304,4.1056,4.0864,4.0189,4.0412,4.0752,4.0056,0.0,0.0,0.0,0.0,0.0,0.0,0.0,4.128,4.2607,4.3767,4.4548,0.0,0.0,0.0,0.0,0.0,0.0,0.0,0.0,0.0,0.0,0.0,0.0,0.0,0.0,0.0,0.0,4.0807,4.1124,4.1846,4.3308,4.4604,4.5671,4.6014,4.5674,4.459,4.3911,4.3078,4.2026,4.1408,4.1106,4.11,4.1098,4.1061,4.0997,4.1055,4.1064,4.1064,4.1064,4.1075,4.1167,4.1793,4.2039,4.2149,4.3015,4.3883,4.4669,0.0,0.0,0.0,0.0,0.0,2.8549,2.8471,2.8479,2.8518,0.0,0.0,0.0,2.9682,2.9479,2.9246,2.9144,2.9241,2.9426,2.9662,3.0657,3.1423,3.1867,3.158,3.1611,3.2044,3.0944,3.0377,3.0431,3.0433,3.0944,3.1845,3.1457,3.2061,3.3535,3.3456,3.3271,3.3128,3.4105,3.5083,3.6005,3.6464,3.7559,3.8959,3.921,3.9486,0.0,0.0,0.0,4.026,3.9797,4.0625,0.0,0.0,4.0777,4.0797,3.9524,3.9982,4.0694,3.9758,3.9871,4.0,3.8967,0.0,0.0,3.9007,3.9691,4.0616,0.0,4.2896,4.3745,4.3775,0.0,0.0,0.0,0.0,0.0,0.0,0.0,0.0,0.0,0.0,0.0,0.0,4.2826,4.2263,4.0936,4.0759,4.1341,4.2735,4.414,4.5271,4.6092,4.6176,4.5785,4.4955,4.4441,4.3585,4.2383,4.1887,4.1445,4.1095,4.1095,4.1087,4.1029,4.1089,4.1103,4.1132,4.1484,4.1644,4.1688,4.2197,4.2618,4.304,4.3923,4.4554,4.5048,0.0,0.0,2.8669,2.8587,2.8484,2.8442,2.8505,2.8513,2.8577,0.0,2.9474,2.9862,2.9676,2.9132,2.8791,2.8893,2.9086,2.9272,2.9482,3.0424,3.1372,3.2234,3.1629,3.1721,3.2672,3.1127,3.0388,3.0579,3.0568,3.1033,3.1927,3.1137,3.2036,3.423,3.3209,3.3084,3.3667,3.3381,3.3893,3.4997,3.6189,3.7229,0.0,0.0,4.0442,3.9937,4.0714,4.1039,4.1101,4.1207,4.1171,0.0,0.0,0.0,0.0,0.0,3.9552,4.0665,3.9649,3.942,3.945,3.9193,3.8575,0.0,3.8066,3.8664,3.9286,0.0,4.0786,4.1875,4.2039,0.0,0.0,0.0,0.0,0.0,0.0,0.0,0.0,0.0,0.0,0.0,4.225,4.2084,4.1698,4.0925,4.0912,4.1697,4.343,4.449,4.544,4.6261,4.6243,4.587,4.5146,4.5047,4.4206,4.2699,4.2588,4.213,4.1395,4.1298,4.1237,4.1234,4.1237,4.1191,4.1172,4.2149,4.2483,4.2424,4.2602,4.3159,4.3951,4.481,4.5146,4.5267,0.0,2.8803,2.8632,2.8471,2.8497,2.8714,2.9215,2.8846,2.8948,3.0206,3.0498,3.0157,2.9038,2.9341,2.9471,2.9025,2.9075,2.9241,2.9482,3.0347,3.1035,3.149,3.1328,3.1662,3.2603,3.1101,3.0996,3.2385,3.1815,3.1983,3.2832,3.2612,3.308,3.4122,3.3788,3.3619,3.3497,3.2759,3.2918,3.3815,3.5633,3.7037,3.822,4.0043,4.0718,4.0699,4.0925,4.1031,4.1211,4.1914,4.1672,4.0943,0.0,0.0,0.0,3.8114,0.0,0.0,3.8889,3.8965,0.0,0.0,0.0,0.0,3.7156,3.7286,3.7806,0.0,3.983,4.0302,4.1019,4.1162,0.0,0.0,0.0,0.0,0.0,0.0,0.0,0.0,0.0,0.0,4.2124,4.206,4.1711,4.0802,4.2141,4.3175,4.3553,4.5148,4.6117,4.628,4.6296,4.6218,4.6046,4.5308,4.4786,4.4473,4.3732,4.3316,4.317,4.2479,4.2156,4.2147,4.2158,4.1755,4.1211,4.2801,4.3038,4.2531,4.3943,4.4591,4.4849,4.5717,4.6052,4.6072,2.8798,2.87,2.8612,2.8471,2.851,2.8781,2.9453,2.9292,2.9521,3.0744,3.091,3.0631,2.9924,2.9847,2.9572,2.8907,2.9432,2.9686,2.9431,3.079,3.1666,3.1845,3.1887,3.2317,3.3228,3.2127,3.2007,3.2954,3.2613,3.2642,3.3044,3.2566,3.2923,3.3929,3.3356,3.3495,3.4055,3.2581,3.2791,3.4188,3.4699,0.0,3.6648,3.8462,3.9276,3.9464,3.9534,3.9683,3.9917,4.0351,4.021,0.0,3.8835,3.9139,3.9375,0.0,3.8006,3.9352,0.0,0.0,0.0,3.7076,0.0,0.0,0.0,3.6548,3.7113,3.8026,3.8581,3.9053,3.9515,0.0,3.9898,0.0,0.0,0.0,0.0,0.0,0.0,0.0,0.0,0.0,4.1468,4.1064,4.0763,4.0649,4.2442,4.3541,4.3501,4.5281,4.6292,4.6292,4.6292,4.6298,4.6306,4.583,4.5404,4.4986,4.451,4.4097,4.3666,4.2799,4.2403,4.2403,4.2403,4.1917,4.1278,4.3448,4.3824,4.3184,4.4495,4.5279,4.5693,4.6149,4.6307,4.6308,2.8675,2.86,2.8562,2.8479,2.8619,2.8984,2.9669,2.9877,3.0207,3.0885,3.0989,3.1075,3.1275,3.0726,3.0051,2.9308,3.0314,3.0583,2.9632,3.1308,3.2287,3.2214,3.2461,3.2869,3.344,3.3058,3.2981,3.3265,3.3318,3.3237,3.3001,3.2419,3.2633,3.35,3.2797,3.3441,3.4888,3.2825,3.321,3.5122,0.0,3.4406,3.5653,3.7481,3.8316,3.8511,3.8452,3.8507,3.8593,3.8594,3.8593,3.8454,3.7574,3.7862,0.0,0.0,0.0,0.0,0.0,0.0,0.0,0.0,0.0,3.5641,0.0,0.0,0.0,3.6642,3.7216,0.0,0.0,0.0,0.0,0.0,0.0,0.0,0.0,0.0,0.0,0.0,0.0,0.0,0.0,3.9976,3.9771,4.0359,4.234,4.3412,4.3199,4.5144,4.6282,4.6282,4.6282,4.6292,4.6308,4.6308,4.5959,4.5242,4.5246,4.4873,4.416,4.3295,4.2903,4.2905,4.29,4.2412,4.1792,4.4231,4.4743,4.4049,4.4908,4.5674,4.6303,4.6307,4.6308,4.6308,2.8718,2.8582,2.8497,2.8419,2.9101,2.9823,3.0334,3.072,3.0921,3.092,3.0961,3.1352,3.224,3.23,3.1978,3.1262,3.2122,3.2095,3.065,3.149,3.1883,3.1535,3.2218,3.2362,3.1859,3.265,3.3453,3.4249,3.4244,3.3852,3.3107,3.3532,3.333,3.2572,3.2995,3.4189,3.5725,3.3713,3.4065,0.0,3.4884,3.5676,0.0,3.9549,4.0319,4.0324,3.9793,3.9167,3.8607,0.0,3.8593,3.8455,0.0,3.789,3.8222,3.6433,0.0,0.0,0.0,0.0,0.0,0.0,3.6774,0.0,0.0,0.0,3.5733,3.5739,0.0,0.0,0.0,0.0,0.0,0.0,0.0,0.0,0.0,0.0,0.0,0.0,0.0,0.0,0.0,3.9746,3.9682,3.9717,4.212,4.3244,4.2459,4.4838,4.6209,4.6209,4.6209,4.6236,4.6308,4.6308,4.6243,4.6144,4.6145,4.6106,4.5988,4.5093,4.4697,4.4699,4.4706,4.4218,4.3549,4.5382,4.5641,4.4945,4.581,4.6205,4.6307,4.6308,4.6308,4.6308,2.8619,2.8594,2.8582,2.8484,2.9199,3.0012,3.0639,3.1672,3.2325,3.219,3.2202,3.2441,3.3077,3.3243,3.2991,3.2256,0.0,3.399,0.0,0.0,3.3401,3.4316,3.3223,3.3206,3.4525,3.4512,3.4693,3.5093,3.501,3.4317,3.3048,3.3576,3.3266,3.2307,3.2958,3.4584,3.6767,3.5227,3.6196,0.0,0.0,0.0,0.0,3.8469,3.7949,3.7783,3.8107,3.7749,3.7088,0.0,3.709,0.0,0.0,0.0,0.0,3.6935,0.0,0.0,0.0,0.0,0.0,0.0,0.0,0.0,3.6093,0.0,3.5547,0.0,0.0,0.0,0.0,0.0,0.0,0.0,3.641,0.0,0.0,0.0,0.0,0.0,0.0,0.0,0.0,0.0,0.0,0.0,4.1894,4.29,4.3052,4.4568,4.5701,4.6238,4.6211,4.6221,4.6302,4.6298,4.6308,4.6305,4.6305,4.6306,4.6268,4.5408,4.4996,4.499,4.5005,4.4515,4.3848,4.5581,4.5797,4.5082,4.5968,4.6304,4.6366,4.6875,4.7051,4.7051,2.8582,2.8594,2.8679,2.8786,2.9503,3.0401,3.1369,3.2295,3.3051,3.3493,3.3364,3.3709,3.4944,3.4999,0.0,3.4221,3.5732,3.5797,0.0,0.0,3.4639,3.6101,0.0,0.0,3.6389,3.6103,3.5822,3.5602,3.5476,3.4681,3.3301,3.3783,3.3505,3.258,3.2965,3.4607,3.7005,3.6109,3.7633,4.0544,3.9786,3.9667,3.9754,3.7916,3.6858,3.6429,3.6938,3.6629,3.5972,3.5993,3.5995,0.0,3.5995,0.0,0.0,0.0,0.0,0.0,3.8082,0.0,0.0,0.0,0.0,0.0,0.0,0.0,0.0,0.0,0.0,0.0,0.0,0.0,0.0,0.0,0.0,3.5261,0.0,0.0,0.0,0.0,0.0,0.0,0.0,0.0,0.0,4.0198,4.1548,4.2496,4.2899,4.4184,4.5214,4.5889,4.6094,4.6223,4.6306,4.63,4.6309,4.6306,4.6306,4.6307,4.6289,4.5643,4.5368,4.5366,4.5359,4.5003,4.4513,4.5776,4.5934,4.5414,4.6046,4.6304,4.6385,4.7011,4.7383,4.7598,2.8718,2.8582,2.8732,2.9431,3.024,3.1283,3.2796,3.236,3.2523,0.0,0.0,0.0,0.0,0.0,0.0,0.0,0.0,3.7365,3.4903,0.0,3.487,0.0,0.0,3.5245,0.0,3.6599,3.6566,3.5597,3.5531,3.4974,3.3979,3.4571,3.4368,3.3448,3.3142,3.4091,3.5945,3.583,3.7576,4.0414,4.0436,3.9499,3.8202,0.0,3.9006,3.8214,3.7461,0.0,0.0,3.5984,3.6001,0.0,0.0,0.0,0.0,0.0,0.0,0.0,0.0,0.0,0.0,3.8199,0.0,0.0,0.0,0.0,3.4345,0.0,0.0,0.0,0.0,0.0,0.0,0.0,0.0,0.0,0.0,0.0,0.0,0.0,0.0,0.0,0.0,0.0,0.0,3.8576,4.0945,4.2034,4.121,4.3531,4.4916,4.4936,4.5757,4.6233,4.6306,4.6306,4.6302,4.6301,4.6301,4.6304,4.6307,4.6268,4.6264,4.6255,4.6254,4.623,4.6223,4.628,4.6285,4.6255,4.63,4.6304,4.6307,4.6328,4.6875,4.7598,3.0746,3.0533,3.021,2.9755,3.0396,3.1476,0.0,3.3497,0.0,0.0,3.4502,0.0,0.0,3.8156,3.8014,0.0,0.0,3.8139,3.7238,3.6168,0.0,0.0,0.0,3.6775,0.0,0.0,0.0,3.7439,3.6041,3.5236,3.4982,3.4874,3.4356,3.3505,3.3754,3.4618,3.5983,3.7202,0.0,0.0,0.0,4.1147,3.9151,0.0,0.0,3.6445,3.623,3.6069,0.0,3.5996,3.6001,3.6004,3.5991,3.6404,3.6855,3.6854,3.7431,0.0,0.0,0.0,3.9237,3.9146,0.0,0.0,0.0,0.0,0.0,0.0,0.0,0.0,0.0,0.0,0.0,0.0,0.0,0.0,0.0,0.0,0.0,0.0,0.0,0.0,0.0,0.0,0.0,3.9347,4.0243,4.1098,0.0,4.2787,4.3775,4.4922,4.5214,4.5643,4.6296,4.6296,4.6306,4.6301,4.6299,4.6301,4.6307,4.6305,4.6302,4.6299,4.6295,4.6291,4.6309,4.6309,4.6291,4.6294,4.6303,4.6306,4.6366,4.6953,4.7344,4.7598,3.1836,3.1573,3.1223,3.0744,3.1692,0.0,0.0,0.0,0.0,0.0,3.591,0.0,3.8742,0.0,3.8701,0.0,3.8966,3.8877,3.8566,3.6927,0.0,3.9923,3.7751,0.0,0.0,0.0,0.0,0.0,3.6786,3.5827,3.583,3.5142,3.4505,3.3967,3.3889,3.4416,3.545,3.7443,3.9028,0.0,0.0,4.2421,0.0,0.0,3.852,3.6503,0.0,3.6725,3.6809,3.6551,3.6465,3.6414,3.6105,3.6384,3.6836,3.6836,3.763,3.865,3.9191,3.9764,0.0,3.9731,3.9592,0.0,3.8427,0.0,0.0,0.0,0.0,0.0,0.0,0.0,0.0,0.0,0.0,0.0,0.0,3.4516,0.0,0.0,0.0,0.0,0.0,0.0,3.789,3.9336,3.9725,4.0503,0.0,0.0,4.3384,4.4507,4.5091,4.5694,4.628,4.63,4.6308,4.6299,4.6295,4.6299,4.6305,4.6303,4.6301,4.6301,4.6299,4.6295,4.6293,4.6295,4.6295,4.6294,4.6305,4.6307,4.6366,4.6933,4.7324,4.7694,3.2027,3.1812,3.1814,0.0,3.393,0.0,0.0,0.0,3.6825,0.0,3.7889,3.8512,4.0437,3.9913,3.9783,4.0666,4.0132,3.9469,3.8832,3.6933,0.0,0.0,3.728,3.768,4.0822,0.0,0.0,0.0,0.0,3.665,3.655,3.5362,3.4798,3.4751,3.3668,3.3571,3.4377,3.6511,3.8473,4.0397,4.3617,4.3205,4.0727,4.0827,3.9827,3.8382,3.8466,3.8458,3.8296,3.7607,3.7368,3.7214,3.639,3.6105,3.605,3.6054,3.7206,3.8489,3.8495,3.9681,4.0716,3.9967,0.0,0.0,0.0,0.0,3.6889,0.0,0.0,0.0,0.0,0.0,0.0,0.0,0.0,0.0,0.0,0.0,0.0,0.0,0.0,0.0,0.0,3.6743,3.759,3.8475,3.9297,4.0116,0.0,0.0,4.3536,4.3575,4.5228,4.6122,4.6163,4.6202,4.6227,4.6235,4.6273,4.6296,4.6302,4.6301,4.6301,4.6301,4.6301,4.6299,4.6294,4.63,4.63,4.6295,4.6305,4.6307,4.6307,4.6308,4.6815,4.7765,3.3723,3.3573,3.3419,0.0,3.4534,3.5204,0.0,0.0,0.0,0.0,3.6163,3.6046,3.9508,3.8945,3.8725,3.9733,3.8465,0.0,0.0,0.0,0.0,3.8931,3.7354,3.7826,4.0834,3.9374,3.9289,4.0703,0.0,3.7012,3.7571,3.5732,3.4849,3.4788,3.4387,3.3949,3.362,3.5567,3.7966,4.0738,4.3654,4.3233,0.0,0.0,4.0847,3.9256,3.8581,3.8399,3.8454,3.8259,3.8186,3.8168,3.7986,3.7482,3.6978,3.697,3.6816,3.6932,3.8166,3.8358,3.8605,4.025,4.0132,3.9718,0.0,0.0,0.0,0.0,0.0,0.0,0.0,0.0,0.0,0.0,0.0,0.0,0.0,0.0,0.0,3.4623,0.0,0.0,3.5936,3.6199,3.6695,3.7578,3.7831,0.0,0.0,0.0,0.0,4.1742,4.2772,4.3652,4.4367,4.495,4.5279,4.5343,4.5997,4.6294,4.6306,4.63,4.6297,4.6301,4.6301,4.6301,4.6301,4.6305,4.6305,4.6305,4.6308,4.6308,4.6308,4.6308,4.6444,4.679,3.4459,3.4195,0.0,3.3498,0.0,0.0,3.5907,3.5633,0.0,3.8671,3.6739,0.0,3.9387,3.9137,3.8783,3.8914,3.8498,0.0,3.8534,0.0,0.0,3.9596,3.7592,3.781,4.0786,3.9485,0.0,4.1061,0.0,3.7488,3.7906,3.5866,3.4888,3.4848,3.4666,3.4119,3.3438,3.579,3.8477,4.1318,4.3015,4.305,0.0,4.1841,4.1167,4.0237,3.9717,3.9563,3.9583,3.9199,3.9064,3.9006,3.8661,3.7985,3.7308,3.7299,3.6953,3.6775,3.7722,3.7861,3.8209,4.0015,4.0071,3.991,4.0716,4.0495,3.9906,0.0,0.0,0.0,0.0,0.0,0.0,0.0,0.0,0.0,0.0,0.0,0.0,0.0,3.3904,0.0,0.0,3.578,3.6348,3.7186,3.7261,0.0,0.0,0.0,0.0,4.1086,4.2643,4.3721,4.4219,4.5074,4.5539,4.5571,4.6074,4.6293,4.6302,4.6301,4.6302,4.6305,4.6306,4.6306,4.6305,4.6307,4.6307,4.6307,4.6308,4.6308,4.6347,4.6738,4.6873,4.6984,3.476,3.4332,0.0,0.0,0.0,0.0,0.0,3.7108,0.0,3.977,0.0,3.7695,3.9721,3.9742,3.929,3.8536,0.0,3.9543,3.8679,3.7765,3.8182,4.0294,3.7904,3.792,4.0911,4.0116,4.0153,0.0,0.0,3.8067,3.7865,3.6062,3.5095,3.4906,3.4821,3.4411,3.3937,3.6671,3.9334,4.1767,4.2144,4.2757,4.3256,4.1674,4.1096,4.1106,4.1097,4.1101,4.0976,4.0237,3.9964,3.9843,3.9084,3.8276,3.7603,3.7492,3.7383,3.7301,3.7299,3.7816,3.8576,3.9568,3.9803,3.9994,4.0739,4.0822,4.0334,3.8927,3.8417,3.8009,0.0,0.0,0.0,0.0,0.0,0.0,0.0,0.0,0.0,0.0,0.0,0.0,0.0,0.0,0.0,0.0,0.0,0.0,0.0,0.0,0.0,4.1074,4.3396,0.0,4.4748,0.0,4.6111,4.6126,4.6251,4.6294,4.6296,4.6305,4.6307,4.6307,4.6308,4.6308,4.6307,4.6308,4.6308,4.6308,4.6308,4.6308,4.6404,4.7282,4.7669,4.7857,3.5391,0.0,0.0,0.0,0.0,3.7852,3.6548,3.625,3.7125,3.9814,3.7699,3.7023,3.9831,3.9253,3.8968,3.9772,3.9233,0.0,0.0,0.0,0.0,3.9197,3.8201,3.894,4.1806,4.1014,4.1063,0.0,0.0,0.0,3.7963,3.7222,3.6173,3.4935,3.5567,3.5799,3.5812,3.7252,0.0,4.0916,4.1906,4.238,4.2412,4.1395,4.1044,4.1107,4.1103,4.1107,4.1076,4.0929,4.0867,4.0842,4.0695,4.0049,3.9231,3.8564,3.7867,3.7303,3.7304,3.7397,3.788,3.9426,3.9798,4.0009,4.0792,4.0422,4.0003,4.0373,3.9287,3.8433,3.8941,0.0,0.0,0.0,0.0,0.0,0.0,0.0,0.0,0.0,0.0,3.4671,0.0,0.0,0.0,0.0,0.0,0.0,0.0,0.0,0.0,0.0,4.2169,0.0,0.0,0.0,4.5178,4.5236,4.5961,4.6299,4.6305,4.6306,4.6307,4.6308,4.6308,4.6308,4.6308,4.6308,4.6306,4.6305,4.6307,4.6306,4.6419,4.7274,4.8,4.864,3.5559,0.0,0.0,0.0,0.0,0.0,0.0,3.7793,0.0,4.0123,3.8195,3.7604,4.004,3.9795,3.9441,3.9413,3.9451,3.93,3.8877,3.8586,3.8887,3.989,3.908,3.9496,4.1369,4.0569,4.0577,4.152,0.0,0.0,0.0,0.0,3.6635,3.6196,3.6245,3.6555,0.0,0.0,0.0,4.0795,4.1899,4.2337,4.2211,4.1376,4.105,4.1056,4.1089,4.1098,4.1105,4.1097,4.1097,4.1094,4.1099,4.0499,3.9647,3.8838,3.7985,3.7304,3.7304,3.7301,3.7707,3.9375,3.9793,4.0014,4.0866,4.0707,4.037,4.0345,3.9617,3.9093,3.9483,3.8894,0.0,0.0,0.0,0.0,0.0,0.0,0.0,0.0,0.0,0.0,0.0,0.0,0.0,0.0,0.0,0.0,0.0,0.0,0.0,0.0,0.0,0.0,0.0,0.0,0.0,4.5018,4.5885,4.6301,4.6307,4.6308,4.6308,4.6307,4.6307,4.6306,4.6305,4.6305,4.6303,4.6301,4.6304,4.6552,4.7025,4.7854,4.8689,4.9442,0.0,3.559,0.0,0.0,3.6634,0.0,3.795,3.9467,4.0574,4.0465,3.9172,3.8812,4.0287,4.0436,4.0064,3.9157,3.985,4.0006,3.9292,4.0018,4.0557,4.0752,4.0217,4.0274,4.1031,4.0416,4.0417,0.0,0.0,0.0,0.0,0.0,0.0,0.0,0.0,0.0,0.0,0.0,4.0038,4.0937,4.1785,4.2083,4.1977,4.1346,4.1058,4.102,4.1078,4.1091,4.1096,4.1092,4.1097,4.1097,4.1097,4.0638,3.9946,3.9328,3.8514,3.7851,3.7851,3.785,3.8179,3.9496,3.9941,4.0268,4.0949,4.1061,4.085,4.0181,3.9964,3.9873,3.9888,4.0015,0.0,0.0,0.0,0.0,0.0,0.0,0.0,0.0,0.0,0.0,3.5823,0.0,0.0,0.0,0.0,0.0,0.0,0.0,0.0,0.0,0.0,4.2493,4.2926,0.0,4.4926,0.0,4.5858,4.6269,4.6289,4.6287,4.6284,4.6277,4.6277,4.6272,4.6284,4.6272,4.6273,4.627,4.6272,4.6763,4.7588,4.8401,4.923,4.9986,0.0,0.0,0.0,0.0,0.0,0.0,3.8254,3.9535,4.0668,4.0595,4.0431,4.0385,4.0554,4.0523,4.0462,4.0342,4.0375,4.0375,4.0346,4.0547,4.066,4.061,4.1451,4.1917,4.1886,4.193,4.199,0.0,0.0,0.0,0.0,0.0,0.0,0.0,0.0,0.0,0.0,3.9486,4.0114,4.1081,4.1182,4.1211,4.1206,4.1139,4.1064,4.1013,4.107,4.1106,4.1098,4.1101,4.1108,4.1108,4.1108,4.1031,4.0956,4.089,4.0287,3.9664,3.9668,3.9668,3.9687,3.9858,4.0442,4.1005,4.108,4.109,4.104,4.0925,4.0836,4.0771,4.0786,4.1373,4.1572,0.0,0.0,0.0,0.0,0.0,3.4748,3.6337,0.0,0.0,0.0,3.83,0.0,0.0,3.8007,0.0,0.0,0.0,0.0,4.3083,0.0,4.3064,4.4651,4.4817,0.0,4.4911,4.5738,4.6158,4.6216,4.6204,4.6204,4.6212,4.6212,4.6219,4.6215,4.6209,4.622,4.6216,4.6209,4.6697,4.7517,4.8378,4.9166,4.9932,0.0,0.0,0.0,0.0,0.0,0.0,0.0,4.0407,4.1371,4.0739,4.07,4.072,4.072,4.0707,4.0435,3.9829,4.0268,4.0126,3.9061,4.0068,4.0469,3.996,4.0893,4.1371,4.1278,4.1359,4.1422,0.0,0.0,0.0,0.0,0.0,0.0,0.0,0.0,3.9984,4.0528,4.104,4.1193,4.1154,4.1675,4.1564,4.1091,4.11,4.1067,4.1013,4.1078,4.1078,4.1053,4.1081,4.1099,4.1187,4.1719,4.1876,4.1879,4.189,4.1657,4.1306,4.0801,4.1035,4.1269,4.0759,4.1266,4.1889,4.1876,4.1887,4.1878,4.1859,4.1364,4.0961,4.0956,4.1611,4.1908,0.0,0.0,0.0,0.0,0.0,0.0,3.8476,0.0,3.7675,0.0,0.0,0.0,0.0,0.0,0.0,0.0,0.0,0.0,4.2675,0.0,4.2831,4.4051,4.4541,4.4797,4.4857,4.5691,4.6137,4.6197,4.6209,4.6206,4.6201,4.6164,4.6436,4.6929,4.6927,4.6927,4.6971,4.7494,4.7903,4.8282,4.9075,4.989,5.0622,3.9358,0.0,3.8579,0.0,3.9441,3.9582,3.977,4.1193,4.2073,4.1621,4.1588,4.1521,4.1247,4.0984,4.0428,3.9397,3.9919,3.9732,3.8433,3.9566,4.0159,3.9868,4.0532,0.0,4.0736,4.0859,4.1029,4.1223,4.2205,0.0,0.0,0.0,0.0,0.0,4.0614,4.0976,4.1132,4.1762,4.1664,4.1154,4.1771,4.1644,4.1103,4.1108,4.1075,4.1048,4.1072,4.1061,4.1055,4.1376,4.1473,4.1568,4.2204,4.2579,4.2837,4.3082,4.2986,4.2713,4.2402,4.2539,4.2637,4.201,4.2322,4.277,4.2784,4.2778,4.2771,4.2781,4.2242,4.1753,4.1762,4.2447,4.2793,4.2211,0.0,0.0,0.0,0.0,0.0,0.0,3.8906,3.8475,4.0094,3.9587,0.0,0.0,0.0,0.0,0.0,0.0,0.0,0.0,0.0,0.0,0.0,4.4653,4.4965,4.4782,4.5866,4.6298,4.6111,4.6134,4.615,4.6135,4.6083,4.6575,4.7368,4.7371,4.7516,4.7808,4.8404,4.8793,4.9084,4.9617,5.0338,5.1095,3.9684,3.9544,3.9575,3.9589,3.96,3.9878,4.0664,4.1645,4.2591,4.3447,4.3564,4.3216,4.2277,4.1407,4.0461,3.9387,3.9313,3.9278,3.9184,3.9275,3.9728,0.0,0.0,4.0863,4.0602,4.0859,4.1329,4.1987,0.0,0.0,4.1965,0.0,4.0792,4.0799,4.1008,4.1104,4.1098,4.1117,4.1115,4.1108,4.1117,4.1119,4.1106,4.1103,4.1093,4.1096,4.1109,4.1069,4.1133,4.2078,4.2334,4.2309,4.2377,4.2996,4.3847,4.4722,4.4354,4.3866,4.4726,4.4336,4.3672,4.3671,4.369,4.3689,4.3686,4.3685,4.3683,4.3689,4.3621,4.3571,4.3572,4.4272,4.4838,4.4775,0.0,0.0,0.0,0.0,0.0,4.1975,4.0634,4.09,4.4292,4.2403,0.0,0.0,0.0,0.0,0.0,0.0,0.0,4.3462,4.3482,0.0,4.4686,4.5484,4.5484,4.4719,4.6319,4.668,4.5917,4.5966,4.5997,4.5997,4.5997,4.6502,4.7297,4.7306,4.7803,4.858,4.852,4.9032,4.9789,4.9795,5.0344,5.1094,4.0654,4.0615,4.0628,4.061,4.0627,4.0659,4.0775,4.2206,4.3296,4.3455,4.4062,4.4364,4.4062,4.3265,4.2082,0.0,4.09,4.0718,0.0,3.9993,4.0502,4.0757,4.0864,4.0883,4.0805,4.1527,4.2,4.2202,0.0,0.0,0.0,4.2561,4.1887,4.1869,4.1337,4.1108,4.1147,4.173,4.1631,4.114,4.1749,4.1624,4.1097,4.11,4.11,4.1109,4.1101,4.1449,4.1929,4.223,4.3101,4.4088,4.4103,4.4328,4.4761,4.5637,4.568,4.5409,4.5098,4.5234,4.5193,4.4004,4.414,4.4589,4.4588,4.4583,4.4595,4.4585,4.4103,4.3653,4.361,4.4312,4.4883,4.4876,4.5102,0.0,0.0,0.0,0.0,4.4727,4.2804,4.2035,0.0,4.3164,0.0,0.0,0.0,0.0,0.0,0.0,0.0,0.0,4.4007,0.0,4.6312,4.659,4.6881,4.7222,4.7129,4.6983,4.6797,4.6853,4.6884,4.6923,4.7462,4.7856,4.8167,4.8761,4.9168,4.9477,5.0041,5.0119,4.9922,5.0481,5.0868,5.1094,4.1101,4.0818,4.0565,4.0567,4.0813,4.1084,4.1288,4.2926,4.4226,4.4426,4.4704,4.4902,4.4926,4.4423,0.0,4.0984,4.1343,4.1189,4.0008,4.0815,4.1509,4.1848,4.1885,4.1894,4.1846,0.0,0.0,4.3247,4.4385,4.4782,4.4486,4.3064,4.2226,4.1894,4.1347,4.1093,4.1151,4.2029,4.1909,4.1182,4.2049,4.1888,4.1108,4.1097,4.1101,4.1148,4.1464,4.1911,4.2431,4.3059,4.4,4.4947,4.5251,4.5406,4.5558,4.6125,4.6306,4.6249,4.6035,4.6132,4.6111,4.5351,4.5331,4.5487,4.5488,4.5738,4.5986,4.598,4.5542,4.5141,4.5077,4.5259,4.5426,4.5391,4.5818,4.6154,4.6197,0.0,0.0,0.0,0.0,0.0,0.0,4.4285,4.4256,0.0,0.0,0.0,0.0,0.0,0.0,4.3874,4.4705,0.0,4.7103,4.7424,4.785,4.8392,4.785,4.7608,4.7649,4.7689,4.7527,4.7275,4.8096,4.8476,4.858,4.9446,4.9996,5.0332,5.0901,5.0604,4.9953,5.0449,5.0616,5.0609,4.1109,4.0405,0.0,0.0,4.0474,0.0,4.2162,4.373,4.5126,4.5993,4.5419,4.4907,4.4918,4.4909,4.3847,4.1225,0.0,0.0,0.0,4.1792,4.2661,4.3653,4.3634,4.3555,4.3428,4.361,4.4092,4.489,4.4976,4.4627,4.3867,4.2987,4.2146,4.1365,4.1245,4.1228,4.1328,4.207,4.1931,4.1255,4.2075,4.1883,4.1106,4.1101,4.1102,4.1205,4.2098,4.2433,4.2734,4.4361,4.4945,4.511,4.5868,4.6142,4.6218,4.6284,4.6308,4.6484,4.7363,4.6953,4.6504,4.7383,4.6933,4.6308,4.6308,4.6933,4.7536,4.759,4.7606,4.7577,4.7518,4.6947,4.6414,4.6231,4.6245,4.6258,4.6128,0.0,0.0,0.0,0.0,0.0,0.0,4.5613,4.6075,0.0,0.0,0.0,0.0,0.0,4.4752,4.469,4.5483,4.6306,4.7173,4.7985,4.843,4.8488,4.8488,4.8488,4.8488,4.8488,4.8043,4.7335,4.8196,4.8578,4.8662,4.9529,5.0364,5.1089,5.1095,5.0604,4.9901,4.9834,4.9808,4.9782,0.0,0.0,4.0776,4.077,4.1487,4.2342,4.3219,4.3711,4.4301,4.5163,4.5103,4.4731,4.4088,4.4595,4.4455,4.3139,4.3624,4.4002,4.4012,4.3585,4.3723,4.4629,4.4025,4.3652,4.3626,4.4314,4.5089,4.5935,4.5312,4.5232,4.568,4.4799,4.4271,4.4017,4.2689,4.2457,4.3046,4.2597,4.2284,4.2101,4.2312,4.1881,4.11,4.1099,4.1102,4.1205,4.2083,4.2834,4.3558,4.4567,4.5345,4.593,4.6128,4.6228,4.6283,4.6303,4.6307,4.6484,4.7363,4.6952,4.6501,4.7383,4.6933,4.6308,4.6308,4.6464,4.6794,4.7454,4.7605,4.7575,4.7515,4.7884,4.7762,4.6421,4.6758,4.6738,4.5399,4.4628,0.0,0.0,4.4487,4.4626,4.57,4.593,4.6026,0.0,0.0,0.0,0.0,4.5631,4.5337,4.472,4.5421,4.6549,4.8082,4.8295,4.874,4.9397,4.9397,4.9397,4.9397,4.9397,4.9281,4.9126,4.9946,4.9966,4.949,5.031,5.0819,5.1095,5.1095,5.0609,4.9906,4.9889,4.9846,4.9795,4.1108,4.1092,4.1093,4.1091,4.2145,4.3141,4.3628,4.404,4.4451,4.4941,4.4647,4.4061,4.3202,4.4237,4.4647,4.3788,4.4501,4.5,4.5004,4.4927,4.5103,4.557,4.5144,4.4893,4.4893,4.5349,4.5625,4.5716,4.5226,4.5047,4.5103,4.5021,4.457,4.3791,4.3243,4.3031,4.3096,4.3024,4.2754,4.2399,4.2399,4.1889,4.1106,4.1091,4.1346,4.1815,4.2674,4.3548,4.4416,4.5228,4.5812,4.6204,4.6207,4.6217,4.6264,4.6286,4.6308,4.6484,4.7363,4.6953,4.6405,4.6894,4.664,4.6308,4.6308,4.6619,4.7026,4.7508,4.7602,4.7694,4.8031,4.8162,4.8035,4.7476,4.7131,4.6574,4.5631,4.4789,0.0,4.5406,4.5443,4.5881,4.7121,4.7176,4.714,4.714,0.0,0.0,4.7049,4.6668,4.6067,4.5227,4.5589,4.6631,4.8372,4.9165,4.9784,5.0241,5.0241,5.0241,5.0241,5.0241,5.002,4.9695,5.0542,5.0426,4.9714,5.0561,5.0739,5.0538,5.0946,5.0136,4.8816,4.9195,4.931,4.9244,4.11,4.1104,4.109,4.1092,4.2538,4.3691,4.3691,4.4433,4.4941,4.4822,4.4277,4.3515,4.2517,4.4062,4.4843,4.3963,4.4687,4.5192,4.5192,4.5895,4.6305,4.6305,4.6307,4.6308,4.6308,4.6034,4.5541,4.4805,4.4668,4.4353,4.3895,4.4647,4.4272,4.3006,4.3611,4.35,4.2825,4.3446,4.3201,4.2401,4.2402,4.1875,4.1092,4.1093,4.1562,4.2344,4.334,4.4179,4.4955,4.5903,4.6212,4.6212,4.6219,4.6221,4.6223,4.6289,4.6308,4.6484,4.7363,4.7051,4.6465,4.6328,4.6308,4.6307,4.6306,4.6871,4.7433,4.7562,4.7601,4.7853,4.8644,4.83,4.8094,4.8705,4.7561,4.6559,4.6415,0.0,4.4731,4.6223,4.645,4.7042,4.846,4.8532,4.8502,4.8502,4.8444,4.8403,0.0,4.7698,4.696,4.6213,4.5942,4.6631,4.8372,5.0047,5.0898,5.0898,5.0898,5.0898,5.089,5.0898,5.0488,4.981,5.0565,5.046,4.9829,5.0584,5.0453,4.9866,5.0752,4.9573,4.7504,4.8506,4.8759,4.8619,4.1095,4.1108,4.1098,4.1109,4.2535,4.3706,4.3706,4.4449,4.4741,4.3998,4.4428,4.4194,4.2572,4.4604,4.5756,4.4877,4.5601,4.609,4.609,4.6227,4.6305,4.6305,4.6305,4.6305,4.6305,4.4855,4.4045,4.3909,4.3168,4.3457,4.4712,4.4846,4.5158,4.5587,4.505,4.4727,4.4563,4.3953,4.3202,4.2401,4.2402,4.1875,4.1109,4.1093,4.121,4.1582,4.3144,4.3789,4.414,4.5742,4.6289,4.6289,4.6288,4.6288,4.6289,4.6305,4.6304,4.6481,4.7363,4.75,4.7226,4.6483,4.6307,4.6306,4.6303,4.64,4.671,4.7445,4.7599,4.7852,4.8644,4.9296,4.9501,4.8894,4.8562,4.8143,4.7409,0.0,4.6997,4.7273,4.7899,4.8385,4.8579,4.8544,4.8496,4.8509,4.845,4.8396,4.8399,4.8275,4.814,4.8005,4.6581,4.6631,4.8372,5.0047,5.0898,5.0898,5.0898,5.0901,5.0888,5.0901,5.08,5.0617,5.0814,5.0786,5.0636,5.0814,5.0438,4.9814,5.0733,4.9549,4.7503,4.9118,4.9245,4.871,4.1096,4.1107,4.1255,4.1724,4.2856,4.3868,4.4333,4.4719,4.4657,4.3817,4.4422,4.4305,4.2588,4.4697,4.5909,4.5073,4.5753,4.6261,4.6305,4.6296,4.6087,4.5618,4.6042,4.6054,4.5558,4.3874,4.3008,4.2997,4.2607,4.28,4.3556,4.3997,4.4189,4.4187,4.4702,4.4436,4.363,4.4162,4.3629,4.2402,4.2402,4.1875,4.1152,4.1618,4.2104,4.271,4.3941,4.4704,4.5213,4.6032,4.6305,4.6306,4.6303,4.6303,4.6304,4.6302,4.6301,4.638,4.6794,4.6893,4.6795,4.6402,4.6303,4.6301,4.6297,4.6295,4.6408,4.6814,4.7261,4.7845,4.8642,4.9506,5.0118,5.0193,4.9411,0.0,0.0,4.7769,4.7623,4.8097,4.8868,4.9498,4.9901,4.9931,4.9886,4.9852,4.9771,4.9741,4.9745,4.9339,4.9107,4.9107,4.8314,4.8295,4.9088,5.0299,5.0909,5.0905,5.0905,5.0888,5.0846,5.0844,5.0799,5.0757,5.0829,5.055,5.0149,5.0681,4.9861,4.8476,5.0338,4.9492,4.7462,4.9198,4.9561,4.9239,4.1064,4.1078,4.1367,4.2256,4.3115,4.3986,4.4855,4.5119,4.4916,4.41,4.4682,4.4646,4.3144,4.4919,4.5958,4.5321,4.5841,4.6211,4.626,4.6284,4.5884,4.5005,4.5443,4.5369,4.4648,4.3166,4.2305,4.2108,4.2108,4.2183,4.2393,4.3008,4.3081,4.2746,4.4234,4.4089,4.2815,4.4564,4.4173,4.2422,4.2615,4.2186,4.1484,4.214,4.2936,4.3815,4.4694,4.5438,4.6028,4.6222,4.6301,4.6301,4.6299,4.6297,4.6297,4.6296,4.6296,4.6296,4.6301,4.6301,4.6301,4.6301,4.6296,4.6293,4.6291,4.6305,4.63,4.63,4.6983,4.7859,4.8658,4.9518,5.038,5.1232,0.0,0.0,0.0,4.8586,4.8323,4.9173,4.9834,5.0428,5.1056,5.1108,5.1087,5.102,5.0948,5.0898,5.0898,5.0299,4.9977,4.9977,4.9776,4.9672,4.9672,5.0476,5.0877,5.0883,5.0883,5.0846,5.0784,5.0793,5.0766,5.0702,5.0757,5.0285,4.9556,5.0482,4.9381,4.7332,4.9754,4.9251,4.7385,4.9143,4.9763,4.9727,4.0992,4.0999,4.1302,4.2244,4.3127,4.3965,4.4782,4.5582,4.5796,4.4936,4.5562,4.5757,4.4819,4.5601,4.6189,4.6111,4.617,4.6209,4.6209,4.6211,4.5824,4.4946,4.4243,4.3851,4.3787,4.2871,4.2008,4.1195,4.1195,4.1577,4.2299,4.2377,4.2786,4.3546,4.4481,4.4418,4.3712,4.5464,4.4737,4.2479,4.3277,4.3084,4.2304,4.2375,4.2938,4.3801,4.4699,4.5031,4.5226,4.6022,4.6297,4.63,4.6308,4.6302,4.6302,4.6292,4.6308,4.6294,4.6297,4.6301,4.6301,4.6295,4.6294,4.6291,4.6303,4.6302,4.63,4.63,4.6983,4.7858,4.8645,4.9513,5.0358,5.118,0.0,0.0,5.0996,5.0364,5.0107,5.0923,5.1078,5.1139,5.1183,5.114,5.1094,5.1094,5.0963,5.0898,5.0898,5.084,5.0801,5.0801,5.0035,4.9613,4.9613,5.0402,5.081,5.0801,5.0801,5.0775,5.071,5.0775,5.0767,5.0693,5.0702,5.022,4.949,5.0419,4.9316,4.7182,4.9071,4.868,4.7335,4.9123,4.9762,4.9831,4.098,4.1451,4.2096,4.2986,4.3869,4.4724,4.5573,4.5982,4.5888,4.5007,4.5651,4.5868,4.5007,4.567,4.6203,4.6192,4.6206,4.6203,4.6192,4.5686,4.5491,4.5705,4.3387,4.2579,4.363,4.2247,4.1361,4.1048,4.1042,4.1198,4.1484,4.1533,4.2003,4.2822,4.3708,4.3961,4.3809,4.5515,4.4751,4.2475,4.3353,4.3179,4.2457,4.2993,4.3749,4.4629,4.5489,4.5802,4.586,4.6189,4.6308,4.6308,4.6296,4.629,4.6288,4.6258,4.6233,4.626,4.6298,4.6306,4.6309,4.6306,4.6305,4.6305,4.6302,4.63,4.6298,4.6292,4.7383,4.843,4.873,4.9926,5.0947,5.1257,0.0,5.0911,5.1195,5.0942,5.0855,5.1161,5.1192,5.1189,5.1139,5.1108,5.1075,5.1034,5.0998,5.0948,5.0898,5.0898,5.0898,5.0898,5.0552,5.0353,5.0417,5.0664,5.0784,5.0729,5.0729,5.072,5.0693,5.074,5.0731,5.0693,5.0712,5.024,4.9518,5.0428,4.9321,4.7283,4.956,4.937,4.8056,4.9772,5.0402,5.0433,4.1266,4.1829,4.2594,4.3769,4.4484,4.5186,4.6045,4.6189,4.5978,4.5363,4.5822,4.5958,4.5344,4.5581,4.5783,4.5751,4.5526,4.5484,4.5732,4.4966,4.4768,4.5361,4.2614,4.1861,4.3569,4.1894,4.1128,4.1404,4.1135,4.1009,4.1009,4.1335,4.177,4.2354,4.3504,4.4033,4.418,4.5605,4.4898,4.2859,4.3466,4.3347,4.2875,4.3469,4.4401,4.5451,4.608,4.6296,4.6296,4.6296,4.6298,4.6298,4.6308,4.6299,4.6253,4.6203,4.6201,4.6203,4.6255,4.6267,4.6273,4.6298,4.63,4.63,4.6296,4.6296,4.6292,4.6262,4.7623,4.8808,4.8794,5.0163,5.1296,5.1292,5.1287,5.124,5.1201,5.1194,5.1197,5.1197,5.1194,5.1171,5.1133,5.1101,5.1076,5.1027,5.1012,5.0971,5.0898,5.0898,5.0898,5.0898,5.0825,5.081,5.0863,5.0803,5.0758,5.0702,5.0702,5.0702,5.0712,5.0712,5.0712,5.0693,5.0702,5.025,4.9565,5.0465,4.9501,4.768,4.9703,4.9764,4.8844,5.0014,5.0615,5.0846,4.1895,4.2117,4.2673,4.4485,4.4869,4.5188,4.5981,4.6154,4.6185,4.6102,4.6154,4.6162,4.6102,4.5375,4.4873,4.4813,4.407,4.3934,4.4731,4.4031,4.3583,4.3583,4.193,4.1813,4.3545,4.1891,4.1424,4.2299,4.1427,4.1006,4.1048,4.1919,4.2315,4.2393,4.413,4.4893,4.496,4.5811,4.5236,4.3704,4.3686,4.3699,4.3708,4.3708,4.4736,4.6209,4.6282,4.6303,4.6303,4.6303,4.6292,4.6298,4.6308,4.6248,4.6203,4.6203,4.6203,4.6209,4.6203,4.6206,4.6214,4.6277,4.63,4.6298,4.6308,4.6303,4.6282,4.6209,4.7571,4.8794,4.8799,5.0162,5.1292,5.1291,5.1249,5.1194,5.1189,5.12,5.1202,5.1202,5.1202,5.1202,5.1202,5.1133,5.1102,5.1101,5.1046,5.0971,5.0898,5.0898,5.0898,5.0898,5.0825,5.0801,5.0801,5.0721,5.0712,5.0712,5.0712,5.0712,5.0712,5.0712,5.0712,5.0693,5.0702,5.0258,4.9574,5.0518,4.9876,4.8388,4.9277,4.9605,4.9613,4.9672,5.0198,5.0916,4.1895,4.2582,4.3396,4.4582,4.5324,4.581,4.6059,4.6126,4.6111,4.6098,4.5581,4.5449,4.6039,4.5343,4.5066,4.5662,4.4937,4.4018,4.3034,4.2742,4.2316,4.166,4.1235,4.1505,4.2587,4.155,4.1395,4.2232,4.1963,4.2147,4.2754,4.3078,4.321,4.3268,4.44,4.4893,4.4921,4.5226,4.4725,4.3656,4.304,4.3148,4.3697,4.3706,4.4736,4.6209,4.6282,4.6279,4.6233,4.6233,4.6236,4.6236,4.6223,4.6225,4.6206,4.6206,4.6206,4.619,4.6206,4.6192,4.6198,4.6214,4.6238,4.6238,4.6233,4.6233,4.6228,4.6195,4.7099,4.8057,4.8639,4.9632,5.0568,5.1142,5.1205,5.1203,5.12,5.1208,5.1171,5.1133,5.1169,5.1186,5.1125,5.1113,5.1094,5.1102,5.0993,5.0914,5.0898,5.0898,5.0909,5.0897,5.0827,5.0784,5.072,5.0702,5.0712,5.0712,5.0712,5.0712,5.0712,5.0712,5.0712,5.0693,5.0702,5.0585,5.0437,5.0758,5.022,4.9297,5.0167,5.0148,4.9684,5.0318,5.072,5.0975,4.2304,4.2993,4.3771,4.506,4.5716,4.6066,4.6056,4.609,4.6095,4.6056,4.5345,4.5032,4.554,4.4824,4.4392,4.4545,4.4073,4.318,4.1786,4.1975,4.1756,4.0848,4.0883,4.132,4.2145,4.1704,4.1864,4.2665,4.2694,4.2805,4.2985,4.3408,4.36,4.3639,4.4502,4.5098,4.5382,4.508,4.4463,4.3626,4.2754,4.2919,4.3655,4.3651,4.4721,4.6212,4.6253,4.6233,4.6209,4.6233,4.6211,4.6203,4.6209,4.6193,4.6199,4.6199,4.6199,4.6199,4.6193,4.6193,4.6196,4.6206,4.6198,4.6206,4.6201,4.6198,4.629,4.6615,4.7381,4.8222,4.9054,4.9907,5.0631,5.1116,5.1203,5.1206,5.1202,5.1202,5.1177,5.1139,5.1157,5.115,5.1144,5.112,5.1089,5.1056,5.0952,5.0898,5.0898,5.0898,5.0909,5.0905,5.0827,5.0793,5.0775,5.0731,5.0712,5.0712,5.0712,5.0712,5.0712,5.0712,5.0702,5.0702,5.073,5.0784,5.0846,5.0872,5.0587,5.0159,5.0665,5.0778,5.0654,5.0863,5.1184,5.1472,4.2923,4.3285,4.386,4.5684,4.5991,4.5986,4.5997,4.6041,4.6037,4.5906,4.5249,4.4744,4.47,4.3951,4.3158,4.2373,4.2247,4.1828,4.093,4.1574,4.1629,4.0833,4.0804,4.117,4.197,4.2133,4.2634,4.3513,4.3578,4.3252,4.2552,4.3415,4.3778,4.3743,4.462,4.5374,4.5913,4.5125,4.4314,4.3519,4.2717,4.2872,4.3604,4.3685,4.4754,4.6206,4.6198,4.6206,4.6209,4.6279,4.6255,4.6203,4.6209,4.6193,4.6199,4.6199,4.6199,4.6199,4.6199,4.6199,4.6196,4.6196,4.62,4.6198,4.6206,4.6203,4.6424,4.7221,4.8027,4.8879,4.9829,5.0582,5.1111,5.1189,5.12,5.1202,5.1202,5.1202,5.1202,5.1196,5.1139,5.1133,5.1196,5.114,5.1048,5.0896,5.089,5.0859,5.0801,5.0859,5.0898,5.0898,5.0825,5.0838,5.0891,5.0759,5.0693,5.0693,5.0693,5.0712,5.0712,5.0693,5.0702,5.0701,5.0784,5.0846,5.0891,5.0899,5.0899,5.0883,5.081,5.1316,5.1989,5.1254,5.1484,5.2075,4.2803,4.3197,4.3795,4.5601,4.591,4.5935,4.5991,4.6008,4.5775,4.506,4.4287,4.3802,4.3773,4.302,4.2669,4.3109,4.2526,4.1736,4.0808,4.0955,4.0988,4.0803,4.079,4.0892,4.1086,4.1826,4.2925,4.442,4.4496,4.4744,4.5172,4.5434,4.5181,4.458,4.5515,4.528,4.4231,4.4038,4.3475,4.2678,4.2483,4.2872,4.3663,4.4367,4.5286,4.6203,4.6201,4.6206,4.6209,4.6211,4.6203,4.6209,4.6206,4.6193,4.6199,4.6199,4.6199,4.6199,4.6199,4.6199,4.6196,4.6197,4.6201,4.6192,4.6203,4.6203,4.6429,4.7237,4.7547,4.8132,4.9649,5.007,5.0417,5.1097,5.1208,5.1202,5.1202,5.1202,5.1171,5.1127,5.1169,5.1167,5.1125,5.1108,5.0791,5.0044,5.0561,5.0608,4.9997,5.055,5.0901,5.0897,5.0827,5.0801,5.081,5.075,5.0712,5.0702,5.0702,5.0712,5.0693,5.0712,5.0711,5.0701,5.0829,5.0855,5.0838,5.0891,5.0838,5.0757,5.0784,5.0926,5.1087,5.0974,5.1029,5.1172,4.2757,4.3161,4.3773,4.5577,4.5589,4.533,4.5367,4.5029,4.4608,4.4151,4.3379,4.2874,4.2874,4.2461,4.2363,4.2753,4.1968,4.1266,4.0739,4.077,4.079,4.0797,4.0797,4.099,4.1351,4.229,4.3203,4.4087,4.4951,4.5394,4.5438,4.5449,4.524,4.4816,4.5304,4.5055,4.4245,4.3863,4.3202,4.2403,4.2403,4.2872,4.3698,4.4572,4.5439,4.6206,4.6203,4.6216,4.6243,4.6211,4.6203,4.6192,4.6196,4.6206,4.6199,4.6199,4.6199,4.6199,4.6199,4.6199,4.6192,4.6193,4.6209,4.6189,4.6201,4.6177,4.6399,4.7239,4.7392,4.7797,4.9054,4.9621,5.0042,5.0503,5.093,5.1202,5.1202,5.1202,5.1022,5.0582,5.0912,5.1101,5.101,5.1023,5.0847,5.0305,5.0662,5.0724,5.0279,5.0666,5.089,5.0913,5.0872,5.0855,5.0861,5.0766,5.0555,5.0186,5.0528,5.049,5.0144,5.0565,5.0766,5.0793,5.0863,5.088,5.0861,5.0899,5.0855,5.0793,5.0838,5.1087,5.1385,5.1032,5.0897,5.0899,4.2516,4.3027,4.3699,4.5356,4.5222,4.484,4.4691,4.4075,4.3499,4.3224,4.2592,4.2131,4.1974,4.1946,4.1925,4.1859,4.1195,4.0763,4.0725,4.0764,4.0803,4.0803,4.0797,4.1106,4.1777,4.286,4.3472,4.3618,4.5212,4.5666,4.5006,4.5006,4.5007,4.5016,4.5015,4.4982,4.486,4.4036,4.3205,4.2407,4.2561,4.3011,4.3702,4.4738,4.5569,4.6209,4.6201,4.6238,4.6273,4.6214,4.6206,4.6201,4.6193,4.6199,4.6199,4.6199,4.6199,4.6199,4.6199,4.6199,4.6192,4.6189,4.6181,4.6181,4.6181,4.6154,4.6351,4.7217,4.7398,4.7646,4.8455,4.9304,4.9906,4.9906,5.0619,5.1202,5.1202,5.1202,5.0872,5.0004,5.0487,5.0893,5.0952,5.0978,5.092,5.0728,5.0828,5.084,5.0705,5.0821,5.0898,5.0898,5.0905,5.0819,5.0705,5.0767,5.0325,4.9401,5.0165,5.0159,4.9553,5.0424,5.0852,5.0924,5.0932,5.0921,5.0898,5.0913,5.0916,5.0899,5.0916,5.133,5.1813,5.1125,5.0877,5.0855,4.1596,4.2511,4.342,4.443,4.5172,4.5421,4.4712,4.4505,4.3924,4.2466,4.2177,4.1837,4.107,4.0947,4.09,4.0894,4.0784,4.0732,4.0769,4.0788,4.0788,4.0788,4.0809,4.0855,4.0971,4.2569,4.3762,4.4529,4.552,4.5936,4.5846,4.5846,4.5872,4.5918,4.5918,4.5535,4.4855,4.4038,4.321,4.2477,4.3227,4.3543,4.3779,4.5404,4.6102,4.6203,4.6192,4.6217,4.6211,4.6209,4.6198,4.6206,4.6203,4.619,4.6199,4.6199,4.6199,4.6199,4.6199,4.6199,4.6189,4.613,4.6102,4.6102,4.6102,4.6154,4.6411,4.7222,4.7407,4.7651,4.8443,4.9315,4.9906,4.9906,5.0619,5.1202,5.1202,5.1202,5.0872,5.0004,4.9949,5.0299,5.1075,5.1062,5.071,5.0001,5.0538,5.0589,4.99,5.0511,5.0898,5.0898,5.0905,5.0576,4.9881,5.0497,5.0044,4.8577,4.9424,4.9749,4.9608,5.0546,5.0983,5.099,5.1046,5.0998,5.0906,5.0956,5.0952,5.0908,5.096,5.1026,5.1037,5.0883,5.0784,5.0739,4.1323,4.1903,4.2706,4.4105,4.4375,4.4273,4.3931,4.3522,4.2811,4.1536,4.1374,4.1219,4.079,4.0719,4.0707,4.0694,4.0738,4.0767,4.0794,4.0792,4.0804,4.0804,4.0794,4.079,4.0797,4.1989,4.3053,4.3981,4.5297,4.5958,4.6002,4.6005,4.6037,4.6098,4.6098,4.5655,4.4877,4.4518,4.3607,4.2529,4.3838,4.4058,4.3786,4.5537,4.6193,4.6195,4.6198,4.6201,4.6206,4.6198,4.6189,4.6203,4.6193,4.6203,4.6199,4.6199,4.6199,4.6199,4.6199,4.6199,4.6189,4.6126,4.6098,4.6093,4.6099,4.6113,4.6251,4.6653,4.6694,4.6774,4.7148,4.7913,4.8655,4.9104,4.9864,5.0584,5.1089,5.072,5.0267,4.9847,4.9375,4.9608,5.0966,5.1034,5.0857,5.0511,5.0743,5.0743,5.0395,5.0705,5.0898,5.0898,5.0457,5.0051,4.9707,5.0016,4.9355,4.775,4.9102,4.9489,4.9009,4.9918,5.0326,5.0371,5.0869,5.1062,5.1012,5.1046,5.1046,5.1,5.1034,5.0998,5.089,5.0782,5.0739,5.0692]}]]